GFSNW_700_rhum_000.txt.gz
RH
48 19 14 16 10 22 25 29 51 44 41 48 46 62 58 55 53 47 51 58 49 58 57 63 60 65 60 55 61 56 52 52 67 60 59 61 55 48 43 44 46 40 41 37
72 56 16 12 9 15 22 29 48 50 44 48 46 54 59 56 53 49 54 50 45 54 61 62 64 69 66 63 64 62 56 58 58 54 57 52 63 65 65 60 68 59 47 38
94 71 47 12 13 9 24 33 60 53 64 70 60 60 63 62 61 53 47 51 54 63 62 62 66 70 72 71 68 69 66 61 52 38 41 43 48 47 55 61 52 45 48 38
84 95 62 26 13 11 16 25 32 44 46 58 69 62 57 52 53 51 54 56 58 58 61 64 70 70 69 70 70 68 69 67 52 40 38 40 37 48 43 65 59 59 42 43
78 90 86 53 16 14 11 13 17 25 28 34 42 40 50 54 51 44 42 38 37 44 61 68 64 66 68 66 60 64 65 72 48 40 34 31 39 29 26 25 37 56 55 60
50 78 86 76 68 33 16 18 15 18 27 32 29 34 36 32 33 38 38 36 38 36 42 49 52 53 53 52 46 39 38 42 54 46 48 53 56 39 35 36 40 41 55 45
42 50 81 80 81 68 59 42 23 19 25 24 27 28 30 41 41 40 38 37 36 34 35 36 36 36 36 36 35 34 33 36 66 68 71 64 48 48 48 46 48 47 46 47
55 44 51 83 91 93 82 76 75 68 71 66 47 53 74 64 69 74 85 86 81 82 84 83 81 77 76 70 68 64 60 56 74 76 66 62 56 50 48 48 53 54 52 52
72 68 42 49 72 89 93 86 82 82 89 88 93 99 99 94 97 98 98 98 98 98 95 93 91 85 78 78 69 61 59 57 87 86 90 73 56 51 55 58 65 58 56 56
79 83 79 44 52 69 78 95 99 96 94 92 89 97 98 98 98 97 96 98 98 99 99 95 96 94 88 83 75 66 62 56 65 80 94 81 63 60 66 73 59 66 69 70
44 68 82 82 56 44 61 79 88 90 99 100 97 98 99 100 98 99 100 99 98 95 95 93 94 91 88 84 80 76 73 72 85 99 99 91 64 67 71 73 80 86 89 90
24 29 41 67 74 74 62 56 75 85 89 88 94 98 100 100 100 100 100 94 87 99 99 98 100 98 99 98 96 88 84 74 75 80 76 73 70 75 79 83 88 89 90 85
8 20 25 27 29 37 52 69 79 95 92 78 80 76 83 88 92 95 98 96 92 97 100 100 100 100 98 100 99 98 91 86 91 87 78 66 79 81 85 96 93 94 99 98
3 7 15 27 33 31 35 39 72 95 93 97 92 89 97 97 96 98 99 100 100 98 98 100 99 90 99 93 89 100 98 99 70 70 69 74 84 90 90 92 100 100 100 100
3 5 11 22 33 40 40 39 45 88 94 87 94 62 82 77 75 78 83 90 92 91 85 95 99 99 89 98 100 98 95 60 73 64 85 97 93 95 92 96 96 97 98 98
5 6 10 14 20 30 38 45 53 59 81 79 74 44 60 56 49 59 60 75 81 80 76 78 92 97 99 100 100 97 51 56 72 69 82 100 99 96 95 91 97 100 100 96
22 34 38 43 44 48 49 61 60 74 93 98 98 95 72 73 64 64 72 82 93 98 100 99 98 100 100 98 100 26 48 74 84 100 100 98 95 100 99 98 97 98 94 96
48 47 41 42 40 34 26 32 37 58 99 99 99 95 86 63 59 71 78 82 90 96 85 74 70 97 100 98 22 44 47 65 76 82 100 94 94 93 100 98 98 98 97 95
43 36 23 7 6 6 11 20 28 42 83 98 96 79 82 80 81 94 92 100 93 80 62 51 69 82 96 36 52 50 61 63 75 96 100 99 100 100 99 98 97 96 86 31
14 5 4 3 3 7 8 23 41 57 98 98 79 48 79 69 78 100 100 99 96 96 92 100 100 99 77 56 61 60 60 59 70 87 88 96 98 96 96 96 91 48 17 11
4 3 4 4 3 4 7 14 37 53 43 42 32 36 59 62 80 98 100 100 99 100 86 94 76 60 47 54 55 60 59 58 60 66 87 99 96 92 93 71 36 16 14 15
4 6 6 5 5 7 14 71 49 31 45 40 34 38 49 55 73 94 98 98 91 75 85 86 59 44 50 49 51 53 50 56 60 65 87 100 99 89 64 29 17 17 18 18
5 6 6 8 19 43 52 53 40 31 29 28 41 51 53 62 75 84 86 95 84 85 90 71 50 51 50 51 51 58 42 36 65 80 92 95 80 48 26 21 22 21 21 22
8 8 10 14 21 20 15 17 24 30 28 38 54 68 79 80 84 90 94 94 96 96 77 54 48 50 50 52 62 56 23 25 46 49 50 46 35 26 25 24 21 24 27 30
10 9 10 10 14 13 11 10 11 18 32 48 76 89 91 96 97 94 96 95 93 82 52 50 55 55 56 64 62 34 24 21 22 27 31 30 29 28 23 23 28 33 36 40
6 10 13 19 17 13 8 10 25 43 60 85 94 98 96 92 97 96 92 92 66 54 58 62 62 69 74 66 36 32 28 25 24 25 26 26 25 24 27 33 37 41 46 51
33 29 23 19 18 12 12 25 41 56 70 90 97 100 85 92 97 95 84 66 54 64 70 71 80 92 67 48 48 46 39 37 40 40 35 30 32 36 39 42 45 58 64 68

GFSNW_700_rhum_003.txt.gz
RH
40 19 13 9 16 16 23 46 51 68 82 93 91 99 100 96 89 78 69 64 65 69 60 65 64 75 65 62 65 70 61 68 62 65 63 55 48 41 38 38 37 38 37 32
44 33 14 11 7 15 16 38 46 55 61 84 67 68 73 68 62 58 59 54 50 55 60 68 62 63 64 66 72 71 61 72 56 69 58 57 63 57 51 46 58 49 38 31
61 48 25 12 6 18 17 24 60 52 57 67 86 76 67 68 66 60 54 55 59 58 55 56 63 62 63 63 64 66 67 68 71 50 55 59 62 46 50 61 55 46 42 41
70 69 42 10 6 19 23 29 56 49 72 70 63 58 61 57 55 56 57 63 62 58 60 60 63 62 64 63 58 58 57 71 66 66 64 56 59 58 50 57 54 49 36 39
45 71 68 12 10 10 18 24 33 43 44 48 41 42 40 40 44 45 51 53 54 53 49 58 59 56 54 55 57 55 52 61 45 39 39 43 45 35 33 51 51 52 52 51
40 55 79 59 11 10 6 14 16 23 24 23 27 34 34 35 40 40 38 35 36 35 37 39 44 45 46 48 51 56 48 60 52 46 44 55 56 40 38 37 38 46 50 48
54 43 68 79 71 25 16 13 14 17 24 27 28 33 33 35 37 39 39 37 36 35 34 33 32 34 40 41 40 40 50 66 68 59 59 66 52 43 43 46 50 50 52 53
65 49 46 70 78 73 62 33 31 22 37 29 30 33 40 46 51 56 71 83 79 79 80 81 80 75 75 73 70 71 71 62 67 71 63 58 58 55 56 58 59 57 56 59
71 66 54 48 55 79 76 74 69 48 53 56 55 82 99 94 93 93 94 99 98 96 92 91 86 84 76 74 72 67 62 60 72 76 84 74 55 58 56 61 63 59 56 58
54 72 70 69 56 55 67 78 81 85 93 86 88 97 96 98 92 93 97 91 95 89 89 87 78 78 77 80 78 71 70 68 78 79 82 75 66 55 65 69 56 66 65 67
26 42 68 79 84 62 52 60 75 81 85 88 98 99 99 100 98 92 94 97 90 91 85 87 85 89 85 82 80 78 76 78 82 89 86 90 57 63 68 70 77 77 80 79
22 28 42 55 77 87 82 69 70 76 79 88 90 88 95 96 97 98 99 96 98 93 92 98 98 93 98 98 98 88 89 80 72 83 66 60 70 79 82 83 85 84 90 96
13 16 24 31 39 64 86 91 96 97 98 94 83 82 88 93 99 99 98 96 96 92 94 95 97 99 99 100 98 96 95 84 80 77 71 75 79 82 85 88 92 88 88 99
4 5 10 34 38 36 36 43 69 82 97 98 87 88 98 99 100 100 99 96 98 98 96 94 97 96 98 100 100 98 96 91 70 95 89 75 87 86 96 98 94 95 97 99
3 2 5 16 30 43 48 49 58 62 70 92 78 74 68 71 86 92 89 90 90 91 95 100 100 100 100 100 100 63 49 43 70 62 80 93 96 96 92 94 97 96 97 96
1 2 6 13 25 41 45 47 51 42 47 70 74 34 42 39 51 68 76 73 89 95 88 95 94 78 93 100 94 17 38 56 47 52 71 83 87 85 89 93 95 95 95 92
4 10 20 31 36 46 48 38 42 40 61 78 71 40 32 33 39 35 40 50 64 72 89 91 79 82 87 97 77 28 47 60 73 78 76 96 99 97 89 95 93 88 95 100
25 36 57 61 56 50 48 50 44 45 54 55 44 46 44 49 50 56 63 74 83 98 97 98 100 100 99 86 23 40 49 68 68 76 86 89 95 96 100 97 100 99 98 98
41 60 64 57 49 42 30 37 42 49 55 60 22 22 43 36 50 80 88 90 81 78 84 67 80 98 84 25 39 41 44 54 52 49 53 54 60 66 90 100 100 96 96 98
55 58 63 40 15 9 9 14 22 48 69 74 23 19 32 39 57 73 81 94 78 75 68 49 63 42 29 39 36 38 41 44 46 48 50 55 57 62 80 94 97 100 97 73
48 38 18 4 5 7 12 18 18 37 39 33 27 37 58 57 65 93 94 96 90 93 88 88 98 73 45 50 49 52 51 52 54 50 52 57 62 69 95 100 98 97 74 38
19 12 4 4 7 9 11 23 18 18 26 27 25 35 43 56 70 100 100 99 98 96 96 97 67 50 52 57 56 53 48 49 55 54 36 43 53 94 100 99 94 67 33 20
6 4 6 7 12 14 17 23 29 31 30 33 39 44 51 59 72 99 100 100 100 91 97 81 58 52 54 53 54 49 55 59 60 54 24 24 51 74 78 69 45 27 26 24
15 15 14 12 23 26 20 19 23 23 26 27 21 34 65 72 79 82 82 94 97 94 81 63 48 46 49 48 52 57 65 66 56 28 26 24 34 46 42 33 30 28 22 21
36 24 13 16 23 24 23 23 19 18 21 25 39 58 79 87 94 90 91 94 91 90 48 46 54 54 53 56 58 67 64 58 40 33 26 24 25 27 27 27 25 23 30 38
68 21 21 25 25 19 18 22 19 20 34 48 56 77 91 93 92 91 93 97 77 49 49 58 58 62 69 70 68 72 65 52 41 40 37 35 34 33 34 33 34 43 49 52
96 40 8 19 29 15 21 31 23 25 34 52 62 86 79 89 89 100 83 61 34 45 62 72 77 82 87 82 85 82 57 46 53 58 59 64 63 59 56 54 52 56 60 70

GFSNW_700_rhum_006.txt.gz
RH
55 32 12 7 16 17 27 50 64 91 99 92 91 92 96 94 94 82 86 82 80 85 89 83 74 73 73 65 63 64 60 66 65 65 60 55 48 45 41 40 38 38 38 36
78 45 12 9 10 16 23 47 64 79 91 85 94 95 92 84 83 74 66 74 75 87 80 77 83 68 68 72 72 66 62 68 72 64 59 56 51 43 39 39 44 50 42 35
72 71 42 11 7 15 18 39 53 66 77 95 94 94 89 82 71 62 55 63 67 63 62 62 65 69 77 74 72 65 61 65 67 59 56 62 56 49 47 50 56 50 45 37
50 82 47 10 7 18 20 26 51 62 73 70 68 68 71 62 67 69 66 69 70 62 69 63 63 61 58 61 57 54 53 59 60 58 56 51 43 35 32 31 23 51 18 39
41 73 73 10 8 19 23 21 43 59 61 52 56 53 45 47 51 50 58 60 57 56 56 63 56 50 49 47 47 45 44 54 46 31 28 40 40 22 32 35 31 48 48 41
53 49 80 62 10 12 18 23 29 38 38 38 31 28 28 32 35 37 44 49 50 46 44 45 46 48 48 44 41 41 42 42 48 46 44 50 47 38 40 39 39 40 42 41
66 46 57 84 63 17 11 17 20 24 22 19 19 19 17 20 29 31 34 32 31 34 32 33 33 30 29 29 31 37 55 61 60 58 59 73 49 44 42 42 45 46 48 49
68 61 47 73 86 74 40 16 19 19 21 20 22 22 22 32 38 38 38 36 36 32 34 54 76 75 76 73 72 71 71 53 62 69 70 61 50 49 51 53 52 53 54 53
59 69 59 50 58 84 78 62 40 31 30 25 24 28 31 42 55 76 71 81 91 87 81 82 81 86 73 72 70 66 64 63 68 73 75 89 57 57 56 60 61 59 60 61
35 51 74 66 57 53 76 86 81 79 72 52 49 42 62 78 81 84 87 94 91 88 87 88 84 76 74 76 77 70 69 70 68 67 76 74 56 64 65 65 60 65 68 75
28 27 40 69 76 71 58 55 72 87 94 93 73 86 90 95 93 82 91 92 89 89 86 84 80 82 77 76 74 72 75 76 80 83 80 78 61 62 70 75 79 83 85 88
21 23 25 44 59 85 87 75 61 62 73 85 94 98 99 95 94 96 97 93 86 86 83 79 77 77 75 81 85 87 80 73 75 83 64 62 74 80 80 81 83 83 93 99
14 15 17 22 43 59 90 98 96 80 67 71 68 86 97 97 100 100 98 99 93 94 92 90 95 95 95 97 93 96 92 78 79 74 55 64 70 74 80 86 94 97 100 98
15 8 7 10 19 40 55 60 90 98 96 95 96 88 94 89 98 100 100 99 100 98 94 98 99 100 100 97 98 66 87 78 65 83 75 74 79 97 92 91 92 88 87 87
24 9 5 2 5 26 49 62 74 78 65 89 91 82 88 100 100 99 99 97 96 97 95 94 98 100 98 97 98 33 40 45 59 56 48 58 49 57 66 62 60 84 84 81
26 13 5 2 6 15 30 55 77 95 82 75 90 50 63 86 92 92 90 89 90 90 82 96 100 100 100 99 89 15 32 48 39 32 25 28 33 50 51 63 64 58 71 65
17 10 4 6 13 24 38 56 68 65 85 98 73 56 41 48 44 54 59 67 79 87 100 97 85 95 100 99 53 25 40 39 38 41 41 40 47 51 56 58 64 64 62 77
9 6 12 22 36 45 47 52 60 86 94 98 81 69 52 55 53 52 59 69 88 100 100 74 75 85 87 52 23 30 36 37 34 32 37 45 51 54 53 51 54 61 76 88
11 21 42 57 58 63 56 57 71 82 97 92 60 56 67 52 61 74 77 81 87 83 79 66 76 82 71 22 29 34 36 40 40 42 42 43 47 49 48 49 52 55 66 82
43 66 74 70 66 56 52 46 42 57 70 82 36 35 55 48 63 76 77 84 70 80 85 84 99 65 24 32 33 32 42 46 44 42 44 44 47 50 50 42 42 54 72 94
78 85 83 70 47 24 15 7 10 18 18 16 13 17 35 57 61 81 84 84 71 74 84 65 84 45 29 32 36 40 46 49 48 48 52 48 54 54 35 34 51 74 98 98
83 94 88 75 25 6 7 12 13 10 15 16 17 24 33 49 68 96 90 71 65 59 81 83 47 34 35 37 43 49 50 49 50 56 58 54 46 27 22 22 61 95 88 67
100 100 88 27 13 15 15 14 12 15 14 34 42 46 49 48 53 79 71 81 89 75 89 71 43 37 37 47 53 54 56 58 58 60 59 44 38 31 25 30 39 38 36 30
100 100 31 9 11 12 11 9 22 32 34 36 36 32 36 48 58 80 82 98 93 92 96 47 32 43 50 56 58 61 66 69 67 69 58 50 34 28 26 26 26 27 30 31
96 49 21 18 19 23 25 28 32 34 39 38 37 36 36 46 76 79 87 91 96 92 45 42 52 49 61 67 70 74 75 79 78 74 61 40 39 41 42 42 42 43 46 47
90 28 23 22 22 28 29 28 33 31 34 45 46 40 50 58 64 88 82 88 74 36 35 49 46 52 65 75 76 81 84 88 85 74 48 47 52 54 56 61 64 64 64 64
97 51 30 25 28 24 33 23 24 31 37 36 38 51 44 64 79 100 72 42 27 41 52 55 43 67 81 78 82 96 92 92 84 62 58 59 62 66 70 76 77 73 75 79

GFSNW_700_rhum_009.txt.gz
RH
74 46 13 12 11 20 34 51 66 100 99 92 85 88 100 98 100 99 99 79 79 81 84 78 73 69 59 56 57 60 60 59 56 56 55 54 54 52 46 38 40 39 40 36
58 55 41 11 7 20 49 51 78 90 99 89 84 88 95 92 87 95 97 100 80 88 85 76 72 67 59 56 54 57 64 67 71 65 64 62 54 49 46 43 45 45 45 37
45 69 51 11 6 19 33 49 75 89 86 97 82 89 92 83 71 68 78 86 93 76 74 73 73 68 72 69 65 62 60 68 61 61 57 57 59 51 44 41 43 40 39 36
48 76 50 10 7 21 30 41 64 77 94 95 91 92 84 71 70 76 77 82 80 79 78 66 63 72 76 76 72 64 58 63 60 58 54 52 50 45 42 40 34 43 28 28
61 69 70 14 8 21 30 44 54 67 66 62 65 66 58 61 58 62 71 70 64 59 64 62 65 65 64 59 55 51 49 48 50 44 34 29 28 28 30 29 28 29 26 21
70 47 78 53 9 16 25 40 39 56 46 46 41 41 40 46 47 59 61 59 62 60 55 60 56 54 44 41 42 40 39 37 34 33 42 34 30 24 31 31 35 38 40 40
74 60 55 80 18 12 18 38 36 39 43 37 29 21 20 30 34 39 51 54 52 50 53 56 54 48 40 32 25 24 23 28 36 47 50 73 47 48 46 45 43 45 48 48
66 73 50 75 72 21 11 26 32 30 28 22 22 20 18 21 28 32 34 34 32 32 32 30 29 34 44 53 61 62 62 56 57 62 70 56 45 47 51 53 54 57 53 52
46 73 67 52 83 77 45 19 17 20 24 20 18 18 18 23 31 33 35 36 35 42 54 62 73 75 73 69 70 68 67 70 64 69 71 84 62 57 57 59 56 52 57 59
36 43 74 67 56 69 82 72 48 31 24 23 21 24 24 25 31 46 54 61 78 73 74 78 78 78 74 72 73 67 66 66 67 72 76 64 58 63 61 61 69 72 74 76
28 29 34 64 74 62 64 79 84 79 72 71 50 35 30 41 61 72 69 89 90 89 86 80 78 77 77 77 74 71 70 72 74 76 77 76 70 73 79 80 86 86 78 80
30 23 23 25 46 75 74 73 73 77 88 92 90 76 74 81 83 82 80 82 84 87 84 79 75 74 74 69 74 75 78 76 78 76 68 74 83 81 87 85 84 82 84 88
33 20 18 18 21 38 57 86 88 79 81 90 98 100 99 100 97 94 88 88 90 88 83 86 84 88 88 85 81 79 72 76 83 76 62 67 69 74 77 76 74 64 57 82
40 26 14 11 12 16 28 45 66 94 98 89 87 86 94 100 100 100 100 99 100 99 98 94 89 90 92 86 79 87 83 82 72 71 60 62 50 62 42 33 37 59 63 52
56 44 26 10 6 6 15 34 39 40 64 79 99 96 100 100 100 99 100 97 100 99 94 94 97 94 95 86 88 67 43 42 51 34 40 33 22 24 34 49 47 43 40 40
64 50 33 18 6 5 8 20 38 42 38 51 66 64 74 93 100 100 98 95 95 97 98 97 98 99 98 84 58 27 38 39 39 34 28 34 52 46 40 37 37 38 42 45
68 50 29 17 8 12 21 24 26 40 70 92 90 65 44 80 97 98 89 98 100 99 100 100 100 98 99 86 40 34 44 38 40 46 46 37 37 34 34 35 37 41 44 46
73 51 25 13 13 22 32 46 52 56 74 99 86 84 68 59 69 82 80 92 96 100 100 99 100 99 100 53 31 31 34 40 46 40 36 35 35 38 40 41 44 47 49 48
79 48 18 19 30 40 52 56 79 93 80 99 91 80 63 66 81 82 80 95 100 99 100 100 100 99 56 29 26 34 44 37 38 41 44 43 44 47 47 44 46 51 45 38
83 37 15 34 55 64 72 77 98 100 100 100 67 57 59 47 58 99 98 100 100 100 100 100 100 73 29 32 31 32 35 39 46 47 46 47 49 53 53 47 47 38 25 27
68 27 32 62 74 82 76 58 48 58 53 42 41 46 50 56 62 76 76 71 72 74 80 76 97 43 36 34 36 42 47 49 50 50 49 51 56 57 50 42 35 32 25 26
59 50 77 87 77 39 19 18 19 18 18 18 21 33 61 85 79 89 92 77 74 89 91 87 65 42 40 38 42 51 52 54 56 54 54 58 60 58 50 48 37 25 22 25
66 92 100 94 75 29 16 13 13 11 7 12 16 38 72 99 100 100 99 96 100 94 99 78 40 39 42 48 49 55 58 62 65 67 64 62 64 60 59 40 30 30 30 32
94 99 93 72 27 18 15 7 6 9 14 36 56 56 60 62 63 80 75 92 84 92 86 45 41 50 52 48 46 53 66 72 67 66 69 68 65 62 46 40 41 42 48 51
97 93 82 68 20 12 13 9 26 40 58 45 42 41 36 37 40 41 56 68 80 68 40 46 46 46 50 56 47 40 75 73 64 77 77 77 72 57 50 50 51 58 64 68
96 91 48 30 15 28 26 29 54 50 44 43 43 45 45 40 33 43 44 67 43 34 32 34 36 39 56 51 48 52 54 66 70 76 80 85 72 58 58 60 67 73 77 83
94 82 53 25 24 33 50 48 41 36 40 39 42 47 42 45 48 52 38 32 27 30 29 28 29 37 41 46 63 81 87 86 79 81 92 88 67 64 64 70 78 80 87 91

GFSNW_700_rhum_012.txt.gz
RH
52 68 49 12 9 18 32 56 66 84 96 96 92 100 100 100 100 100 100 90 87 85 87 92 95 70 70 59 57 62 56 42 48 53 48 46 47 47 48 39 42 42 42 36
64 54 68 15 8 19 42 71 79 88 92 87 85 97 100 100 100 100 98 100 89 98 95 89 66 66 61 53 53 69 63 58 63 63 59 56 54 50 51 49 45 46 46 37
68 45 78 21 8 27 57 67 75 83 83 89 91 90 86 97 100 98 100 100 100 99 87 67 69 64 66 64 60 66 66 62 54 58 56 58 57 55 53 50 45 43 41 38
68 48 80 11 9 19 31 62 73 72 96 100 93 91 79 72 92 100 97 98 91 80 78 73 72 72 69 69 62 60 63 63 58 54 52 55 55 54 53 47 44 41 38 37
69 53 80 36 9 23 30 52 68 80 87 90 89 79 68 65 64 72 92 90 93 69 73 70 67 63 68 67 68 68 65 60 60 59 56 50 46 48 50 51 50 46 41 34
69 65 58 69 10 20 29 52 64 61 61 66 74 67 55 60 59 67 70 70 79 78 69 73 79 73 68 62 64 57 56 45 51 38 36 30 27 24 27 27 29 30 32 37
63 70 53 80 13 15 24 47 57 48 45 43 43 41 40 48 56 59 70 71 66 69 68 69 71 66 58 58 58 49 38 35 28 27 33 64 36 42 50 52 50 48 49 52
50 70 63 62 49 13 22 44 59 44 42 34 26 21 22 29 32 57 59 60 58 57 62 61 53 44 35 30 27 26 26 30 42 55 58 50 56 55 55 57 60 59 57 55
41 62 70 56 84 37 15 34 41 37 30 29 27 24 23 21 23 33 37 38 38 39 36 35 45 58 58 66 69 70 70 66 62 66 67 78 62 59 56 57 63 59 58 58
37 42 67 66 69 86 51 20 20 28 29 27 24 21 24 25 24 27 33 37 40 40 40 55 72 74 71 68 69 69 69 68 65 66 67 60 59 64 63 63 49 57 60 61
37 32 39 70 64 68 88 72 39 24 19 22 22 23 24 25 27 33 38 50 64 60 68 76 71 73 74 73 72 71 66 65 67 71 74 69 65 71 69 60 67 72 75 78
44 35 27 32 64 73 62 71 84 67 58 58 39 28 25 26 35 44 57 67 76 83 81 75 75 74 73 73 73 73 71 69 66 57 66 65 70 70 72 78 82 78 75 72
51 44 26 22 27 52 76 71 71 78 87 87 86 76 59 45 51 65 58 70 77 82 82 78 73 74 76 75 74 71 71 60 74 65 64 72 83 84 81 79 75 62 49 45
56 41 27 17 16 20 36 73 87 85 79 80 80 87 91 91 88 82 86 80 86 88 90 84 78 78 82 85 83 84 72 62 61 66 62 64 68 67 65 50 44 39 32 33
61 53 42 30 14 8 12 54 80 81 97 98 88 85 93 99 98 97 95 96 95 97 98 95 90 86 91 92 84 68 49 44 50 43 38 32 34 38 37 34 32 32 34 33
69 66 58 45 31 13 4 17 30 42 59 100 83 79 100 99 98 98 98 100 99 98 97 96 90 93 93 78 67 43 34 38 31 31 34 32 30 32 33 33 31 33 36 37
76 73 65 47 31 19 12 18 24 22 53 94 88 69 60 76 97 96 97 100 100 100 98 97 92 94 95 92 75 48 46 46 40 36 33 33 35 37 38 38 41 42 41 42
83 79 72 50 28 18 18 14 15 26 88 99 86 97 76 68 100 100 100 100 100 99 99 98 99 98 98 67 36 35 34 30 33 37 40 43 44 44 43 46 45 43 44 42
90 83 75 49 37 21 23 26 39 47 74 99 97 97 99 69 97 100 100 100 98 100 100 100 98 96 65 36 35 38 44 44 42 45 46 50 51 48 48 48 45 44 43 40
96 88 76 59 41 36 44 74 100 100 99 95 88 96 100 84 100 100 99 99 99 100 100 100 100 51 34 39 45 57 47 48 49 49 54 52 49 49 47 44 45 46 43 43
97 88 76 66 53 55 90 80 92 98 96 94 87 80 99 80 100 99 98 100 100 96 95 100 100 42 37 39 40 38 43 51 52 56 54 52 50 49 46 48 51 52 50 36
94 91 90 80 72 78 74 71 59 43 51 35 58 84 99 100 100 100 98 77 66 99 78 96 64 42 41 40 40 45 47 50 50 51 54 57 57 55 53 55 54 51 40 34
97 96 97 96 80 63 48 26 26 16 10 10 14 77 100 100 100 95 81 81 97 84 95 72 44 46 46 48 49 46 47 46 48 48 54 58 58 59 60 62 58 48 44 42
97 96 96 91 71 56 38 19 10 11 10 9 22 67 100 100 96 94 100 100 96 100 90 50 53 57 55 51 50 53 54 48 42 39 40 54 55 63 67 70 60 53 52 51
96 95 95 84 61 37 38 30 12 8 7 10 27 66 72 99 90 77 80 87 90 77 57 54 57 54 49 46 38 29 28 33 34 41 50 65 67 71 81 77 64 61 60 60
97 94 89 83 65 20 12 14 11 15 36 63 58 48 52 46 39 48 50 59 40 37 44 47 40 32 30 18 12 11 18 36 45 57 76 78 69 76 86 81 69 69 66 66
96 95 82 58 60 27 18 16 42 66 59 51 43 43 42 46 43 42 40 37 34 32 31 31 31 37 22 18 13 14 30 42 55 70 70 65 70 80 90 83 74 83 77 74

GFSNW_700_rhum_015.txt.gz
RH
66 64 47 55 17 11 24 58 82 92 100 99 100 100 98 96 99 98 100 100 94 92 73 93 100 99 91 83 71 66 52 49 52 55 52 54 52 48 47 44 46 43 44 38
59 59 51 65 31 10 38 66 91 94 95 96 100 100 100 100 100 99 99 98 95 99 84 99 90 81 83 74 63 66 53 48 58 64 54 52 52 48 48 48 44 44 47 37
54 53 58 68 30 10 46 83 88 89 94 95 99 96 100 100 98 100 97 98 94 96 94 86 85 81 69 66 68 85 67 58 44 52 48 49 51 48 47 50 50 49 45 39
50 53 62 72 16 10 49 67 82 87 92 93 97 90 98 100 99 100 92 99 96 92 92 77 73 77 68 67 63 83 71 61 59 50 52 46 40 41 44 51 51 51 47 44
47 55 66 68 30 10 22 48 65 86 100 98 90 89 99 86 94 99 98 95 95 80 70 68 70 66 63 68 74 71 66 63 59 56 53 53 55 57 58 54 53 51 48 47
46 54 68 58 59 10 24 42 70 87 96 94 85 77 89 98 91 97 100 100 99 98 77 67 61 59 62 62 67 65 66 61 62 59 56 53 45 47 50 54 54 52 53 46
43 49 68 60 73 11 21 43 72 78 78 84 84 75 66 76 75 75 92 91 86 87 95 95 87 76 73 69 70 64 62 57 52 31 40 48 36 35 37 42 40 40 41 44
41 45 66 71 67 21 19 37 69 60 57 56 52 50 54 60 51 73 74 78 80 76 77 82 76 84 79 81 69 69 64 54 33 34 37 34 51 48 52 55 58 53 58 60
40 43 55 78 56 54 15 31 65 50 42 36 31 27 45 39 52 74 72 71 69 75 74 66 48 46 44 37 33 36 33 32 31 54 64 75 58 61 62 62 62 63 64 66
39 42 44 76 62 73 20 22 61 59 40 36 36 30 30 31 38 50 55 53 63 69 67 44 47 49 45 58 63 57 49 58 60 62 62 56 59 63 64 64 54 57 65 67
39 40 39 53 77 64 77 23 38 46 39 33 29 28 27 27 29 32 32 40 40 40 36 47 59 71 64 71 70 69 68 68 69 68 68 63 52 60 64 59 57 57 64 62
42 41 35 36 66 71 75 78 33 27 29 33 28 27 27 31 33 33 36 37 47 55 54 62 71 73 74 74 70 69 66 64 62 58 59 55 59 60 60 60 62 63 66 66
45 44 40 29 32 66 74 69 82 72 63 47 52 37 31 30 33 42 55 54 73 73 75 80 76 75 73 68 70 66 65 65 69 63 62 62 65 69 72 73 72 73 70 49
49 50 49 32 23 28 58 78 72 80 93 91 82 71 69 52 42 60 70 66 77 84 86 79 79 74 77 77 77 77 74 71 67 63 66 63 66 68 63 58 56 53 35 26
54 56 48 30 19 16 22 47 82 87 91 89 84 85 87 86 76 76 85 84 83 87 90 87 84 80 80 79 81 85 80 77 75 66 58 60 59 49 43 37 34 31 27 27
61 61 54 43 32 17 10 24 63 90 98 100 99 90 81 88 97 95 94 87 91 88 90 89 91 92 94 89 84 61 60 64 61 54 46 43 40 39 36 31 28 28 30 33
68 68 66 61 52 36 23 23 30 28 39 92 99 87 85 100 97 96 98 99 96 88 94 100 100 99 98 90 85 65 59 60 41 38 37 39 36 32 33 37 38 38 39 37
77 76 74 69 55 39 29 27 20 23 36 62 61 60 51 74 100 100 100 100 99 100 99 100 100 99 94 91 68 47 47 46 49 47 36 32 34 37 40 43 43 43 38 30
88 85 80 69 56 44 34 31 20 27 71 100 85 88 88 50 93 100 100 100 100 99 100 100 98 89 87 72 58 47 37 34 35 36 37 40 42 45 47 44 42 37 33 35
100 94 82 70 55 50 40 49 56 57 80 78 72 86 89 70 97 100 100 100 98 99 98 99 99 90 86 71 62 57 55 57 54 46 49 47 46 45 45 45 45 44 39 42
99 96 87 73 71 56 55 57 98 98 81 68 58 60 78 81 100 98 98 97 95 95 99 98 99 58 42 40 45 48 47 38 39 43 44 43 45 49 50 52 51 46 45 47
98 92 88 75 90 75 66 85 82 69 76 54 76 78 96 100 99 99 99 97 92 94 92 99 75 46 40 39 40 39 36 37 42 46 47 45 43 32 24 37 51 51 51 54
98 97 96 95 95 94 71 66 60 44 32 30 36 82 100 100 98 96 96 86 82 69 85 81 44 44 45 43 39 40 42 46 48 38 35 32 17 14 18 25 37 55 62 62
97 96 96 92 90 79 67 52 43 35 26 15 26 76 99 99 99 86 82 92 93 99 87 44 44 47 47 48 51 51 44 40 28 19 10 8 9 14 27 48 56 63 72 69
96 95 95 88 84 70 60 53 36 24 17 13 39 97 95 99 91 87 96 98 94 74 46 40 46 55 59 56 51 40 28 19 12 8 8 9 12 30 43 55 57 66 78 78
96 95 91 88 84 69 47 44 27 15 12 28 85 100 100 95 84 76 68 67 52 43 41 44 56 61 54 42 33 26 21 18 14 8 8 11 19 31 61 60 61 85 87 81
96 93 89 83 73 71 31 34 22 17 22 44 64 50 64 54 43 50 42 41 37 36 44 45 40 35 32 30 31 28 23 20 12 10 9 11 20 42 73 85 92 90 94 84

GFSNW_700_rhum_018.txt.gz
RH
48 47 62 74 58 69 12 34 79 89 100 100 99 99 99 99 99 99 99 99 99 71 98 99 70 99 87 83 94 83 73 67 65 94 65 57 56 56 55 50 53 50 50 45
50 46 55 75 56 68 13 58 77 99 100 100 100 100 100 99 100 99 100 99 93 72 86 89 98 76 95 100 97 77 59 55 65 64 60 56 56 55 51 48 46 44 50 42
57 46 52 73 60 46 15 65 96 93 99 100 100 100 100 99 99 100 99 92 94 84 86 81 87 99 100 93 86 78 56 53 51 63 58 55 54 53 53 51 49 48 46 43
57 47 52 73 63 44 17 76 84 89 92 99 99 100 100 99 100 97 97 99 94 81 80 85 100 99 92 98 79 82 65 62 48 44 47 42 51 49 51 52 49 50 48 48
54 47 54 75 62 66 13 41 69 65 97 99 100 100 100 100 100 99 98 97 84 62 62 78 94 84 91 94 96 80 75 65 58 55 48 50 50 47 43 42 46 46 49 51
53 46 51 75 65 77 13 19 33 66 96 98 99 98 100 100 97 98 100 100 99 99 95 78 80 73 74 74 77 90 95 66 61 61 61 64 61 54 52 52 50 50 53 52
51 47 48 74 70 75 15 21 44 71 89 98 96 80 93 95 99 99 97 99 100 99 100 97 96 78 75 69 69 68 72 67 62 56 55 52 50 46 44 52 56 59 59 58
47 49 46 69 76 70 27 17 38 69 81 84 95 83 77 85 85 98 98 100 98 100 100 98 98 95 98 79 75 71 69 64 54 38 40 42 39 38 35 38 40 39 40 46
45 50 47 58 82 66 48 16 33 63 67 54 58 63 64 76 75 99 98 98 97 100 97 95 84 96 85 78 70 66 62 59 54 48 45 61 44 38 40 56 59 55 56 63
42 50 46 50 83 67 71 16 25 58 63 42 41 41 61 55 78 80 86 84 86 87 81 57 63 50 64 48 48 52 58 50 43 35 46 52 58 54 59 62 59 64 66 70
41 52 47 47 80 72 78 28 22 50 65 45 38 40 41 42 72 74 70 71 76 82 74 63 50 56 49 60 63 58 42 37 45 51 65 65 58 68 66 62 60 57 66 69
43 54 48 43 61 82 76 83 26 31 58 50 40 38 34 35 53 48 45 45 50 65 65 48 46 48 56 48 63 61 63 62 62 60 61 60 55 61 66 67 64 65 68 67
52 56 49 38 43 75 77 98 82 35 34 36 35 36 36 35 38 42 47 39 52 40 36 44 60 69 62 69 71 67 68 66 66 63 62 56 57 60 63 68 72 73 70 63
60 55 50 40 33 47 79 89 100 98 69 58 54 40 43 37 39 44 53 58 69 72 73 71 82 76 76 73 70 69 69 68 67 70 69 65 67 72 74 72 68 62 52 38
64 57 52 49 36 28 38 78 97 99 99 98 81 70 69 70 57 45 58 74 80 87 90 86 79 78 78 80 80 78 75 72 78 79 73 68 68 70 66 56 46 37 32 30
68 60 57 50 30 21 23 38 67 100 99 100 98 94 86 89 92 86 74 82 91 83 85 84 87 90 86 84 82 78 74 64 70 88 83 77 66 59 53 36 33 32 32 33
71 65 61 47 34 23 20 24 32 48 94 100 100 99 90 89 89 100 100 100 99 94 97 97 98 96 95 95 94 82 77 78 56 65 56 46 41 38 36 34 33 35 37 38
77 70 66 59 50 44 35 29 28 38 71 82 98 86 74 97 100 100 99 99 99 98 98 95 89 94 98 98 89 81 73 66 66 67 62 50 46 38 35 36 38 40 41 41
84 78 75 68 60 49 41 34 29 25 50 57 49 54 43 46 91 100 100 100 100 98 99 100 100 99 99 96 84 70 69 49 66 67 62 51 38 38 39 39 40 43 44 42
92 85 79 74 63 60 51 48 43 31 42 41 39 41 44 36 57 97 100 100 99 99 94 93 95 90 90 89 84 59 51 46 44 42 44 46 42 42 42 43 45 43 27 18
98 90 84 72 73 61 59 57 55 57 54 43 43 51 55 53 69 99 100 96 89 87 88 91 94 77 67 70 75 74 59 51 50 49 42 42 42 43 42 32 23 14 9 14
95 93 86 78 81 66 60 65 67 65 58 48 43 58 77 81 91 98 95 91 88 98 95 98 71 46 40 35 44 66 73 64 44 41 42 45 45 31 26 16 7 6 8 14
98 97 97 95 92 86 75 74 60 50 44 39 44 64 100 98 97 91 96 94 97 78 97 93 40 40 41 44 47 46 43 41 41 43 46 39 31 20 12 8 6 8 16 28
97 96 96 93 90 77 76 66 56 47 42 37 35 67 92 94 99 92 88 91 80 88 93 32 27 36 46 47 47 46 44 46 47 43 35 27 22 15 10 7 7 14 36 40
96 96 95 88 88 84 78 68 63 56 46 35 42 82 86 93 95 86 81 83 94 71 36 22 26 41 51 51 50 50 49 46 39 34 31 26 21 13 9 7 8 14 36 56
96 95 95 90 88 89 70 69 64 50 38 37 80 100 98 94 86 83 82 84 58 41 40 35 42 53 55 54 51 51 48 45 38 30 28 24 16 11 8 7 11 20 43 67
96 93 89 88 81 85 71 53 49 37 31 64 81 89 74 76 74 74 64 55 42 40 45 52 63 63 62 59 56 51 39 32 31 32 31 22 13 8 7 10 15 28 59 76

GFSNW_700_rhum_024.txt.gz
RH
95 46 53 50 70 82 99 100 66 56 100 100 99 97 98 96 98 98 98 98 97 86 88 84 93 92 89 78 96 99 78 67 76 99 97 91 86 86 90 76 62 55 46 37
96 50 55 57 73 83 100 99 46 76 100 96 98 99 98 98 99 99 98 98 96 92 82 82 98 92 65 55 87 99 89 74 76 88 94 99 96 80 81 72 57 51 46 40
100 54 56 61 76 89 100 96 85 100 98 100 100 99 98 99 99 99 99 98 98 83 74 72 80 97 63 65 68 79 95 71 63 58 60 73 95 84 79 73 68 52 49 42
98 57 59 61 78 93 100 97 54 87 97 98 99 99 98 99 99 99 99 99 94 74 68 80 95 92 72 68 80 82 88 71 64 63 63 61 58 57 73 65 61 54 48 52
99 57 62 69 80 96 100 100 41 80 93 91 91 100 99 99 100 100 99 98 94 94 62 51 88 95 66 81 87 87 88 72 66 61 60 59 59 50 55 61 60 56 55 53
98 66 63 68 80 85 100 99 57 61 81 80 80 100 100 100 99 100 94 88 93 96 82 94 77 93 87 70 68 75 80 75 67 60 58 58 67 62 56 52 61 56 56 46
96 68 67 68 80 78 100 99 81 31 32 56 70 99 100 100 100 99 91 91 72 82 95 99 92 86 89 79 98 84 88 82 72 65 66 85 56 48 46 46 46 51 48 50
97 71 71 72 77 80 100 99 87 33 46 79 94 100 99 100 99 100 89 97 81 83 90 95 100 100 99 100 97 98 86 81 83 80 64 59 54 52 51 48 40 33 40 50
95 67 74 80 77 81 100 100 99 28 48 79 95 100 99 100 100 100 100 100 97 90 100 98 99 99 100 99 100 100 100 99 88 88 64 68 51 50 46 50 49 44 45 52
89 68 81 81 77 79 100 100 94 28 48 90 96 93 72 83 100 100 99 99 100 98 100 98 97 99 96 98 98 99 100 100 98 100 95 55 54 45 38 45 42 37 35 45
95 77 82 80 78 73 100 100 89 29 58 93 72 60 68 82 87 100 99 100 100 100 100 98 92 89 97 89 85 94 90 83 78 92 92 64 54 47 43 41 40 41 44 47
83 88 82 80 77 72 100 100 82 36 73 70 53 58 51 82 90 99 100 99 100 99 100 99 97 75 90 96 71 75 82 81 71 64 62 59 57 55 54 46 55 56 61 65
79 90 82 79 77 69 100 100 97 42 65 74 63 53 45 47 63 88 84 93 82 94 99 99 91 74 66 63 62 57 64 75 65 59 58 49 42 43 49 57 63 65 60 69
90 75 81 77 78 67 100 99 100 63 51 74 65 57 46 38 44 78 74 85 74 81 84 76 60 54 51 55 54 52 53 53 54 54 59 58 58 56 57 58 60 63 67 70
73 65 75 82 75 72 100 100 100 99 50 58 56 56 50 42 37 45 64 57 66 62 72 72 62 55 61 63 65 66 59 59 60 62 64 65 64 60 57 58 63 69 71 63
65 65 75 87 67 96 100 100 99 99 99 97 68 51 52 47 43 41 47 50 54 56 59 69 67 70 72 72 76 69 73 72 72 71 66 63 63 70 70 71 73 74 63 40
71 64 84 88 67 100 100 99 98 100 99 99 95 83 71 61 56 52 49 49 56 68 73 70 78 81 83 75 76 69 75 76 72 71 73 69 64 74 81 78 77 69 53 33
73 70 93 82 68 79 96 92 91 100 100 100 98 95 91 76 76 90 84 75 66 71 75 86 85 86 90 91 77 76 72 84 82 78 76 73 60 71 83 83 73 42 36 36
86 98 96 78 85 72 95 75 62 79 100 98 96 94 86 83 97 100 99 97 97 95 94 85 82 86 81 70 61 60 57 72 81 81 77 77 76 52 51 51 42 38 37 37
100 100 89 94 97 100 94 74 95 100 98 99 90 83 78 66 98 100 100 98 98 99 99 98 99 97 80 81 88 81 80 78 79 71 50 67 83 67 64 45 41 40 36 22
100 99 92 99 84 99 100 92 64 82 93 94 81 60 65 65 100 99 98 93 90 89 94 95 92 56 45 55 76 99 97 85 75 65 83 94 82 59 49 44 40 33 21 20
99 98 95 97 100 100 92 76 62 52 44 44 50 52 59 70 99 99 96 89 84 88 91 96 73 35 34 39 53 97 96 87 86 56 72 62 57 54 44 43 31 22 23 24
98 98 99 97 94 87 73 70 62 53 46 38 40 50 66 77 89 89 82 77 85 77 76 72 40 33 27 46 85 100 96 94 75 65 74 49 46 45 44 30 23 26 29 25
97 96 96 88 91 70 69 62 56 48 43 38 44 56 72 75 74 70 73 75 78 79 75 41 31 28 31 50 81 100 100 97 89 87 80 52 49 42 28 29 32 31 28 22
97 96 90 80 83 72 62 59 56 52 48 43 50 74 69 76 66 63 62 74 73 57 37 31 28 31 38 40 50 97 99 99 97 90 58 47 35 35 37 36 33 29 24 19
96 95 96 93 86 77 66 59 59 56 52 57 79 82 71 69 63 60 60 57 35 29 24 27 32 42 48 48 71 100 99 85 58 40 34 37 42 40 35 31 30 26 21 16
96 96 93 93 91 82 73 71 65 59 61 65 72 70 66 70 65 63 57 43 32 25 26 32 53 56 56 57 61 53 38 35 38 44 43 33 30 30 30 29 24 19 12 10

GFSNW_700_rhum_027.txt.gz
RH
94 90 100 99 100 99 100 100 100 100 87 100 99 98 94 98 98 98 98 99 98 96 84 67 67 78 71 78 84 99 99 99 100 100 100 99 100 89 75 54 52 45 38 38
98 99 100 100 100 100 100 100 100 100 100 100 99 97 100 98 98 98 98 98 98 93 69 64 68 69 75 89 85 96 96 75 98 100 99 99 99 90 83 70 65 48 38 39
90 99 96 100 100 100 100 100 99 99 94 99 98 100 98 98 98 98 98 98 98 96 67 62 65 72 81 83 78 83 100 88 60 53 65 80 88 80 78 76 63 50 46 41
99 95 90 100 100 100 100 100 98 98 99 96 95 100 98 99 99 99 99 99 98 90 68 64 76 82 84 75 72 98 99 73 64 62 64 69 78 84 68 71 66 56 47 46
98 99 99 100 100 100 100 100 100 98 73 100 99 97 97 99 99 99 98 99 98 85 62 61 71 84 82 93 83 94 99 78 67 58 63 65 62 72 79 75 66 62 57 49
100 99 96 97 100 100 100 100 100 99 91 97 100 99 96 99 99 99 99 98 96 83 56 59 72 86 82 89 66 88 98 89 70 54 60 63 62 57 58 65 72 65 57 52
99 100 98 94 100 100 97 99 100 100 91 74 83 90 93 99 100 100 99 100 98 82 80 73 97 84 88 92 94 88 95 83 83 75 64 68 49 48 49 53 52 56 60 58
98 99 94 99 100 100 89 100 100 99 85 63 84 85 100 100 100 100 99 99 96 99 97 100 100 99 98 99 100 97 95 81 82 76 59 55 56 55 54 52 47 43 52 57
98 98 68 79 100 99 92 97 100 99 86 50 69 90 100 100 100 99 98 88 98 87 98 98 97 98 99 99 100 98 97 98 87 82 73 68 50 48 50 52 54 47 44 42
92 98 93 78 99 93 87 95 99 99 96 31 83 93 100 99 99 99 100 95 94 91 100 99 99 100 95 99 98 99 100 99 97 99 82 67 56 54 44 54 48 41 40 43
98 98 77 81 90 88 86 96 99 99 64 51 84 98 89 85 96 98 99 100 97 94 99 96 94 99 98 94 96 99 97 99 99 99 98 92 60 50 53 44 38 36 34 33
100 98 74 99 98 89 84 99 99 99 42 54 95 93 81 96 98 99 99 99 100 100 99 95 90 91 96 84 89 96 94 90 84 87 76 60 58 54 53 50 51 44 42 49
99 100 81 100 99 88 82 99 99 99 38 69 82 62 73 92 92 90 100 99 99 99 98 100 99 86 91 92 77 77 81 76 76 63 58 59 59 60 48 50 53 50 54 56
98 94 94 100 95 88 79 96 99 94 55 82 78 71 65 79 80 90 96 99 93 99 100 100 99 98 80 90 78 67 69 67 67 63 68 57 56 51 44 50 54 60 60 62
100 99 94 94 87 86 79 99 99 96 61 68 70 74 64 60 62 83 78 99 91 86 88 93 84 75 62 59 60 58 62 55 54 61 59 60 57 56 54 53 55 55 64 67
97 98 76 92 87 82 97 100 99 99 78 71 65 67 67 58 58 56 75 67 78 82 77 76 75 70 58 60 65 51 57 58 57 56 61 63 62 58 60 59 60 67 74 77
99 84 86 91 92 80 99 98 98 99 99 96 87 64 56 60 57 58 58 58 61 60 68 67 65 65 67 72 63 48 55 68 71 71 74 67 65 60 60 69 72 79 83 75
98 100 94 97 89 96 100 99 99 98 99 99 98 93 75 60 61 61 59 65 64 67 73 71 67 68 77 74 59 65 54 55 71 71 71 74 72 63 67 80 84 86 81 67
98 94 93 100 87 100 99 99 99 100 99 98 98 98 82 82 73 78 92 74 81 74 80 79 73 79 61 42 36 36 43 53 56 69 77 85 80 72 75 88 89 87 66 38
98 97 100 100 90 100 100 98 99 95 100 99 98 88 81 81 97 100 99 99 92 94 84 77 87 65 41 42 46 57 65 67 68 80 86 83 81 81 72 74 68 48 41 38
98 97 95 96 100 96 97 98 84 99 87 93 97 97 85 88 93 100 100 99 98 96 92 92 96 64 49 52 63 70 80 81 82 92 88 66 84 85 65 60 52 44 39 26
98 98 98 99 99 98 94 94 77 67 85 81 80 85 87 75 100 99 97 92 85 87 89 92 70 45 40 39 42 80 100 93 91 83 72 76 85 85 74 54 47 40 26 23
98 98 97 97 96 91 88 85 71 54 48 42 43 72 91 70 98 93 92 86 82 81 75 74 45 32 26 24 37 64 100 100 99 79 85 71 70 65 58 48 42 26 25 29
97 97 97 78 78 67 71 67 58 47 42 40 39 65 78 74 89 76 73 70 74 71 72 40 30 30 29 28 43 84 98 97 92 96 69 56 58 54 48 38 28 31 34 33
96 96 79 73 81 72 65 62 58 52 46 43 48 70 64 70 70 62 57 62 63 54 39 32 29 28 30 38 76 99 99 97 97 86 81 60 52 47 32 34 39 37 32 28
96 95 91 69 74 71 64 59 51 54 50 53 73 81 73 68 58 54 51 53 38 32 28 26 25 28 35 52 97 99 98 97 97 96 94 65 36 37 43 35 30 29 28 27
96 96 94 86 78 67 60 59 54 56 60 66 74 71 65 64 60 57 48 41 35 27 25 24 30 39 42 58 100 99 98 98 96 58 35 41 42 32 32 31 30 28 26 20

GFSNW_700_rhum_030.txt.gz
RH
93 97 98 98 99 88 94 99 99 99 99 98 98 99 97 75 93 98 97 98 98 98 95 92 80 78 73 79 84 78 80 99 99 96 99 100 87 79 73 56 49 46 40 45
97 98 98 94 99 84 93 98 99 92 99 98 98 98 95 97 100 98 98 96 96 98 97 97 74 75 68 81 74 72 95 99 99 99 100 100 100 83 73 67 56 50 47 45
98 96 98 99 98 90 93 99 98 99 98 98 98 99 98 100 98 98 98 98 98 98 98 90 64 70 68 73 76 72 88 98 99 100 93 98 97 80 71 71 68 50 45 42
100 92 97 99 98 90 89 99 92 96 97 96 98 100 98 100 98 98 98 98 98 99 97 83 61 62 74 70 70 78 99 95 100 99 75 67 70 85 76 72 71 60 49 44
97 98 99 97 99 95 90 99 96 98 98 91 98 97 98 96 99 98 98 99 96 96 79 63 65 65 88 83 79 82 98 89 74 71 69 72 76 70 62 66 64 63 56 52
98 95 98 97 99 96 83 99 92 99 91 98 98 79 87 95 99 98 100 99 99 82 68 60 58 69 78 76 64 70 98 86 71 58 57 61 62 65 67 59 64 65 63 49
96 98 98 100 98 93 91 99 97 99 94 98 97 90 92 98 97 99 99 99 99 75 66 61 90 83 79 92 85 68 84 87 88 81 63 75 51 46 47 51 53 51 58 58
95 98 99 97 98 100 94 100 97 99 98 99 97 77 81 91 99 99 100 98 86 96 69 64 87 92 91 90 100 94 84 78 90 89 66 57 55 54 53 49 45 53 58 58
94 99 98 100 99 89 99 100 100 99 99 98 93 76 82 95 99 99 99 99 98 89 80 90 88 99 97 86 96 100 100 92 94 95 81 83 54 52 50 51 52 50 52 52
83 96 98 99 86 96 97 99 99 100 98 99 92 85 85 99 99 99 100 100 98 89 97 98 88 96 94 98 98 98 99 100 99 100 97 64 59 58 51 56 53 47 49 52
74 98 98 92 77 100 100 97 96 100 98 99 80 66 73 99 99 99 99 99 100 94 99 96 91 96 83 94 88 87 97 98 97 100 99 87 58 60 52 49 44 37 36 40
84 98 95 88 90 100 100 100 92 99 99 99 63 61 99 97 98 99 98 97 91 96 95 96 98 100 93 88 96 100 97 84 81 84 80 61 56 60 56 52 50 50 51 42
70 98 99 97 99 100 99 94 100 99 99 98 54 96 95 94 99 98 99 99 100 90 88 96 89 83 90 87 80 86 95 98 97 87 67 63 60 64 60 59 49 49 47 51
63 98 98 92 100 100 98 88 99 99 98 81 65 87 80 73 97 96 99 99 100 99 100 100 95 91 88 96 87 75 85 86 87 80 68 61 66 60 61 54 44 52 55 56
85 98 98 99 100 100 98 90 100 99 99 92 64 91 81 70 82 92 98 99 99 99 99 99 99 100 98 98 98 80 70 72 71 68 67 67 62 64 54 52 55 56 59 59
91 99 96 100 98 100 100 100 100 98 99 90 97 68 80 71 64 80 87 97 98 86 95 94 96 91 76 71 67 60 64 55 66 58 54 47 57 59 59 57 58 62 64 65
90 98 98 100 100 100 100 99 96 99 99 100 98 83 74 74 61 63 82 82 92 93 87 85 80 73 71 64 49 43 45 55 62 60 61 62 64 62 61 58 61 67 70 75
89 97 100 100 100 100 99 100 99 98 99 100 98 100 82 79 71 64 66 75 78 81 84 81 72 69 70 60 40 44 49 52 62 69 70 73 70 67 65 66 72 76 80 85
96 98 100 100 100 99 99 99 99 98 98 98 98 96 95 76 92 78 74 65 80 76 80 82 78 74 52 41 38 37 36 47 55 58 72 74 75 78 72 69 75 83 89 91
98 98 99 100 100 94 98 100 99 99 99 99 98 99 97 90 97 100 100 99 98 96 82 75 77 64 48 47 45 46 42 40 53 67 68 76 79 85 82 77 88 97 98 90
97 98 99 99 100 99 99 97 98 97 94 94 97 97 96 92 100 99 96 91 86 85 81 71 90 57 46 42 42 50 60 66 66 76 86 92 91 85 84 82 90 96 74 44
96 98 99 98 99 98 96 97 87 74 72 72 75 78 92 91 92 98 99 96 90 78 86 88 74 52 50 49 49 57 87 85 81 81 93 95 78 67 84 89 76 60 47 41
98 98 99 98 90 91 85 83 81 66 58 57 45 62 100 96 87 81 90 84 80 82 66 57 40 33 28 27 28 44 64 98 97 94 92 84 75 73 83 76 64 50 40 26
97 98 97 88 91 78 82 68 64 57 44 38 52 70 94 89 81 84 83 82 74 65 60 35 28 30 29 30 30 35 74 97 100 100 98 85 84 84 78 61 50 35 29 35
97 96 95 84 84 69 67 59 59 54 42 39 44 77 82 84 75 64 58 59 59 50 37 34 34 32 31 33 40 68 99 97 100 99 95 87 71 72 55 43 34 39 37 31
96 97 94 76 76 70 63 56 50 54 50 46 60 84 74 68 55 53 49 49 37 34 32 27 27 26 29 37 70 96 100 99 99 100 92 59 54 50 37 41 37 32 31 29
96 95 91 86 80 69 64 57 51 55 53 55 63 68 62 58 54 51 45 39 35 33 26 22 21 23 32 52 99 99 98 98 97 96 87 90 78 41 38 33 32 31 30 29

GFSNW_700_rhum_036.txt.gz
RH
71 93 97 96 97 99 83 98 98 98 99 98 98 98 98 95 82 98 96 96 96 99 94 98 99 92 77 78 74 74 78 98 99 95 65 82 99 95 99 99 99 97 74 50
87 95 96 96 96 100 86 98 98 99 96 98 98 99 95 95 91 99 99 98 94 96 97 98 100 81 70 72 81 84 89 98 97 80 98 100 98 99 98 96 98 94 59 48
82 97 97 97 97 97 98 95 98 100 98 98 99 96 86 99 93 100 100 96 100 98 97 96 96 84 79 73 80 98 95 92 84 92 92 99 99 97 98 99 97 65 55 44
69 94 95 98 94 97 98 98 98 94 98 100 98 95 99 100 100 100 99 99 91 98 98 98 100 87 72 86 77 85 98 82 96 97 98 100 98 100 100 100 82 57 53 44
65 85 93 97 88 97 98 98 95 99 82 81 90 99 94 100 99 98 100 93 97 99 97 90 82 77 79 75 84 92 91 93 97 94 100 100 100 98 100 78 69 59 48 42
50 60 57 97 98 97 98 98 89 77 83 88 98 89 95 86 99 97 99 98 98 98 89 84 96 82 72 74 68 66 87 93 98 99 99 88 76 76 80 71 68 65 51 42
26 44 44 94 97 98 98 97 95 93 98 91 83 88 94 90 99 99 95 98 98 97 100 90 93 83 78 77 74 78 77 80 84 100 88 86 60 58 66 66 63 59 60 49
15 44 49 92 98 98 93 99 89 84 99 99 100 100 99 96 98 95 98 99 98 100 90 88 91 97 86 86 86 90 82 74 91 100 89 66 58 57 53 62 59 59 62 58
9 32 40 92 97 97 98 97 92 100 87 97 99 96 96 98 96 92 98 99 100 96 96 94 83 98 86 86 96 93 99 87 98 95 99 87 58 57 55 57 54 47 48 55
13 24 38 93 100 86 94 98 98 95 99 82 98 99 98 99 97 93 98 99 100 90 98 80 71 94 93 91 94 98 97 94 95 98 98 67 57 64 54 56 55 50 50 50
22 20 66 90 96 98 96 98 99 89 99 91 98 88 98 98 88 98 99 100 97 90 96 80 74 71 83 84 84 83 95 86 90 95 91 89 59 56 58 53 44 45 42 50
31 36 61 96 96 98 97 94 94 99 96 96 98 92 98 97 86 98 99 99 89 85 88 70 76 88 85 83 80 71 94 80 75 68 58 60 58 64 58 55 53 52 52 45
36 51 57 99 100 100 97 88 90 88 96 91 93 95 99 85 96 99 98 97 84 81 76 83 98 99 87 81 73 67 72 86 81 77 64 57 63 60 62 63 60 58 41 40
37 49 66 98 100 97 91 90 93 100 97 87 91 97 88 93 98 99 99 99 100 100 100 99 99 97 93 92 80 71 67 71 72 80 68 66 57 58 66 63 60 58 46 48
41 42 67 97 100 94 83 99 100 100 91 99 99 98 89 94 97 98 98 98 98 99 99 99 95 99 93 95 91 82 72 68 83 91 83 74 63 58 68 64 62 52 55 54
31 37 64 98 97 98 99 100 97 100 100 98 99 92 87 92 80 93 98 99 99 99 99 99 93 86 89 92 91 77 77 88 95 95 86 82 74 68 69 70 69 56 59 58
28 34 59 100 94 98 98 91 74 84 100 98 95 73 74 87 82 94 99 99 99 99 99 100 99 96 89 94 82 74 80 96 94 86 75 76 68 64 62 70 62 62 64 64
24 34 80 98 95 98 96 83 81 85 100 100 98 89 74 83 84 89 97 98 98 99 98 95 95 97 91 75 61 61 64 73 68 61 62 60 62 60 63 64 64 65 70 71
22 61 98 99 99 99 96 100 94 86 95 96 95 92 83 74 86 88 83 86 83 85 86 87 86 83 67 49 43 43 52 51 61 65 70 69 69 69 68 66 66 74 76 78
27 94 98 99 99 99 93 97 98 99 100 96 99 90 88 82 82 99 96 83 98 88 73 67 76 55 46 40 42 40 38 44 53 64 69 72 77 77 75 72 76 82 85 88
72 98 98 98 99 95 100 98 99 97 99 98 90 98 96 97 98 100 89 93 82 78 74 72 64 40 41 43 40 44 52 47 43 57 69 76 82 82 82 82 81 82 89 93
98 98 98 98 98 98 99 99 98 91 89 95 84 92 92 99 98 95 88 89 86 80 79 74 56 34 37 40 43 44 46 54 60 51 60 75 78 86 91 91 88 91 98 99
98 98 98 98 96 94 91 99 99 77 68 63 65 80 96 98 97 95 88 86 91 88 80 66 46 38 31 34 42 46 48 52 68 70 68 86 90 93 94 95 98 99 99 98
97 98 98 88 84 76 78 64 62 58 50 44 68 98 100 100 100 88 77 77 78 74 71 40 33 37 34 30 28 28 37 61 79 84 90 97 95 92 98 98 100 100 93 57
97 97 97 83 90 75 71 62 67 60 55 50 60 94 99 100 92 84 71 70 67 54 35 30 28 29 31 31 31 31 35 69 90 93 94 86 97 90 90 100 98 78 53 31
97 97 97 90 85 80 74 65 57 65 64 50 78 100 95 89 78 68 59 55 38 33 30 30 27 26 26 26 29 34 48 98 97 96 95 99 98 98 100 95 82 59 28 35
96 96 96 91 86 74 69 65 59 61 61 61 78 81 73 72 73 57 47 39 34 32 30 28 22 27 28 27 30 45 84 98 96 99 99 98 97 90 73 58 32 36 35 32

GFSNW_700_rhum_039.txt.gz
RH
47 68 73 87 97 98 81 98 88 92 97 98 97 100 99 96 82 80 82 83 91 87 96 98 100 98 77 80 75 68 80 100 100 76 64 64 89 95 98 98 92 97 97 74
31 68 68 89 97 96 98 84 70 98 99 96 97 98 95 94 90 95 90 95 91 91 98 98 97 98 76 94 82 76 71 99 96 75 82 98 98 92 96 99 99 97 98 73
46 53 65 70 97 97 94 90 97 97 97 99 83 97 97 88 93 96 98 95 98 99 99 96 94 100 87 89 85 83 92 97 82 75 68 95 99 98 98 98 99 91 97 80
54 32 57 53 99 96 99 97 98 90 98 98 91 88 84 78 99 95 94 98 83 87 98 99 99 90 95 99 83 85 96 98 97 93 91 97 97 97 100 98 94 98 77 66
39 23 46 45 97 93 99 97 98 100 94 96 96 96 90 95 99 100 100 89 84 98 97 98 97 94 100 89 77 73 84 95 92 86 94 99 99 99 99 98 99 99 90 56
66 15 39 41 90 95 98 98 98 95 100 100 100 86 82 88 100 98 91 92 99 98 96 99 99 100 98 78 83 77 82 95 96 95 96 99 99 100 100 99 98 84 51 43
72 10 29 34 94 100 98 100 98 97 91 89 90 91 89 95 88 93 98 98 98 90 99 99 96 96 88 82 80 77 90 96 99 95 98 96 78 72 98 96 75 68 56 48
68 9 17 32 97 96 99 98 98 98 96 84 96 95 93 99 98 98 98 98 97 98 99 89 95 95 99 84 79 72 90 97 97 99 100 71 62 63 72 76 66 63 62 61
71 10 18 44 99 92 98 100 99 93 90 99 99 97 95 100 100 97 97 98 98 98 99 98 95 96 89 85 87 86 97 99 98 98 98 94 65 61 58 59 58 61 59 61
70 13 20 54 92 83 97 99 98 91 90 82 77 85 88 100 97 98 97 98 100 99 99 88 76 94 86 88 99 97 97 99 96 97 91 66 55 63 57 56 58 53 51 54
74 20 19 70 96 91 82 98 98 97 86 99 84 86 93 91 98 98 96 99 99 100 94 83 71 72 81 93 85 93 96 90 91 96 92 78 60 58 59 56 46 50 44 50
80 24 31 88 96 100 84 91 95 97 99 100 93 88 99 97 98 98 97 99 99 92 90 82 74 81 88 89 84 82 84 64 72 64 59 58 59 63 58 56 54 54 53 50
66 26 45 88 94 100 96 87 96 95 99 99 86 88 99 98 94 93 98 99 98 97 87 85 74 84 85 85 78 70 69 76 74 69 65 66 61 68 66 64 62 58 42 47
33 26 49 93 88 88 89 92 96 95 94 89 90 96 98 97 98 98 98 98 98 99 91 86 79 84 97 93 82 75 66 67 60 63 66 72 64 62 68 65 70 60 48 41
22 24 56 91 81 78 76 88 94 95 98 100 99 98 97 78 98 99 98 98 94 89 97 98 97 100 100 98 98 82 74 62 72 78 88 80 72 56 63 74 63 61 50 50
33 25 56 89 97 100 99 92 97 100 100 100 97 94 97 99 97 98 98 99 99 98 82 97 97 83 100 96 90 72 82 75 79 82 90 81 78 78 68 70 69 64 55 58
18 30 59 94 100 96 96 100 76 96 100 99 96 88 78 88 90 97 100 99 98 99 99 99 100 98 93 90 79 62 66 71 84 92 90 85 80 74 73 76 75 64 60 61
18 32 60 99 99 94 99 92 74 87 92 94 98 97 91 82 91 97 99 99 99 99 99 98 98 100 98 97 72 75 79 85 93 85 81 76 68 66 62 65 69 64 66 66
15 34 60 99 100 98 98 92 82 85 91 98 91 92 96 80 98 89 98 98 97 94 95 95 94 94 83 64 60 65 59 67 69 66 66 64 59 62 63 66 66 73 73 74
15 40 99 100 95 98 99 90 83 91 77 100 95 90 90 88 98 100 96 84 92 88 83 72 67 58 47 48 45 40 43 50 59 64 66 69 68 69 70 69 74 82 83 82
27 87 99 99 99 98 93 98 95 98 98 87 74 74 84 97 100 100 94 97 83 72 70 70 57 43 40 40 42 44 45 42 47 55 57 69 78 77 75 74 76 80 89 92
90 98 99 100 98 96 96 92 93 95 78 72 69 76 83 98 99 99 96 83 80 79 80 70 57 39 41 41 43 44 42 45 49 45 56 64 71 76 85 83 82 86 94 98
98 98 98 98 94 98 96 100 100 81 50 53 55 74 97 96 98 96 94 91 87 84 81 65 48 43 37 37 41 42 44 46 52 59 55 68 75 80 90 92 93 96 98 98
98 98 98 83 91 88 84 71 66 62 49 48 57 70 99 99 96 97 89 80 80 75 70 46 38 37 41 32 31 40 41 43 50 64 67 66 83 89 91 96 100 100 98 99
97 97 97 93 100 85 77 64 67 66 53 46 59 88 100 100 96 88 78 66 63 54 36 31 30 29 31 30 30 30 31 44 65 86 83 89 95 99 93 98 99 98 99 80
97 96 96 94 84 86 71 66 56 62 60 66 97 100 99 94 84 76 71 59 38 32 30 29 28 27 28 28 29 31 33 45 80 93 97 100 99 92 97 95 100 97 70 34
96 88 84 86 84 80 69 68 65 65 66 72 92 89 78 81 79 67 56 43 32 33 31 29 29 26 26 27 27 28 35 64 89 94 96 99 99 98 97 100 94 73 50 32

GFSNW_700_rhum_042.txt.gz
RH
81 57 48 62 68 96 97 99 92 97 98 98 97 97 95 79 67 71 74 73 76 80 83 90 99 91 78 80 80 80 79 100 98 80 66 71 82 79 82 98 85 92 88 77
86 56 35 51 52 95 97 100 97 98 88 96 97 97 96 82 76 78 78 71 72 76 90 92 94 95 88 99 89 79 83 99 95 74 87 99 99 93 96 96 98 96 97 70
91 57 26 38 45 91 97 98 93 98 96 96 94 99 99 84 86 86 78 82 80 83 99 100 97 96 100 99 79 94 97 94 78 82 71 81 98 94 97 98 98 96 92 71
94 67 16 31 39 92 97 100 80 90 98 99 98 98 98 89 87 86 82 81 80 82 100 99 100 95 90 95 90 100 98 90 82 86 80 94 97 95 98 98 99 98 80 93
89 77 14 27 39 96 94 98 99 92 99 97 99 98 93 76 77 69 81 78 78 92 89 84 91 95 97 90 97 98 95 97 89 81 90 97 96 98 99 100 100 100 99 91
89 82 14 23 52 96 98 98 98 99 96 98 98 94 84 80 90 89 82 88 100 93 82 98 100 99 99 98 98 93 93 93 96 93 94 98 98 100 100 98 97 91 95 73
82 83 14 18 39 96 97 98 98 98 98 96 89 94 92 94 95 94 92 96 96 92 97 98 98 99 100 100 96 98 100 96 98 95 93 98 96 100 99 100 100 88 66 67
87 86 12 22 53 95 97 99 99 95 99 98 91 90 93 98 96 100 97 97 98 98 98 98 98 98 100 96 81 88 86 95 98 98 98 90 78 71 93 99 100 85 65 59
83 85 20 25 74 94 96 98 98 97 94 87 93 97 95 98 99 100 100 98 98 98 98 98 89 90 84 86 84 76 84 96 99 98 99 95 67 70 67 89 97 85 65 54
63 83 24 26 83 94 99 98 99 96 96 92 97 94 82 97 94 100 99 98 98 98 98 94 89 88 79 84 91 96 94 99 99 99 96 72 66 65 62 60 63 54 63 68
71 89 26 28 89 85 94 98 100 98 94 91 85 87 91 98 100 98 95 98 98 98 98 88 78 74 79 86 84 76 74 89 94 96 89 86 64 62 59 56 50 53 50 51
77 82 26 35 100 84 92 98 98 98 98 92 81 82 88 100 99 98 98 98 100 99 98 84 73 72 84 79 79 80 93 75 73 72 60 64 64 68 61 58 60 56 51 47
83 66 21 52 100 92 77 96 99 99 95 93 81 87 89 90 99 98 97 98 99 96 88 80 81 74 78 87 79 74 75 79 71 69 60 67 70 67 69 68 65 58 42 50
62 38 19 62 100 99 86 99 90 99 94 86 81 93 96 98 98 98 98 98 100 93 80 90 82 71 63 83 79 78 72 65 64 61 58 70 73 65 68 67 68 61 48 48
22 19 19 74 98 93 99 97 100 93 89 97 99 99 96 98 85 98 98 99 99 100 97 89 93 81 76 98 98 86 76 56 65 77 80 79 72 63 69 70 63 70 55 51
20 12 24 82 88 83 100 99 99 94 97 99 99 91 97 97 97 98 98 98 99 99 90 91 98 88 99 100 99 76 80 76 74 81 84 81 78 75 62 65 74 70 54 54
28 10 42 84 87 82 98 99 93 92 90 99 98 95 92 77 97 98 98 98 99 100 99 92 80 82 100 94 90 76 74 71 67 68 83 85 93 80 73 69 78 78 60 54
32 14 58 98 96 100 100 92 90 89 100 99 98 92 86 85 94 98 98 98 99 98 99 98 96 99 99 94 70 65 66 65 73 83 86 91 94 81 75 75 79 82 67 59
14 33 65 100 99 100 98 99 84 97 90 98 88 78 92 86 96 96 98 98 99 98 99 99 100 99 88 70 68 68 74 74 85 92 91 88 84 74 70 63 72 86 67 66
18 48 88 100 96 90 99 98 98 100 100 100 83 73 80 88 98 98 91 92 97 96 95 92 88 78 71 65 60 60 63 61 69 67 73 68 72 63 63 65 69 75 76 74
44 60 99 98 96 98 99 91 96 100 100 95 68 59 67 76 96 100 92 98 84 80 78 88 68 52 58 55 49 43 44 50 55 55 60 67 69 72 71 70 72 78 83 85
97 99 98 99 98 97 97 98 93 77 73 73 68 66 76 84 95 98 96 88 81 77 79 70 57 45 45 42 41 42 45 47 48 51 59 63 69 76 78 76 76 81 90 95
92 98 100 98 93 98 100 100 94 63 58 59 60 83 95 98 95 96 92 78 85 86 81 66 51 46 42 41 41 41 43 50 52 52 53 63 70 71 78 82 84 86 92 97
99 97 97 83 94 92 94 75 73 59 51 53 70 89 100 100 97 96 97 88 78 76 70 49 44 37 46 38 39 42 44 47 53 58 61 60 73 77 80 91 96 98 98 98
96 97 98 98 98 85 73 67 66 67 62 64 77 100 100 99 97 94 89 73 64 56 39 34 31 30 33 35 31 30 39 47 55 69 77 77 84 88 91 95 99 98 98 98
97 94 96 98 92 84 70 64 59 61 71 72 98 100 98 97 90 85 73 64 42 34 33 31 30 27 27 28 29 31 31 32 47 72 86 84 91 95 96 98 96 98 97 94
93 89 81 87 87 91 76 70 72 69 77 87 100 96 90 88 88 82 66 54 42 35 35 31 30 29 25 25 26 27 30 35 51 82 94 97 94 99 97 100 99 96 94 58

GFSNW_700_rhum_045.txt.gz
RH
77 72 84 36 38 41 89 100 97 98 98 97 93 97 98 89 69 71 62 63 56 68 78 80 83 82 77 77 76 79 94 97 93 86 79 84 85 80 83 96 81 93 84 75
71 77 82 25 32 40 84 95 97 100 93 98 91 98 97 93 74 70 65 64 72 75 76 84 92 94 92 85 88 89 90 98 93 70 82 83 97 80 82 87 94 94 93 66
76 83 81 20 28 44 97 94 97 99 97 97 87 96 96 96 94 77 64 67 68 66 82 90 90 100 99 99 100 100 100 98 81 75 58 74 93 94 95 98 98 86 89 71
78 83 74 17 27 92 99 98 98 99 83 93 98 84 97 93 96 83 72 70 72 74 76 86 100 100 99 100 99 100 100 99 91 78 78 77 75 92 98 98 94 98 66 80
81 87 66 16 24 97 97 98 98 93 91 92 98 96 97 92 94 90 69 69 71 73 79 80 87 98 100 100 100 99 100 99 99 87 65 89 98 98 99 100 100 99 99 93
83 83 68 13 36 95 96 100 99 96 87 85 91 90 94 94 94 82 76 75 86 83 80 94 100 99 98 98 96 100 100 100 99 90 86 95 98 99 99 100 100 94 93 77
74 86 60 13 35 94 96 99 97 96 84 90 86 94 92 86 86 89 85 86 86 82 96 97 97 100 100 98 98 100 98 98 94 94 92 98 98 98 100 99 99 88 74 66
64 60 59 15 32 93 96 97 98 98 98 96 98 98 96 96 96 94 94 91 90 95 98 98 99 100 100 96 99 99 98 100 95 96 98 75 94 95 96 100 92 84 83 76
71 50 52 21 40 91 97 98 97 95 98 98 97 94 91 92 92 90 90 96 93 97 98 98 99 94 83 91 91 88 98 100 99 99 98 94 84 82 82 98 85 86 73 75
50 55 38 21 54 89 97 99 98 97 99 91 85 80 82 89 94 97 93 93 99 98 98 98 97 81 72 89 94 99 99 100 99 98 98 70 64 88 69 69 72 93 84 75
55 66 34 21 61 89 94 99 100 100 100 94 95 89 81 89 97 96 96 98 98 99 98 98 87 78 80 86 85 87 80 83 95 100 98 84 70 72 66 64 62 59 57 64
63 70 29 19 54 88 94 100 97 97 98 88 88 86 87 96 100 97 98 97 98 98 98 91 90 78 84 79 83 85 83 64 70 72 63 62 67 66 68 70 65 60 47 53
26 46 26 19 61 85 89 100 99 100 98 97 97 93 94 93 91 89 98 98 98 99 95 93 85 76 78 84 74 76 75 78 72 69 62 60 67 65 68 70 68 54 44 54
17 29 22 18 66 80 86 99 99 98 99 96 96 89 94 93 97 98 98 97 98 100 97 95 83 76 66 74 74 74 77 74 68 64 54 56 69 72 67 69 67 62 47 54
49 16 16 14 75 78 72 87 94 100 95 99 100 98 100 96 96 97 97 97 99 94 96 92 91 83 77 68 65 73 70 75 61 54 80 80 82 74 66 68 64 67 66 57
60 21 11 18 80 90 99 100 94 100 100 99 99 97 96 95 98 98 98 99 99 99 98 93 92 76 79 83 98 77 80 75 77 74 83 85 82 79 68 71 75 76 82 63
50 13 8 38 81 98 100 99 98 93 99 100 94 97 97 78 96 98 98 99 99 100 100 98 98 95 99 89 76 86 83 87 84 78 71 71 84 90 89 71 73 84 80 62
32 8 16 59 78 96 94 90 96 94 100 99 93 100 94 95 98 97 98 98 98 99 99 99 97 99 98 83 55 62 68 73 74 70 70 87 90 93 94 91 83 88 94 64
12 13 48 72 76 100 100 98 98 97 100 97 91 90 100 94 98 98 98 98 100 99 99 100 100 100 96 75 79 79 78 75 76 79 91 95 93 99 99 99 89 88 97 75
29 51 72 96 100 98 99 96 100 100 100 90 68 76 82 88 94 100 96 96 98 100 98 98 100 83 69 76 73 71 74 75 89 96 96 96 97 88 93 90 86 92 88 86
59 89 94 99 99 94 99 96 99 99 95 89 82 74 67 77 92 99 98 98 86 83 81 90 80 54 49 65 70 63 61 62 68 76 75 75 78 69 68 68 74 77 81 81
100 99 100 99 98 97 96 100 89 83 73 83 87 87 85 84 94 99 98 88 84 80 79 75 62 51 52 61 60 51 50 50 59 62 68 70 69 71 72 72 74 81 87 88
90 99 98 99 96 99 93 89 82 61 66 69 73 85 96 97 97 100 91 84 78 83 83 70 55 54 47 48 48 45 44 47 49 52 58 68 73 74 77 77 80 84 90 92
96 98 96 86 96 98 100 78 66 63 62 65 76 99 97 100 99 98 96 92 83 78 69 49 45 39 40 43 42 43 42 45 51 53 54 63 70 73 74 82 89 90 91 95
91 94 99 98 92 84 81 74 71 73 72 84 96 99 99 99 97 94 92 85 68 59 42 37 35 31 35 42 34 37 44 47 51 59 61 62 67 75 80 83 93 96 96 98
86 87 94 95 94 92 79 75 77 70 79 87 98 99 99 94 86 86 80 73 50 36 36 35 32 30 29 30 30 30 30 34 48 62 73 77 79 86 90 91 94 96 99 99
58 80 85 93 93 96 93 95 85 84 92 100 100 100 90 92 92 84 69 57 53 53 51 43 36 32 29 25 25 27 30 33 38 57 80 88 91 95 98 99 98 100 100 98

GFSNW_700_rhum_051.txt.gz
RH
83 78 76 74 29 90 98 97 92 96 96 99 98 92 80 86 98 97 83 100 99 98 96 98 97 95 98 98 95 99 98 96 97 95 85 92 98 94 92 84 61 64 63 64
81 76 68 49 27 92 94 97 95 88 90 93 85 85 95 97 97 96 93 89 99 97 97 95 95 96 90 81 93 100 97 98 86 82 85 89 90 88 91 92 82 83 87 59
83 70 58 42 36 92 97 96 98 92 94 99 97 88 81 99 97 97 88 79 83 96 99 96 99 99 90 87 98 99 94 98 88 67 75 91 94 87 83 82 96 79 77 71
75 69 49 34 45 92 97 98 92 86 95 92 87 84 96 97 97 89 77 82 98 96 99 96 98 100 99 97 98 96 96 98 95 92 89 87 86 91 91 87 85 94 61 80
44 61 44 26 39 92 96 96 98 94 95 94 100 87 64 96 93 95 83 80 97 93 87 85 94 96 100 98 97 96 93 96 100 99 88 94 91 94 94 94 99 98 90 91
28 30 45 20 32 87 94 95 96 98 94 96 94 60 86 98 96 94 88 92 81 85 77 73 80 91 92 99 99 96 98 98 98 91 78 81 92 98 99 98 100 99 99 95
30 22 37 20 32 89 84 87 99 99 94 86 81 77 94 95 93 96 92 93 93 80 78 78 79 88 94 97 100 95 94 94 100 92 78 90 95 94 100 99 97 99 98 100
36 18 29 21 30 84 92 92 98 96 100 99 93 100 98 98 91 97 94 87 88 82 85 88 94 100 86 93 100 99 93 98 97 91 84 70 80 87 97 99 99 100 100 100
52 19 21 20 34 74 98 98 97 100 99 78 90 95 92 95 89 97 94 92 95 92 95 99 100 92 90 95 99 99 99 92 98 96 93 78 68 74 79 85 98 99 100 100
67 43 16 17 36 89 96 97 98 100 99 87 92 97 96 96 96 94 92 94 99 100 99 100 98 92 84 84 94 99 99 98 98 90 97 78 69 66 78 86 82 99 99 100
68 62 13 15 39 86 96 100 97 99 100 100 99 95 96 99 100 100 97 100 100 99 99 99 99 96 92 77 80 89 92 96 93 91 92 81 68 77 80 75 78 84 94 92
66 70 27 13 34 78 97 99 99 95 98 99 99 98 97 94 94 95 100 97 95 98 100 100 99 99 94 77 93 93 89 77 78 84 75 64 69 68 73 72 74 74 71 63
68 77 50 10 32 72 93 97 99 100 99 98 99 91 88 82 85 95 100 95 97 93 97 99 94 92 93 88 78 93 91 88 83 77 60 59 58 63 62 59 62 69 64 58
85 82 60 10 30 67 94 99 100 100 100 94 94 93 94 94 95 99 100 99 98 100 98 100 94 95 84 94 89 84 84 83 72 65 53 55 60 73 82 73 68 68 61 58
80 82 54 9 30 60 90 98 100 100 100 98 98 85 84 94 96 100 99 98 98 98 99 98 98 96 90 75 70 70 72 62 59 74 75 66 86 83 82 73 70 65 73 62
77 77 33 10 31 56 85 96 94 98 99 96 95 98 92 99 96 96 98 98 98 98 98 98 96 90 91 84 96 51 47 47 46 56 71 74 87 83 81 80 76 74 74 76
78 52 12 14 32 59 80 89 85 99 99 91 87 85 94 97 96 97 98 98 99 100 98 98 98 96 95 88 79 52 84 91 79 77 75 68 80 80 70 83 82 82 82 85
38 14 8 16 41 72 86 84 85 97 99 98 96 81 89 97 97 98 98 99 100 100 99 97 96 100 98 92 71 68 69 81 84 88 77 63 74 73 73 86 94 91 92 96
8 6 12 38 65 78 95 87 87 90 91 99 88 86 97 96 96 97 98 98 98 98 99 99 98 97 83 72 75 72 72 70 72 83 82 76 72 74 78 86 95 95 99 87
40 51 69 89 82 88 89 98 97 100 100 100 98 81 91 85 94 89 98 98 98 98 98 99 99 88 75 74 70 83 87 78 76 75 76 77 75 77 89 96 98 100 97 94
100 100 94 96 100 100 99 99 99 99 96 91 87 90 99 96 81 94 99 97 98 98 97 99 97 72 64 60 60 67 79 77 79 92 97 96 95 97 98 99 98 99 99 98
99 99 100 98 98 95 87 95 93 100 100 94 88 100 100 100 97 97 98 98 95 96 94 91 73 64 63 57 61 62 66 73 74 97 96 98 98 95 95 96 97 96 97 96
100 100 98 98 88 93 99 100 99 96 86 81 88 98 100 100 100 99 99 100 96 84 86 76 68 48 43 40 67 78 69 58 54 78 83 80 84 86 87 88 88 97 90 90
100 98 95 77 89 79 92 89 87 95 90 84 90 100 97 97 99 99 100 100 98 86 69 48 43 39 37 39 52 70 64 54 54 61 69 68 74 73 76 76 86 92 90 94
98 95 90 85 81 79 80 79 82 92 96 92 100 99 99 98 97 98 97 94 82 68 53 58 47 37 33 39 44 44 55 56 54 54 59 61 69 68 74 69 70 81 89 95
98 90 92 88 76 70 69 73 76 80 82 97 98 96 96 99 95 95 93 86 70 51 47 54 48 44 39 33 29 33 41 53 54 56 58 60 64 73 79 82 80 87 95 97
88 84 82 84 85 81 77 84 87 83 84 98 100 93 94 99 93 81 85 76 67 58 66 55 52 50 46 42 38 31 30 33 40 54 65 70 72 73 83 89 91 93 97 96

GFSNW_700_rhum_054.txt.gz
RH
42 90 62 43 30 80 85 82 98 92 98 100 98 85 72 79 96 98 99 95 90 85 91 96 86 90 98 92 96 88 91 86 85 83 82 84 92 80 92 83 72 76 69 69
41 86 52 40 29 92 94 90 100 90 92 92 78 89 90 69 98 95 96 93 98 86 91 90 90 94 97 99 98 94 89 91 86 81 88 94 91 89 88 86 79 86 91 63
37 43 43 35 42 97 92 89 98 84 96 72 90 94 88 97 98 95 100 96 96 97 98 94 98 90 94 97 99 98 92 95 87 92 90 84 85 83 89 89 96 85 82 58
35 24 31 29 45 97 90 84 97 86 93 73 97 96 96 97 98 96 99 97 95 91 94 91 92 99 87 95 100 99 95 96 97 89 90 90 89 82 83 86 84 89 53 76
41 23 26 24 36 95 80 82 79 97 100 82 82 80 93 99 94 97 92 91 88 90 90 87 89 99 100 83 96 100 95 96 98 93 76 80 88 80 81 90 92 83 79 81
50 27 29 20 31 91 91 93 95 89 93 88 82 81 97 96 97 96 98 93 94 96 88 84 94 97 97 100 86 96 92 92 93 85 79 76 75 69 86 82 83 86 96 84
58 41 30 21 34 89 85 82 92 90 94 86 88 90 89 96 98 92 89 84 96 82 75 69 74 81 88 93 99 99 91 89 96 82 78 91 86 79 87 98 98 98 99 99
55 57 20 22 28 82 91 86 77 90 82 86 92 98 93 98 98 98 93 91 83 80 72 78 90 97 93 98 100 98 92 94 98 92 84 67 66 87 86 90 93 100 99 99
36 63 32 20 26 71 85 86 87 92 91 95 96 99 100 97 100 98 97 94 86 88 93 99 97 90 90 95 98 98 98 96 99 98 98 86 77 87 75 82 99 97 99 100
16 66 64 16 24 69 86 89 88 94 100 100 99 96 94 98 98 95 96 92 93 95 99 98 90 84 83 83 91 99 100 100 97 97 95 67 64 70 82 89 81 94 98 100
10 56 68 30 20 72 91 90 99 100 99 91 86 96 94 92 91 93 90 98 96 100 94 95 92 88 86 79 83 78 79 97 97 97 91 80 71 78 86 82 79 82 96 91
14 50 70 58 17 62 91 93 87 98 96 92 85 94 97 97 99 98 99 93 97 97 99 95 97 97 93 80 86 96 82 69 76 72 57 74 80 74 70 64 64 62 69 76
25 60 67 63 16 49 91 98 100 95 98 98 97 93 96 92 91 95 100 100 100 100 100 99 96 92 92 93 82 87 84 84 78 90 70 70 75 70 64 61 74 69 68 67
46 63 68 63 15 35 89 94 97 100 100 100 99 91 84 86 88 90 93 97 99 98 96 98 95 95 90 85 90 91 90 86 72 69 56 66 64 74 78 78 72 70 67 65
49 60 72 65 14 32 85 90 95 96 98 95 93 97 89 86 82 94 100 100 100 100 99 100 99 97 93 89 83 76 76 75 78 71 85 80 78 87 82 79 74 67 72 76
52 63 74 52 13 39 88 92 98 93 96 100 85 86 97 93 94 97 98 96 100 100 99 99 100 94 99 97 99 76 68 58 61 65 60 65 72 89 85 77 80 77 80 80
98 61 63 25 17 44 81 82 83 88 100 97 82 84 91 92 97 97 97 97 98 98 98 98 98 98 99 96 87 74 68 87 94 91 76 67 64 66 82 72 73 83 84 87
35 63 22 13 28 56 81 84 83 88 96 98 100 93 81 95 96 97 98 98 98 99 98 94 94 97 99 93 71 80 77 67 86 92 90 83 78 70 74 76 77 84 93 97
24 12 11 21 65 89 90 88 90 95 100 99 91 97 90 97 96 96 98 98 99 98 97 98 99 98 95 80 80 85 84 90 81 76 75 86 89 80 75 78 79 88 93 99
44 19 37 85 93 100 99 100 99 100 100 100 98 95 97 90 95 95 94 98 98 98 98 97 98 88 88 92 84 86 84 92 93 84 81 78 75 74 74 77 86 96 98 96
100 100 98 98 100 100 100 99 99 100 99 99 100 97 95 99 94 96 96 97 98 97 97 98 97 80 77 73 64 67 64 79 83 87 93 96 93 91 94 99 100 99 100 99
93 99 99 99 98 98 96 99 99 100 100 99 99 100 100 100 100 92 98 98 97 97 98 97 91 85 60 50 50 72 63 73 80 87 99 100 99 100 99 100 99 98 99 99
88 98 98 97 95 100 100 99 100 100 99 94 99 96 100 99 100 99 98 97 97 95 89 87 74 52 46 43 61 83 75 72 79 79 97 97 98 99 99 98 99 99 98 96
94 98 96 93 98 83 100 96 97 100 86 93 97 100 93 98 99 98 100 99 98 86 63 58 57 43 45 57 58 87 88 78 72 68 86 86 92 92 86 95 90 95 99 94
95 95 90 93 81 81 81 87 88 90 83 82 87 97 96 93 96 100 98 98 96 81 61 63 54 47 39 34 38 47 68 68 60 58 61 72 70 73 75 75 78 82 88 93
96 92 87 84 79 71 75 76 78 82 82 89 99 92 91 93 97 98 98 97 85 66 56 59 54 53 51 48 42 35 40 57 60 58 58 61 64 72 74 76 77 77 85 95
96 87 83 81 78 74 76 73 74 84 89 99 98 91 88 93 93 89 93 86 77 64 70 64 61 62 60 56 53 48 41 36 39 54 61 63 66 71 75 82 85 94 97 98

GFSNW_700_rhum_057.txt.gz
RH
22 38 19 26 34 86 94 62 81 92 92 99 97 92 78 78 95 98 98 94 79 87 80 88 81 80 90 83 70 93 82 84 79 94 79 90 88 84 91 87 73 84 83 69
21 37 14 29 68 90 90 63 76 82 80 89 92 80 94 91 95 99 98 98 76 72 80 84 90 83 84 84 83 90 81 86 81 92 92 90 97 88 83 83 80 86 90 56
18 36 11 29 80 92 84 86 73 72 82 72 78 90 95 92 98 99 97 97 87 91 80 81 91 91 96 94 91 82 84 89 84 83 90 81 94 89 83 88 95 83 80 45
14 37 11 25 80 90 83 88 81 82 68 64 90 97 97 97 98 98 95 98 90 88 98 98 97 86 91 95 92 92 94 91 92 85 89 91 91 90 81 88 84 96 73 64
10 41 11 21 65 92 90 83 89 88 50 76 80 80 97 98 98 94 95 92 99 96 88 79 85 88 87 94 98 98 98 91 92 86 67 74 80 76 86 86 86 88 89 72
5 42 16 16 56 91 94 99 84 93 78 88 83 86 96 96 97 92 95 98 90 94 86 81 85 88 76 76 79 95 100 95 93 82 80 76 72 64 71 73 84 83 84 66
4 34 31 12 59 86 90 97 92 78 100 87 98 94 96 97 98 96 99 92 90 84 88 92 91 96 94 98 98 93 91 88 88 82 80 92 78 70 74 84 86 95 92 96
5 13 42 11 43 81 89 90 95 92 89 84 84 98 84 98 96 89 86 84 83 76 70 74 86 100 100 100 100 99 98 89 92 91 91 70 53 72 85 82 88 92 97 100
5 6 40 26 22 73 86 99 90 96 90 95 91 84 91 81 90 94 97 87 84 83 77 84 92 92 95 98 99 100 100 94 98 96 99 96 80 82 81 88 88 90 98 99
6 6 23 43 14 55 86 100 100 100 96 99 95 86 86 86 88 92 92 96 93 91 90 95 89 76 82 85 89 94 99 94 97 97 94 68 53 69 82 96 82 81 93 99
6 6 16 43 16 46 83 95 99 100 99 100 97 97 96 96 96 100 92 93 90 94 88 87 78 80 78 87 84 83 79 98 99 99 99 81 73 79 90 93 73 69 70 68
7 7 22 43 32 38 87 93 98 100 100 94 91 92 96 90 88 93 96 92 98 94 90 89 90 93 98 88 96 87 90 81 68 69 56 69 79 91 86 74 65 67 78 67
7 10 34 41 40 35 87 100 92 100 100 93 86 90 95 97 97 98 95 96 98 98 93 95 96 89 88 95 86 94 89 90 76 76 66 59 67 73 75 80 82 75 72 69
10 33 39 36 45 30 90 99 96 100 94 99 91 87 95 94 90 88 90 97 100 100 100 99 96 100 93 94 96 100 92 94 86 76 59 64 67 70 88 87 80 75 68 76
34 34 41 48 49 27 89 97 99 96 97 99 98 96 96 93 93 91 92 97 100 98 100 99 100 98 100 93 92 85 85 90 91 79 79 85 89 84 85 86 80 76 73 79
50 83 60 58 43 26 86 98 100 99 99 98 94 88 92 97 99 100 100 100 100 98 98 99 99 98 98 99 99 78 80 80 70 67 65 76 78 75 78 87 77 77 77 78
32 80 60 61 21 31 88 99 94 98 99 97 88 90 95 89 94 95 98 99 99 99 98 99 100 99 99 97 91 80 93 79 81 97 86 61 64 60 56 72 80 72 80 80
72 81 74 28 19 64 99 94 93 98 100 99 100 99 84 91 98 96 96 98 96 100 98 98 99 99 98 96 86 88 87 83 76 75 97 95 89 88 84 79 81 79 81 86
51 86 22 20 34 85 99 100 96 97 100 99 99 96 95 99 96 95 94 99 98 96 99 99 99 95 98 98 98 97 93 99 100 94 80 81 78 85 90 78 78 82 85 88
38 23 29 64 83 97 98 100 100 100 100 100 97 100 100 93 97 96 96 98 98 98 98 97 98 95 98 98 97 94 90 92 93 100 98 88 84 82 80 80 80 84 91 95
86 100 100 98 98 100 98 96 97 98 98 99 100 100 100 100 99 100 96 97 97 97 98 98 98 98 96 89 68 56 57 68 68 82 96 99 98 98 93 90 94 99 99 100
80 96 97 98 95 97 97 98 97 97 93 100 100 100 100 99 100 100 96 98 97 97 97 97 97 95 69 55 50 69 82 72 68 88 98 98 99 98 98 100 100 99 99 99
97 98 98 98 93 99 98 95 98 100 99 98 97 97 95 97 99 96 98 97 97 97 95 88 80 71 58 73 64 98 90 80 84 86 95 99 100 99 99 99 99 98 99 99
99 97 97 98 99 100 100 100 100 93 86 84 98 90 95 96 97 97 98 99 97 92 71 68 64 52 46 51 65 97 98 95 86 87 98 98 98 98 98 99 99 99 98 97
98 97 95 95 93 85 93 98 100 99 98 91 88 94 95 97 97 98 98 100 98 80 68 67 58 57 56 50 43 47 78 94 93 81 78 85 90 96 96 88 93 98 100 100
98 95 93 87 84 75 79 84 96 95 97 95 95 95 95 96 97 99 100 99 97 78 66 63 69 72 68 62 55 51 43 49 70 72 69 71 87 95 94 90 93 93 96 98
96 88 86 85 85 79 77 74 74 80 88 95 100 96 88 97 93 87 93 94 87 70 73 68 68 70 70 66 63 60 54 48 41 44 62 68 73 80 82 84 91 97 96 98

GFSNW_700_rhum_060.txt.gz
RH
6 10 21 20 62 62 51 48 80 90 95 94 87 85 92 94 96 98 99 97 91 86 84 94 86 78 84 82 92 88 81 79 98 94 86 89 85 80 81 80 80 98 91 56
5 13 23 24 64 64 59 53 65 67 80 72 84 94 92 97 97 100 98 95 84 80 74 82 79 72 78 70 85 87 83 80 87 94 91 95 99 97 92 88 83 86 84 52
5 15 27 22 67 67 60 62 62 63 59 76 86 93 97 96 99 99 100 87 85 80 81 80 93 85 86 72 72 86 80 82 73 76 85 78 86 75 81 91 89 82 76 44
5 13 32 17 70 68 68 70 71 67 61 75 79 95 97 98 99 99 89 88 80 83 79 80 91 86 89 98 92 89 86 80 79 86 94 93 89 88 80 83 79 90 67 62
6 7 37 13 49 77 88 67 74 59 72 79 76 86 98 98 98 89 86 89 85 82 73 76 81 76 79 93 90 80 87 89 84 71 72 78 79 80 86 88 89 88 84 74
6 5 35 11 37 86 92 68 62 82 84 84 81 89 96 90 96 98 98 99 91 90 82 84 85 81 83 80 82 93 96 95 90 79 83 81 74 64 65 64 66 71 82 74
7 5 22 19 26 86 84 75 78 83 81 85 95 94 99 98 99 98 100 99 86 87 90 86 88 85 87 90 96 98 93 96 87 85 77 96 63 74 66 83 85 99 88 88
8 6 8 30 14 74 81 80 70 67 65 72 86 91 97 98 98 98 97 91 82 78 87 94 97 94 94 94 98 96 92 92 91 92 95 71 50 61 87 88 96 96 96 92
9 7 6 22 24 38 79 83 80 78 64 75 81 82 76 81 83 90 87 84 81 83 76 79 86 85 96 98 96 96 94 93 97 95 92 96 85 84 87 88 88 84 87 100
9 9 6 14 27 18 65 84 75 79 78 79 88 91 90 84 83 84 90 95 90 84 80 89 83 77 83 86 93 96 98 96 97 97 93 72 55 64 80 95 85 88 76 80
10 10 7 10 23 24 43 92 83 84 88 95 88 88 90 88 91 95 90 90 90 85 81 86 83 77 81 84 86 83 81 89 88 95 93 86 64 74 91 95 78 71 70 79
10 10 7 14 24 33 27 91 95 97 85 93 83 85 98 91 96 100 95 96 96 94 91 83 81 81 87 89 94 87 89 82 82 80 59 70 82 85 96 76 71 85 82 77
10 8 16 27 25 32 33 85 100 100 100 96 80 86 95 96 98 99 100 98 94 99 100 97 95 87 87 93 95 96 90 95 94 83 78 58 64 68 88 84 90 84 77 72
9 23 26 21 26 29 31 84 98 100 100 99 95 92 96 96 96 96 96 92 94 100 99 98 100 100 93 98 97 100 98 98 91 82 67 77 80 74 83 97 97 94 80 81
20 59 58 46 58 50 36 93 97 100 100 100 100 91 91 94 91 90 92 99 100 98 100 97 96 91 97 97 94 78 80 82 91 81 89 89 78 92 97 83 96 89 84 82
58 69 38 100 69 68 52 95 97 99 100 100 100 97 92 93 94 97 100 100 99 99 98 98 90 95 99 95 96 92 92 90 94 84 81 68 64 80 76 66 68 87 79 82
94 48 70 94 84 46 70 97 96 99 100 100 91 91 88 86 95 99 96 99 99 99 98 98 89 98 99 95 94 85 88 86 92 93 94 84 75 70 70 63 51 76 80 78
88 92 92 98 68 43 95 100 96 98 100 100 100 100 98 94 99 98 96 97 99 98 98 98 94 97 99 98 95 91 88 90 92 90 82 73 83 94 88 85 78 74 81 81
36 94 91 49 29 91 97 97 100 99 99 99 99 99 95 99 100 96 92 96 98 97 99 96 99 97 98 98 99 100 98 97 97 97 98 78 75 89 82 85 86 75 80 83
30 36 32 31 81 97 97 99 94 97 98 98 87 98 99 95 94 96 96 97 98 99 98 95 98 98 98 98 99 94 89 87 86 93 99 99 94 87 84 86 86 88 89 88
74 99 100 76 97 97 98 96 95 95 94 94 85 93 98 100 99 97 98 96 97 97 98 98 98 98 99 98 89 68 59 57 63 70 82 98 98 99 98 96 93 92 95 99
89 96 97 97 98 97 100 99 97 99 95 96 97 99 100 100 99 97 97 97 97 97 97 97 98 96 76 58 67 61 80 87 78 68 68 87 94 96 94 95 99 97 99 100
95 97 97 97 92 99 96 98 95 92 100 100 100 99 100 100 98 97 96 97 97 97 97 95 94 80 73 83 87 89 98 94 82 84 92 95 94 99 99 98 100 99 99 98
93 97 97 100 99 96 86 85 91 99 100 98 100 100 100 99 99 97 96 98 97 98 96 91 85 71 74 73 70 62 98 98 99 98 98 99 100 99 99 99 99 98 99 99
87 96 97 99 92 99 100 100 100 100 100 100 100 100 98 100 100 99 93 96 97 87 73 64 65 66 61 58 53 47 52 95 97 98 99 96 97 98 98 97 98 99 100 98
36 91 97 100 92 92 91 100 99 100 98 99 100 100 98 95 98 100 100 98 97 79 68 70 77 78 78 75 71 65 56 49 65 95 95 96 96 97 97 98 96 98 98 99
27 50 75 87 88 94 92 100 100 100 100 100 100 100 99 99 94 93 99 95 89 73 68 66 72 74 76 77 74 69 66 64 57 48 54 78 83 87 88 87 92 97 95 95

GFSNW_700_rhum_063.txt.gz
RH
9 5 16 15 62 68 75 49 57 66 62 80 89 99 97 97 98 100 100 99 83 89 83 94 84 74 84 83 77 76 75 79 99 94 89 89 92 74 76 70 89 97 90 52
8 5 18 14 64 57 63 55 55 66 73 97 93 95 96 100 100 92 84 98 82 82 87 85 83 71 81 87 85 78 77 83 97 97 93 92 93 93 92 83 85 87 84 49
8 6 20 12 65 61 62 44 49 68 76 79 83 95 100 98 99 100 88 89 79 74 74 70 75 73 78 86 86 90 83 74 67 75 78 82 92 89 89 96 94 84 69 40
9 6 17 12 48 69 69 58 45 66 70 67 81 96 98 97 98 96 92 92 80 73 77 73 76 77 76 78 80 89 86 77 73 78 88 89 90 84 82 86 80 82 50 52
9 7 10 15 30 74 76 68 57 68 72 68 89 98 100 100 100 91 85 94 88 79 73 71 76 77 72 88 92 84 87 78 80 74 73 83 88 85 85 84 86 83 69 61
9 9 6 22 29 78 82 66 56 79 75 83 89 99 98 96 86 97 92 86 89 95 85 80 84 86 83 80 81 90 82 82 85 75 83 79 67 64 68 61 59 62 71 75
10 10 6 21 20 78 81 78 62 83 73 78 89 100 97 99 98 97 100 97 87 92 90 93 97 99 88 83 91 85 91 93 84 84 76 91 54 76 68 70 82 86 92 99
11 10 7 9 26 49 77 80 70 62 73 64 68 92 100 91 100 99 96 94 87 93 99 94 96 94 93 96 95 95 94 86 89 85 85 68 50 55 69 88 95 97 96 100
24 10 10 6 18 24 64 78 78 79 70 66 68 80 89 89 93 93 86 84 81 78 78 82 83 87 93 96 95 93 92 93 94 84 87 95 80 90 94 92 95 98 94 94
26 12 10 9 8 22 36 72 81 80 74 64 68 85 90 85 83 85 86 82 82 80 79 77 80 84 86 87 92 96 94 94 96 96 94 72 62 82 73 93 98 95 86 78
25 13 12 10 7 14 26 49 81 76 75 75 72 78 94 87 83 81 81 82 85 84 76 79 77 79 83 90 88 86 81 83 80 92 88 81 61 81 88 98 96 84 86 90
17 12 13 11 11 17 18 37 73 79 75 83 75 78 95 94 94 99 98 96 94 92 88 79 79 77 82 84 89 87 87 80 86 80 65 71 88 82 88 97 88 98 88 78
16 11 11 11 16 15 20 32 63 87 85 84 78 83 98 92 99 98 96 90 92 98 94 95 94 89 89 96 97 95 88 94 96 89 74 77 70 78 78 94 98 100 92 78
13 11 12 25 23 24 19 32 73 95 99 100 94 83 95 99 98 95 97 96 95 98 99 99 98 98 100 94 96 91 87 98 96 88 71 86 97 94 90 86 98 94 92 85
12 12 43 52 54 72 28 39 84 97 98 96 99 95 98 100 97 97 95 97 100 97 99 98 97 94 97 92 97 80 82 82 90 77 91 98 92 84 93 99 84 81 91 87
12 56 75 52 96 100 70 52 93 97 98 97 98 97 94 94 99 100 100 100 100 100 99 94 95 98 92 98 92 90 99 100 93 84 90 82 74 69 68 80 79 59 70 82
48 90 89 92 96 98 70 70 98 96 98 99 98 97 97 96 98 98 100 98 97 100 97 99 91 98 98 96 88 98 99 98 98 95 94 94 90 78 79 72 71 70 52 77
93 86 97 96 99 90 73 98 97 96 98 98 98 99 97 99 100 99 98 96 96 99 99 99 99 96 97 98 86 96 86 88 89 89 86 83 77 70 81 88 87 84 74 70
58 92 94 97 78 73 96 97 97 97 97 98 97 99 100 99 100 100 93 96 98 99 96 97 98 98 99 85 77 85 100 99 100 97 98 99 93 72 67 86 85 82 85 79
100 95 49 42 92 97 97 97 96 97 98 100 89 100 100 95 98 92 92 98 98 100 95 97 98 97 98 100 100 100 100 100 97 82 88 98 99 100 97 93 86 87 90 92
92 99 97 95 97 97 97 97 97 95 90 84 76 82 94 97 99 97 97 98 97 97 97 98 99 100 98 98 100 96 87 78 65 61 68 73 88 100 100 99 94 96 94 92
94 90 96 96 96 97 97 98 92 98 90 100 100 99 98 98 96 97 97 97 96 97 97 97 97 98 97 84 73 69 73 72 84 79 61 60 77 96 93 94 92 95 98 93
93 89 96 96 94 98 100 100 99 100 98 100 98 97 99 97 96 98 96 97 97 97 97 96 96 95 95 96 96 89 95 94 93 87 79 73 80 93 95 98 98 98 98 99
97 100 96 96 97 95 96 91 96 95 100 100 100 99 100 95 98 96 97 98 97 97 97 96 95 95 95 95 93 87 89 98 99 100 100 99 96 94 100 100 100 100 100 100
78 97 94 97 94 99 98 97 97 97 99 99 99 100 100 99 99 94 96 97 97 95 84 80 83 94 96 96 96 92 88 88 98 98 98 99 99 98 99 100 99 100 100 100
25 90 91 93 85 95 100 99 98 95 98 98 98 98 100 100 97 99 94 93 92 84 67 65 77 92 95 95 93 87 78 68 64 65 95 97 97 98 98 98 98 99 100 99
24 23 56 82 82 98 100 100 100 97 98 97 98 98 100 100 99 95 100 100 89 85 72 71 81 80 80 81 80 75 70 64 61 61 53 53 75 90 96 97 95 91 97 98

GFSNW_700_rhum_066.txt.gz
RH
19 10 6 11 39 49 48 46 60 81 86 99 94 100 100 97 99 100 100 100 100 87 96 96 82 92 86 79 78 67 68 78 98 92 95 89 90 75 66 62 88 87 86 49
44 10 6 12 31 53 51 50 71 82 88 98 97 93 100 100 100 85 91 95 91 90 87 86 76 65 86 84 72 75 68 82 95 96 89 97 99 93 84 81 75 84 81 47
47 11 7 14 18 64 57 46 61 81 75 99 100 98 95 97 99 83 70 72 78 82 72 63 78 65 77 80 82 76 73 70 69 75 72 80 91 84 89 88 86 78 62 42
51 14 8 13 14 65 64 42 66 78 92 99 100 99 100 94 95 94 84 80 71 70 70 77 78 72 64 87 89 87 81 75 76 80 87 87 87 80 84 80 79 73 54 50
63 12 9 8 15 70 78 51 65 96 100 100 97 98 96 94 96 86 88 83 80 75 71 70 66 66 67 73 85 88 88 78 75 75 77 79 84 85 84 84 82 78 70 47
69 13 10 7 16 68 76 53 66 86 95 100 96 99 96 100 98 91 88 89 86 88 83 74 82 81 77 78 72 84 89 86 77 75 79 76 66 61 67 65 60 61 68 70
65 30 10 10 11 40 73 64 64 73 98 100 99 97 99 94 98 92 91 96 85 94 89 96 98 94 86 97 98 94 89 83 80 82 72 80 57 78 73 70 83 85 90 98
83 34 11 12 8 17 48 73 62 64 84 90 98 100 97 95 97 96 94 90 86 92 92 97 96 94 89 98 95 90 86 86 86 79 81 63 59 55 70 90 97 96 92 94
91 42 34 11 13 8 21 59 66 62 67 75 89 100 100 100 98 96 88 86 89 90 90 84 84 89 92 93 94 87 90 92 87 81 88 89 82 96 97 93 97 96 88 86
86 82 46 13 13 11 9 25 67 68 61 70 78 90 94 93 91 92 90 84 83 82 79 76 80 86 90 89 92 94 94 89 91 98 85 68 69 91 74 87 98 96 89 96
82 52 46 35 18 14 10 13 37 65 63 69 67 75 89 90 82 88 88 87 86 83 80 78 77 82 86 92 90 87 80 82 80 98 91 76 68 72 82 96 100 93 99 93
74 63 39 20 45 16 12 14 16 59 63 77 81 81 100 96 96 98 96 95 89 87 86 79 82 80 85 86 88 87 83 78 82 75 66 74 85 90 83 82 96 97 99 98
71 57 19 13 12 14 16 14 15 37 67 76 74 87 90 96 100 91 89 92 91 97 97 94 92 91 92 97 96 93 89 89 90 86 75 78 86 77 76 81 96 99 99 100
69 23 20 14 12 30 35 21 18 34 84 84 84 72 85 100 99 93 98 97 97 94 98 96 97 97 96 97 92 87 86 93 92 88 83 80 88 90 100 88 91 95 95 98
44 40 14 22 58 57 84 61 22 40 90 98 94 83 85 100 100 99 95 99 100 99 98 97 95 97 98 88 93 75 83 88 89 81 90 92 83 87 86 87 91 96 86 75
53 14 21 75 59 93 100 73 32 62 99 100 97 86 100 100 98 100 100 100 100 100 99 96 98 99 94 96 100 69 79 94 94 76 80 83 81 78 74 66 67 80 79 64
16 29 68 90 95 91 97 77 76 92 97 98 97 100 97 100 100 100 100 100 100 100 100 99 100 100 99 98 98 77 81 86 98 98 99 96 92 91 85 74 74 72 76 75
32 63 96 90 98 97 85 89 97 96 97 98 97 97 97 99 100 100 98 96 100 94 95 97 99 100 98 98 83 76 73 80 91 96 93 87 85 84 83 74 72 83 85 84
90 88 82 84 93 85 74 97 96 96 97 98 96 95 99 100 99 99 98 97 91 96 99 100 100 99 98 96 79 81 80 79 94 97 99 99 98 100 91 79 73 80 88 85
80 94 99 65 67 91 96 96 96 96 97 97 89 95 98 97 100 97 97 100 100 100 97 100 100 97 96 100 95 99 100 100 100 99 92 100 98 100 100 97 100 98 92 90
65 92 96 95 97 96 96 97 97 96 94 87 79 89 98 97 99 97 96 97 97 98 96 98 99 99 100 100 94 98 100 92 83 80 74 67 66 79 91 94 100 98 95 98
49 85 97 95 95 96 97 96 96 95 95 99 100 97 91 95 97 96 97 97 96 95 98 97 98 97 100 100 96 91 83 76 73 68 71 76 55 61 84 97 97 97 99 98
56 83 95 97 96 97 97 98 97 97 99 98 100 98 98 96 96 96 97 97 97 97 98 97 96 96 96 96 96 92 86 92 85 90 92 88 84 63 75 93 93 100 98 99
52 93 96 96 96 96 100 96 95 98 100 100 97 98 97 96 96 95 96 98 97 98 98 90 95 95 96 96 96 95 96 100 100 100 100 99 94 100 99 97 100 100 100 99
26 94 96 96 93 98 97 96 98 99 95 92 96 97 96 96 93 97 95 97 98 96 92 90 94 95 96 96 96 96 96 97 97 98 98 98 99 99 99 100 100 100 100 100
18 43 91 98 91 93 97 96 95 95 97 94 93 96 97 98 94 98 91 93 90 94 82 77 74 94 97 96 96 96 96 96 96 95 90 88 96 98 98 98 99 99 99 100
20 22 26 62 94 96 95 96 96 96 97 97 95 96 97 99 100 100 100 100 96 88 79 68 78 90 91 93 91 85 81 80 84 84 80 80 73 78 93 93 98 99 99 99

GFSNW_700_rhum_069.txt.gz
RH
48 47 14 7 16 56 42 51 76 92 91 91 97 99 96 98 100 99 96 95 72 79 87 85 81 89 89 88 82 71 62 86 99 98 96 85 86 80 67 57 77 78 76 46
64 51 13 7 12 51 39 52 82 90 79 87 94 100 100 99 96 99 93 84 84 87 81 78 78 75 73 78 74 66 63 75 93 95 86 88 94 86 78 70 68 70 69 45
77 55 13 8 12 50 49 43 57 87 100 100 86 85 94 98 96 87 89 89 78 80 69 71 69 75 88 83 75 68 62 67 66 72 67 75 86 78 81 78 73 70 51 47
76 58 12 9 12 55 60 39 73 98 96 94 97 94 90 92 92 86 81 86 81 75 71 64 71 65 83 87 79 73 67 69 71 75 79 83 81 75 79 82 70 60 52 47
77 63 16 11 10 44 62 46 65 100 100 97 92 100 100 91 93 84 80 75 75 74 69 72 78 72 65 80 82 82 79 75 74 74 74 76 76 84 80 78 77 69 59 50
75 71 35 12 9 25 60 56 52 89 100 100 99 98 98 91 100 91 84 81 80 75 77 76 82 77 71 64 60 80 84 83 78 73 76 75 67 61 73 71 68 68 70 74
74 82 65 15 12 9 42 63 53 64 99 97 97 100 100 99 90 86 86 91 88 95 86 88 94 84 77 84 83 82 86 86 77 71 70 80 72 80 76 78 92 87 94 100
78 77 84 60 13 11 10 48 55 54 93 96 100 98 96 100 95 94 88 90 94 95 97 95 90 90 96 94 92 91 84 82 80 74 78 62 80 61 74 94 93 99 93 90
77 79 82 72 40 13 10 11 50 57 67 96 100 100 94 97 98 98 97 96 92 93 93 86 83 89 89 93 93 88 87 90 82 78 84 80 96 97 99 97 100 98 93 93
76 81 74 57 49 53 41 14 13 48 55 70 98 99 98 100 97 93 91 90 91 86 80 76 78 85 88 89 92 90 90 89 90 89 88 64 74 85 86 92 97 98 98 99
76 78 72 60 43 20 50 54 17 16 47 66 70 96 100 100 96 96 91 89 88 85 82 80 77 83 88 90 90 84 80 81 94 100 98 69 74 70 89 93 92 98 99 98
78 80 74 56 33 14 17 25 34 14 18 58 70 68 85 100 98 99 94 95 89 88 88 81 80 80 88 86 90 88 85 80 82 73 66 79 82 91 94 85 83 93 96 96
81 83 78 37 22 24 16 18 21 21 10 33 65 80 90 91 99 100 91 93 92 95 99 96 91 90 90 97 93 91 89 89 88 82 78 86 88 91 80 80 82 97 96 96
85 86 66 46 35 14 18 35 48 38 16 21 73 74 80 97 92 99 96 96 98 96 100 98 97 97 93 95 90 87 86 88 88 80 76 89 82 94 88 96 91 82 94 96
88 84 74 28 14 34 52 47 46 54 37 50 78 93 74 90 100 99 97 100 100 97 98 98 97 98 98 94 91 66 70 72 79 76 80 85 94 99 85 85 86 95 93 96
90 88 29 18 57 74 82 78 75 61 38 59 96 94 90 98 100 99 99 99 99 99 97 97 96 99 98 96 100 62 69 76 83 86 88 78 79 78 78 79 77 70 67 84
84 21 69 66 97 100 98 93 90 89 48 90 96 100 100 100 100 100 100 98 98 98 98 93 91 93 97 96 91 72 81 74 78 86 99 98 98 98 94 91 89 77 74 78
37 31 89 79 93 84 92 94 96 96 89 96 96 97 100 98 100 98 96 98 99 99 100 100 98 100 99 98 89 71 80 82 83 76 92 98 95 95 94 87 85 82 73 80
18 61 93 98 89 93 99 91 93 97 96 96 97 99 96 95 96 98 100 99 100 100 97 100 100 99 94 96 92 97 91 86 83 78 79 89 92 97 99 99 98 82 87 83
17 57 96 96 100 78 78 96 97 96 96 96 95 96 99 95 94 99 98 99 99 100 99 97 100 99 100 100 99 100 96 99 100 100 93 89 96 99 100 100 98 93 100 100
18 50 98 98 96 96 96 96 96 96 95 90 91 95 96 94 98 99 97 98 99 98 95 100 100 92 78 86 97 100 100 100 98 88 84 80 78 78 76 76 85 95 98 98
23 31 82 98 95 96 96 96 96 94 91 97 96 86 89 96 96 96 96 95 97 94 98 97 95 77 84 99 99 99 95 91 86 78 73 67 62 72 56 58 80 90 98 98
27 49 88 94 95 96 96 96 96 97 96 95 97 98 95 96 98 97 94 97 96 96 97 94 88 88 96 99 98 98 96 88 86 84 89 91 88 88 76 61 86 99 97 96
28 58 96 96 96 100 100 96 97 97 97 96 98 98 97 96 96 97 96 97 97 97 97 92 88 88 97 99 98 98 98 95 96 98 98 99 100 96 89 76 94 98 99 99
28 38 93 96 92 95 96 96 96 97 97 95 90 94 96 96 96 98 96 97 96 96 96 96 94 95 96 96 97 96 97 97 97 97 98 99 99 98 99 100 100 99 99 98
85 21 61 97 96 93 96 96 96 97 97 94 92 93 96 97 94 99 95 98 92 96 97 97 97 97 97 97 96 95 94 95 96 97 97 96 96 97 97 98 98 98 98 98
86 48 37 34 32 92 96 96 96 96 96 98 96 92 92 96 98 100 94 92 90 92 93 90 86 82 96 94 96 96 91 85 89 92 94 94 95 96 96 96 94 97 98 98

GFSNW_700_rhum_075.txt.gz
RH
50 58 60 51 16 27 40 58 66 77 75 74 83 94 97 95 96 100 95 99 90 89 87 87 93 100 89 74 70 66 73 91 99 99 98 95 98 98 94 83 71 56 71 50
48 57 62 59 17 18 40 40 64 75 70 72 85 95 93 98 90 88 87 93 80 72 77 81 95 84 75 70 65 77 71 86 88 92 84 82 87 77 82 63 56 71 64 50
50 55 64 64 18 13 43 46 74 82 96 96 81 82 87 96 95 91 87 79 83 85 84 73 80 88 80 72 63 57 55 75 72 60 75 82 87 79 72 72 71 64 53 59
55 55 61 64 37 13 39 38 81 92 98 98 100 92 92 96 92 91 84 95 78 75 79 83 70 63 74 72 64 55 78 81 76 74 79 84 83 69 82 78 69 62 55 52
64 58 57 61 65 29 22 43 61 86 99 100 99 100 92 95 94 83 86 83 74 71 73 74 84 69 85 89 72 63 60 73 76 80 60 64 73 75 88 87 80 78 61 66
75 65 60 60 64 61 16 36 53 70 91 100 100 98 96 94 89 88 80 74 95 74 68 71 73 71 67 64 76 71 70 71 73 85 64 70 79 86 86 85 63 78 73 67
76 78 67 65 64 67 53 21 34 53 78 98 95 97 96 98 97 96 84 82 96 87 79 79 79 74 70 63 58 67 75 79 74 64 71 70 66 71 65 84 73 67 75 72
79 75 77 72 66 66 59 63 43 35 47 90 100 98 97 98 99 98 98 93 91 90 86 99 96 93 95 94 78 82 86 84 82 72 54 61 62 72 74 84 98 80 70 86
83 82 80 78 73 70 62 48 50 45 38 63 95 98 98 98 97 100 99 99 95 93 89 97 87 78 76 83 94 87 80 87 84 82 65 51 95 65 75 84 100 92 89 84
89 84 86 82 76 75 72 62 34 43 38 30 68 95 98 98 100 98 99 95 98 97 96 94 83 73 79 77 79 88 92 93 86 77 78 65 88 81 85 87 99 93 92 90
82 81 85 83 82 75 80 57 37 39 54 39 26 65 94 96 98 99 93 92 93 90 98 93 91 84 88 84 85 96 87 87 85 84 79 70 77 82 90 100 88 90 90 89
82 88 82 83 86 80 75 60 59 43 31 44 35 31 70 91 97 95 98 96 97 94 92 88 78 92 79 88 74 78 86 88 82 86 78 74 70 72 78 91 88 83 81 89
77 83 83 81 80 80 80 77 47 32 34 35 46 34 30 70 92 99 95 100 99 95 95 94 91 97 80 86 84 90 76 74 77 74 76 82 81 81 81 82 82 79 79 98
72 81 83 80 77 74 41 42 49 46 44 38 32 36 20 54 81 85 100 93 99 91 96 90 91 92 88 100 93 83 94 80 79 74 78 82 85 83 80 84 83 91 95 94
84 86 82 83 70 24 34 70 64 82 78 54 26 34 37 31 67 76 95 93 98 96 91 93 92 88 90 86 78 65 61 65 82 80 85 75 91 80 88 84 81 89 85 87
85 88 92 87 30 47 83 86 79 98 94 93 53 20 34 54 82 88 91 100 98 96 99 97 97 94 91 96 100 80 61 60 60 69 70 76 84 84 85 99 95 85 85 83
85 87 92 86 45 92 96 97 93 91 98 88 71 31 66 54 92 98 100 99 97 94 99 97 92 92 90 92 99 73 75 72 72 74 77 80 87 90 95 84 88 93 89 84
77 76 89 32 84 82 70 93 95 98 93 92 79 90 99 81 92 98 96 100 98 98 98 96 96 87 83 85 72 70 79 81 88 87 80 79 80 90 89 96 100 94 90 86
84 70 82 33 88 82 78 74 92 99 96 98 94 97 98 90 99 97 99 98 99 92 100 96 90 89 80 66 70 82 86 96 100 99 97 93 81 84 89 92 94 95 92 87
78 64 83 34 46 93 95 93 95 99 91 75 74 96 96 99 99 98 98 98 96 99 85 87 96 81 71 77 88 100 99 98 98 100 100 100 100 88 90 86 92 93 100 100
71 70 78 72 39 79 93 97 96 98 88 82 86 94 96 98 100 98 92 96 93 98 92 96 94 89 68 76 81 94 100 100 100 100 99 100 100 100 92 87 78 76 80 81
72 73 72 71 70 94 96 96 97 95 91 95 96 95 96 98 97 94 96 96 94 100 100 98 100 71 88 92 93 98 100 99 97 96 95 96 95 92 86 79 74 68 64 66
56 71 75 77 93 95 96 97 96 97 97 97 97 97 96 96 97 96 97 96 99 95 98 94 84 89 97 92 93 96 95 94 94 92 89 91 94 94 92 89 73 65 73 68
67 80 61 69 96 97 97 96 96 96 96 96 97 98 97 96 96 96 96 97 97 98 100 89 93 96 86 87 90 93 94 96 97 95 93 92 96 98 98 98 100 98 78 62
79 78 61 58 79 96 96 94 95 96 96 96 97 97 97 97 97 96 96 97 96 97 97 95 97 96 94 92 94 96 96 97 97 97 97 97 97 98 97 98 98 98 99 84
76 68 63 59 60 62 58 60 83 95 96 96 96 96 97 96 97 98 98 97 96 97 97 96 97 97 96 95 96 97 96 96 94 94 94 93 93 92 94 97 98 98 98 99
67 69 79 88 84 76 50 52 47 81 95 96 96 96 96 96 96 95 97 97 96 94 95 96 97 97 97 97 97 97 96 95 96 96 93 87 73 62 61 61 64 83 96 98

GFSNW_700_rhum_078.txt.gz
RH
46 44 43 47 51 19 33 27 46 69 65 72 88 100 98 89 99 96 98 94 98 84 87 89 80 90 84 86 96 96 98 93 98 98 94 95 92 87 86 93 87 69 61 61
50 51 46 48 53 44 21 30 59 69 72 81 84 92 96 94 90 91 86 90 85 87 80 88 92 74 72 67 71 75 92 94 98 98 99 100 95 90 92 94 93 69 90 58
60 55 52 47 53 56 18 34 57 76 82 100 100 100 92 97 92 94 87 94 88 82 83 84 87 76 72 65 59 61 75 75 82 84 80 78 94 85 89 92 77 66 53 56
62 58 58 52 51 58 26 36 48 66 88 98 99 100 100 92 99 97 82 94 91 86 80 81 81 79 75 67 60 59 76 86 67 71 79 81 79 90 85 90 67 63 53 52
64 64 62 60 52 53 54 22 35 56 89 90 93 97 99 97 100 90 92 90 96 66 62 87 94 89 87 82 65 56 73 77 70 64 60 63 66 78 87 81 71 66 59 64
71 73 69 65 57 50 52 54 33 38 56 90 92 96 97 98 94 100 88 80 97 78 69 67 74 74 72 64 77 66 61 60 71 86 60 61 74 75 79 81 64 68 62 66
66 74 72 70 67 59 55 55 54 36 40 73 96 96 97 96 96 94 99 85 98 83 77 78 77 76 71 63 56 64 65 75 71 69 66 84 76 65 77 81 74 71 78 76
67 76 68 69 72 66 64 62 58 51 37 38 84 96 97 96 94 98 98 94 92 87 82 87 93 89 82 82 72 66 80 80 78 77 58 62 61 71 64 79 79 69 76 76
57 65 72 70 72 71 70 66 63 48 46 43 35 70 96 97 94 98 98 94 93 92 80 85 95 95 75 82 86 77 68 81 84 75 70 64 97 64 80 98 97 95 79 72
61 63 65 72 75 73 75 70 64 54 46 47 39 36 68 96 98 95 100 96 94 93 86 91 88 91 70 84 76 82 87 83 87 77 75 68 74 69 88 88 97 98 94 93
53 57 65 73 73 71 66 69 68 61 55 49 49 36 29 68 96 98 98 94 95 91 96 89 94 90 90 80 82 87 87 87 82 80 77 76 81 89 93 98 98 100 98 87
28 53 65 68 70 73 73 72 66 59 52 48 44 39 38 32 82 96 97 97 97 92 92 95 85 98 83 85 95 81 86 83 83 84 80 73 74 84 85 95 91 88 83 79
28 51 74 72 72 77 76 56 33 36 38 33 38 39 40 42 38 97 97 96 95 99 92 89 90 86 87 96 89 90 80 73 71 74 78 78 74 74 79 83 82 79 80 80
41 62 75 79 73 80 66 30 66 64 51 44 37 41 39 40 28 68 96 96 93 86 89 86 85 88 90 90 88 82 92 86 75 74 79 77 79 77 79 81 83 81 86 98
44 74 75 77 83 78 47 70 75 80 90 73 48 33 31 38 26 43 89 97 93 98 88 94 95 90 91 85 80 70 68 69 76 91 89 90 89 78 86 83 82 80 88 86
38 59 70 75 88 35 64 66 69 88 100 84 84 40 32 37 34 42 90 99 95 94 96 98 94 93 98 89 89 70 73 68 70 80 78 89 84 76 78 82 92 95 88 82
25 50 69 70 74 41 81 70 66 97 94 100 81 50 59 41 43 54 93 97 100 100 100 98 93 97 100 96 83 64 74 69 68 74 75 77 79 78 82 78 83 82 94 88
22 32 54 60 75 45 84 87 74 79 93 95 87 52 89 75 91 96 91 96 100 96 100 88 99 92 94 96 65 62 63 71 81 82 83 82 77 78 76 83 89 100 99 93
21 24 38 48 60 49 41 94 94 83 99 100 87 94 95 94 98 86 96 98 99 98 98 98 95 97 98 70 72 70 67 79 91 99 99 98 93 79 77 82 91 91 94 93
21 26 33 43 58 74 52 74 93 98 97 98 60 75 90 97 92 98 92 93 98 97 99 90 98 92 63 62 70 76 75 79 88 99 100 100 100 100 100 83 86 87 88 88
20 29 26 28 31 58 65 94 94 97 93 95 95 95 95 93 97 100 90 97 95 94 96 94 99 79 57 67 74 76 76 79 93 100 100 100 100 100 100 99 86 78 77 77
31 47 36 30 60 87 90 94 95 96 96 96 96 97 97 95 96 97 97 94 88 96 100 96 99 61 70 81 86 87 88 100 100 99 98 97 97 95 94 95 93 86 71 65
43 49 33 54 80 91 96 97 96 95 96 96 95 95 97 97 100 98 97 96 96 95 98 95 72 76 84 91 87 92 95 98 98 95 92 92 94 94 98 98 98 91 76 67
66 57 44 59 95 96 96 96 92 83 95 96 96 96 97 96 96 97 97 96 98 100 99 91 83 91 95 94 89 90 95 97 98 97 98 96 93 93 94 97 99 99 100 99
91 68 53 54 57 63 76 70 65 58 76 95 95 96 96 97 97 96 97 97 98 99 98 96 97 97 97 94 95 94 95 96 99 97 95 95 95 94 97 98 98 98 96 99
84 68 60 52 65 71 80 78 62 52 52 95 96 97 97 97 97 97 97 98 98 97 96 96 96 97 97 96 96 96 97 96 95 94 95 92 87 71 66 65 59 81 96 94
72 66 65 58 64 80 83 81 82 68 52 91 96 96 96 96 96 96 97 97 97 96 95 96 96 97 97 97 97 97 97 97 97 96 94 92 89 81 69 55 43 34 33 66

GFSNW_700_rhum_081.txt.gz
RH
45 52 46 43 34 34 40 25 56 66 75 71 69 100 100 99 87 84 97 94 92 90 91 90 88 98 97 95 98 98 84 100 99 93 96 90 85 80 71 70 95 81 84 68
54 53 46 37 39 36 44 25 53 78 78 79 79 98 100 99 98 96 89 94 86 88 82 82 77 73 70 79 94 94 89 89 97 100 100 99 94 74 77 75 76 71 83 68
44 42 44 46 35 42 42 32 42 67 84 98 99 86 88 98 95 98 98 97 77 80 85 81 78 77 70 61 78 89 84 89 86 88 81 86 100 94 93 79 81 82 73 57
26 38 42 47 42 49 45 47 30 45 82 90 94 96 92 84 83 99 100 90 74 82 83 83 85 88 77 65 61 71 76 94 94 92 84 82 83 82 88 89 77 73 60 52
9 28 48 49 45 54 53 48 49 33 56 93 90 90 86 94 92 92 90 88 98 78 70 84 83 86 84 78 63 70 69 76 61 72 74 89 87 87 84 89 93 85 57 57
9 15 38 53 51 61 55 56 56 52 37 74 94 92 95 88 84 97 98 86 99 87 78 77 74 74 75 65 70 62 57 70 75 76 71 75 86 89 86 80 79 70 62 57
13 33 41 53 60 64 59 56 56 56 46 40 67 95 100 95 88 81 85 89 93 86 85 86 79 75 78 67 56 67 68 70 73 70 76 85 76 71 76 79 72 73 66 65
10 29 38 41 55 60 59 60 61 59 48 48 45 51 98 98 86 98 91 94 89 88 88 92 98 95 94 77 66 65 68 67 68 68 68 68 73 75 83 85 74 76 82 79
5 11 28 48 55 63 65 60 62 60 57 51 48 40 47 92 94 97 100 96 94 89 86 91 92 87 76 80 77 69 70 74 74 76 68 72 87 70 69 87 91 78 85 80
5 8 23 50 59 65 67 56 59 54 59 55 53 48 37 45 95 95 96 97 96 90 82 93 88 90 76 84 78 80 81 80 80 79 76 76 80 71 96 98 87 96 82 80
7 14 30 54 58 59 65 68 61 52 44 45 46 44 46 33 46 91 97 98 95 89 93 82 89 88 86 84 88 82 85 85 81 80 76 77 78 89 98 91 99 94 97 98
7 25 41 50 62 64 70 66 48 39 45 44 44 38 39 43 35 47 95 97 98 96 96 90 84 91 87 88 92 84 86 85 84 82 80 74 80 83 88 93 100 98 92 86
5 14 48 58 60 67 76 58 52 52 46 38 43 42 49 43 42 37 61 96 96 98 93 88 87 86 90 92 94 92 86 78 75 78 74 74 72 76 76 82 84 87 84 82
4 9 37 60 63 64 66 45 62 57 53 56 52 48 44 44 44 39 41 97 98 96 97 96 87 86 88 85 86 87 88 88 76 81 87 83 81 79 78 80 82 83 82 94
6 10 29 58 56 60 57 53 68 68 60 69 44 46 47 43 36 40 35 91 97 97 99 95 95 94 93 87 82 68 71 71 76 87 88 88 85 86 94 90 87 89 88 91
6 9 20 33 51 57 60 49 70 84 91 99 67 53 69 36 34 37 30 83 100 96 99 98 97 95 100 98 82 71 70 71 68 74 93 99 98 92 84 79 80 87 94 94
5 10 16 25 42 53 57 71 63 93 87 90 76 53 96 48 41 39 43 100 100 100 100 93 96 97 100 98 79 73 74 67 70 78 78 77 84 86 83 81 81 77 79 86
4 8 12 22 27 33 66 78 53 88 97 87 80 56 95 90 99 87 92 95 100 99 98 95 99 96 100 89 62 66 65 65 65 75 87 86 85 81 79 79 80 84 92 100
4 8 10 19 24 26 42 61 63 79 89 94 74 63 90 97 97 92 97 99 98 89 90 88 91 98 93 72 66 75 79 80 81 82 89 86 97 97 94 86 79 85 95 100
4 8 11 24 29 19 54 65 75 74 91 95 96 96 96 95 96 96 98 99 99 98 99 98 100 100 73 65 70 73 74 76 95 91 91 99 100 100 100 100 100 91 88 93
5 11 15 27 21 58 72 83 89 83 93 95 96 96 96 96 96 95 98 99 94 97 95 98 100 74 58 68 74 76 81 81 90 85 90 98 100 100 100 100 100 96 81 80
5 14 20 25 34 71 78 85 88 91 97 96 96 95 97 93 96 97 94 96 96 96 100 99 96 57 64 73 84 86 86 89 100 99 97 96 96 98 99 98 96 92 90 88
7 30 35 33 49 85 94 87 88 76 66 62 80 94 96 99 97 97 96 97 95 93 96 100 65 68 80 93 90 86 90 93 95 96 93 92 94 93 98 100 100 100 100 93
23 56 52 41 60 83 86 72 71 69 65 60 67 95 97 98 96 96 97 97 94 98 100 99 86 88 96 90 88 91 93 94 96 98 99 97 94 93 94 96 98 97 100 100
42 55 54 46 50 49 57 69 71 77 70 62 64 94 96 96 96 96 97 98 100 99 99 98 98 96 98 97 96 94 95 96 97 97 97 93 81 68 64 66 62 78 97 98
53 43 47 52 57 55 57 74 80 75 69 65 70 96 96 96 96 97 96 97 100 99 97 96 96 95 97 97 96 96 96 96 96 96 96 94 92 87 79 69 55 43 33 41
53 49 50 59 66 62 63 77 78 76 72 70 68 94 96 96 96 96 97 96 96 96 96 96 95 96 97 97 97 96 96 96 98 99 98 95 92 89 82 66 33 20 22 22

GFSNW_700_rhum_084.txt.gz
RH
4 8 22 37 33 29 32 30 48 72 72 82 98 98 93 95 100 100 99 93 95 94 99 96 97 96 98 98 100 93 84 97 99 97 97 88 70 88 84 64 96 85 83 64
4 5 11 30 31 28 33 37 40 60 75 71 98 97 97 93 99 100 99 87 86 92 91 95 91 86 98 96 98 98 97 97 96 99 99 99 97 98 91 67 64 72 78 62
3 5 11 29 38 31 37 40 40 41 75 85 89 89 88 93 97 100 99 95 76 76 81 84 89 82 81 97 97 98 95 78 66 73 71 71 93 95 88 77 68 72 67 61
3 6 12 18 30 30 45 44 45 46 42 79 93 97 88 89 94 94 94 94 86 78 75 85 79 83 81 70 90 96 97 94 86 75 69 62 57 72 80 76 72 70 65 60
2 4 8 25 31 33 31 42 49 51 41 56 92 97 92 90 85 97 98 93 95 86 77 82 80 79 64 78 75 72 77 84 78 87 96 89 82 76 68 82 87 76 70 58
3 4 5 12 25 37 39 47 48 51 48 46 55 93 93 93 92 96 96 96 92 93 88 86 82 78 74 66 69 63 66 66 64 74 95 98 100 90 88 89 86 79 76 59
4 3 5 12 26 38 47 50 50 50 53 50 48 64 95 97 99 100 98 100 100 91 92 94 93 90 90 74 61 66 72 73 70 77 77 89 79 85 86 86 86 91 80 62
4 3 4 13 28 40 43 47 50 55 54 52 49 42 41 93 100 94 99 100 98 94 88 96 95 95 88 77 68 70 67 64 68 67 75 72 73 74 82 91 81 80 78 70
4 4 4 14 39 47 46 46 46 50 46 48 46 48 48 51 94 100 98 98 95 92 92 95 92 85 83 78 80 70 72 68 65 77 65 70 84 73 71 79 79 72 82 76
4 4 4 17 36 48 49 47 48 46 37 40 44 46 45 45 46 92 96 95 92 90 86 94 88 93 82 85 84 78 74 71 71 79 74 75 88 74 81 89 75 81 78 79
4 4 4 16 44 48 52 54 54 40 37 43 39 35 38 37 46 52 99 99 97 93 91 83 90 88 86 86 90 85 83 82 84 79 73 73 77 85 88 89 94 94 93 86
4 4 4 11 40 50 53 60 45 45 48 50 49 38 47 41 42 39 69 98 99 99 94 86 84 86 89 89 92 85 85 89 83 79 78 72 78 87 95 91 93 98 95 95
5 4 4 7 35 44 50 56 45 50 48 54 44 50 54 61 48 44 44 98 97 100 96 87 85 87 90 87 92 89 86 82 79 78 71 71 83 89 95 95 92 94 94 90
5 4 4 6 17 32 40 51 50 66 75 66 60 52 45 43 43 42 44 60 97 98 99 100 87 87 91 91 88 84 84 86 80 80 83 77 76 78 80 84 90 90 85 84
5 4 4 5 15 26 36 45 68 66 83 88 62 49 63 52 36 34 43 56 98 98 100 100 99 94 94 91 86 70 67 70 76 78 78 80 81 82 83 86 87 88 91 94
6 4 4 4 11 21 25 36 61 68 63 94 64 71 93 82 33 35 41 41 97 99 100 98 96 92 98 96 85 73 73 72 70 73 83 88 88 92 93 85 78 81 87 92
6 5 4 5 13 20 23 38 64 68 86 89 49 63 99 69 45 41 42 37 86 96 98 96 95 98 100 94 77 71 75 74 73 77 81 77 75 80 83 81 76 76 78 77
7 5 4 4 12 19 27 52 68 74 72 68 76 88 87 99 99 70 46 65 99 97 95 93 97 93 98 77 69 66 71 69 69 68 75 80 82 84 87 86 84 81 77 78
8 5 4 4 12 20 40 59 71 76 72 83 92 91 93 92 94 97 94 97 95 94 91 98 98 94 84 70 74 71 73 79 85 84 81 83 88 88 96 98 98 89 84 86
9 6 4 4 10 22 63 65 70 71 70 73 82 82 94 89 94 91 97 96 97 100 96 99 99 82 64 65 70 74 80 88 89 94 100 100 100 100 100 100 100 100 100 92
8 6 4 4 14 41 72 80 76 78 83 68 61 62 76 95 90 94 95 97 93 97 89 99 96 71 60 64 64 65 67 73 89 100 100 100 100 100 100 100 100 100 100 98
9 6 5 12 20 65 80 83 81 76 77 66 61 60 71 86 96 96 96 96 97 97 100 95 86 62 61 65 72 81 85 85 82 95 100 100 100 100 100 100 99 96 96 90
10 7 7 16 31 74 84 84 70 65 64 62 62 58 73 88 99 95 97 97 98 95 99 100 64 68 73 84 88 84 84 88 93 98 100 100 100 100 99 100 100 100 100 100
10 7 10 26 49 72 54 54 54 51 65 59 61 58 82 93 96 94 97 99 96 99 100 94 84 87 85 94 94 91 88 88 94 95 96 96 97 97 94 97 94 93 93 95
17 10 19 38 50 48 50 48 49 63 70 71 61 56 90 96 96 96 96 97 97 98 96 100 97 97 97 98 99 96 91 96 96 96 95 94 94 83 75 66 58 49 40 61
25 17 15 27 51 58 62 61 53 65 73 68 68 70 96 96 97 97 96 96 97 98 98 98 96 96 96 97 97 97 97 98 97 95 95 95 94 92 89 86 77 60 36 34
22 20 32 40 42 47 69 61 53 66 69 66 75 82 96 95 96 97 97 96 97 98 96 95 92 93 96 96 97 97 97 97 96 96 96 93 82 66 52 40 37 17 6 6

GFSNW_700_rhum_087.txt.gz
RH
2 2 4 6 11 25 26 31 37 42 69 81 98 98 88 94 95 97 99 99 96 97 99 100 98 98 98 94 81 45 44 92 100 99 72 43 42 73 72 88 93 88 79 65
2 3 4 5 9 20 24 35 38 39 62 75 98 92 89 98 94 98 90 99 96 98 99 99 97 100 98 94 92 77 55 85 87 97 95 93 95 71 56 62 78 72 72 56
3 3 3 4 11 19 25 35 43 43 44 63 89 90 86 87 100 98 95 96 88 81 90 91 99 96 99 97 98 98 95 97 76 75 68 83 100 80 64 66 89 66 63 50
3 3 3 4 8 18 32 35 39 46 45 50 93 99 99 89 83 92 94 98 98 95 86 92 84 80 99 98 98 98 98 98 85 70 64 60 53 60 46 78 80 70 61 58
3 3 3 3 10 16 22 31 44 47 47 50 58 96 97 94 83 88 98 98 97 99 98 96 89 82 76 80 97 93 99 96 84 88 86 79 56 46 60 82 91 87 73 59
3 3 3 2 6 17 22 34 36 41 47 50 49 64 88 92 91 96 95 98 97 94 100 91 90 94 84 75 75 77 77 71 64 94 95 92 97 73 74 75 88 77 67 60
3 3 3 2 4 17 22 27 33 36 44 49 49 46 45 58 98 92 95 96 98 96 98 98 94 91 91 81 74 72 68 72 62 90 95 92 74 77 76 78 74 67 72 73
4 3 3 2 4 17 26 28 37 35 33 40 40 42 50 43 84 88 94 92 97 97 94 97 92 89 86 78 69 69 74 68 62 65 74 72 72 76 87 90 78 84 86 90
4 4 4 2 4 19 26 28 34 41 28 30 37 44 42 42 44 88 88 100 90 97 95 99 92 86 83 81 80 67 67 71 67 73 66 66 84 76 77 87 82 69 78 78
5 4 3 2 3 18 35 33 37 41 28 39 47 51 47 38 41 47 86 98 96 97 97 98 89 96 89 86 89 81 71 68 69 77 71 79 91 74 78 87 76 66 68 76
5 4 3 2 2 7 32 36 37 40 35 41 56 38 43 43 44 44 70 98 97 97 96 91 92 90 87 82 92 87 84 83 84 77 70 69 81 82 79 88 92 93 90 89
5 4 3 2 2 4 15 30 34 36 40 48 55 57 43 51 51 44 44 86 97 96 99 97 93 88 89 83 88 89 86 90 84 81 79 73 87 93 96 92 83 91 92 96
6 4 4 3 3 3 10 23 25 40 42 47 63 76 70 57 49 52 47 48 97 99 97 98 96 91 93 88 87 88 89 86 82 82 79 76 86 91 99 98 98 98 96 96
6 5 4 3 3 4 8 17 22 46 59 54 68 68 66 67 49 41 48 46 81 98 100 99 100 94 96 92 87 83 81 84 82 76 85 77 84 90 91 91 92 94 92 90
8 7 5 4 3 4 8 15 35 58 67 66 58 73 73 69 50 38 38 45 47 93 100 100 99 100 98 93 87 74 72 72 77 77 76 82 80 81 82 82 85 88 88 91
9 7 5 4 3 4 10 21 50 56 64 56 56 91 100 84 46 31 36 39 43 82 94 97 100 97 99 94 84 75 78 78 71 69 69 76 84 87 88 89 86 79 77 84
10 8 6 5 3 4 11 31 56 62 57 70 78 85 96 96 61 43 42 40 42 62 96 92 93 96 99 97 81 73 73 76 76 72 71 72 75 78 80 82 83 83 78 76
10 10 7 5 3 4 10 40 52 56 56 71 82 82 75 83 87 81 52 42 40 57 89 91 87 96 95 87 66 70 66 70 70 71 70 70 72 76 81 83 81 80 81 80
11 11 7 5 4 3 8 41 58 61 57 68 66 72 75 68 75 80 85 89 89 67 72 84 91 94 79 72 73 73 73 73 74 76 76 76 79 80 81 82 83 96 94 85
13 11 10 7 5 4 10 41 57 56 70 61 62 62 64 67 73 88 89 98 99 100 80 84 89 64 62 66 70 72 74 78 78 70 71 78 93 100 98 100 100 100 100 100
14 11 12 8 5 6 29 60 56 62 70 62 53 51 60 66 88 88 94 96 99 99 96 99 97 71 57 57 64 68 68 68 70 70 83 99 100 100 100 100 100 100 100 100
14 11 12 7 5 20 42 62 67 62 67 51 48 47 60 70 98 100 100 95 96 95 100 99 88 65 61 61 62 65 73 75 79 79 81 99 100 100 100 100 100 100 100 98
15 11 10 6 10 19 50 68 56 39 40 46 60 57 53 74 94 96 93 96 97 95 97 93 79 75 67 69 69 77 77 80 81 83 87 92 96 100 98 100 100 100 100 100
9 12 9 7 15 33 49 41 37 39 38 47 64 60 59 60 96 94 98 97 96 97 95 88 82 86 84 80 89 88 88 87 88 91 93 92 92 93 94 93 78 60 56 75
6 11 8 8 16 29 43 49 46 49 47 43 63 55 53 82 97 96 98 97 96 94 97 93 90 96 100 99 97 96 96 91 91 94 96 92 93 95 94 92 89 83 73 57
6 11 10 10 12 22 48 49 46 48 48 46 66 61 82 95 96 96 96 97 98 100 98 96 96 96 97 97 99 98 97 97 96 97 94 93 95 89 77 62 50 50 49 23
8 11 12 14 15 26 30 36 44 46 43 65 64 67 86 89 96 97 96 96 96 97 97 97 96 95 94 98 97 96 97 97 97 96 95 95 76 59 22 15 12 12 8 7

GFSNW_700_rhum_090.txt.gz
RH
2 2 2 2 4 10 16 24 31 39 52 84 100 92 96 93 90 97 98 96 100 96 100 98 97 97 97 98 66 54 48 94 98 96 38 30 38 66 65 77 97 94 79 64
2 2 2 2 4 9 14 23 33 38 40 50 82 90 92 92 89 97 94 97 94 92 99 96 98 98 98 92 71 40 36 67 95 94 81 83 50 43 38 59 78 83 75 55
2 2 2 2 3 9 14 20 32 38 39 43 61 82 90 80 96 98 91 98 96 72 92 97 98 97 98 98 95 69 53 73 70 80 65 84 90 54 42 52 68 67 67 58
3 3 2 2 3 8 17 23 30 33 40 44 50 95 100 89 82 98 97 98 94 99 100 96 95 98 97 98 97 97 95 85 56 65 79 56 38 30 45 74 64 61 63 62
3 3 3 2 2 7 13 18 27 32 37 44 43 66 81 87 86 84 95 97 91 93 99 100 100 100 100 97 98 98 97 94 99 100 90 82 59 51 41 44 54 62 72 66
3 3 3 2 2 4 12 21 21 24 28 41 41 46 46 47 78 92 99 94 93 87 94 96 100 98 96 90 97 97 99 94 82 97 100 98 96 65 56 55 54 73 63 57
4 3 3 2 3 3 8 17 21 24 27 29 27 34 44 48 45 85 95 93 96 97 100 92 93 95 96 89 82 93 84 88 71 98 99 95 75 76 66 65 49 57 57 86
4 4 3 3 3 2 5 19 24 27 28 28 34 38 40 38 42 56 93 98 93 97 89 86 88 82 87 82 78 84 81 77 64 87 88 69 65 61 65 63 62 62 76 84
5 4 4 3 3 2 3 14 24 31 31 28 35 37 31 25 26 42 87 98 90 98 91 94 92 90 85 83 80 72 71 72 68 69 66 63 80 73 91 96 90 79 75 81
5 5 4 3 3 2 3 8 20 23 31 35 34 39 37 29 31 38 55 98 100 99 93 96 90 96 92 89 92 83 72 68 66 76 70 80 92 76 79 88 72 64 64 79
6 5 4 4 4 2 3 8 17 19 32 42 42 46 50 45 34 42 51 94 97 96 98 95 95 94 94 83 91 90 88 83 84 78 72 71 85 83 80 89 82 82 74 84
6 6 5 4 4 2 3 6 14 28 39 51 53 62 63 58 53 36 50 84 97 95 97 99 97 90 94 89 88 93 87 92 86 84 81 77 85 80 94 93 86 82 88 91
7 6 6 5 4 3 3 6 23 32 35 40 61 56 46 51 59 44 44 52 95 95 96 99 100 100 96 91 87 89 92 89 84 82 82 79 93 96 97 98 98 92 91 91
7 7 6 5 4 3 3 6 30 35 40 33 42 54 60 67 52 39 36 48 70 99 100 99 98 96 96 95 92 85 83 83 86 78 83 77 86 95 99 100 99 97 96 95
9 8 7 6 5 3 3 6 30 35 44 43 52 64 85 92 40 38 34 40 46 87 100 100 98 97 100 94 84 79 81 78 80 82 84 88 84 82 86 86 84 87 92 93
10 10 9 7 5 4 3 5 24 38 42 45 56 72 91 91 44 35 31 33 40 45 76 100 99 100 98 95 84 81 83 83 80 77 77 88 96 93 93 93 94 94 85 81
14 12 11 9 6 4 4 6 24 41 43 45 58 70 86 89 78 49 38 38 38 45 55 97 95 95 97 90 73 73 78 77 77 81 81 78 80 86 90 88 84 82 77 73
20 13 11 9 8 5 4 6 24 44 43 42 48 56 67 69 84 72 78 52 45 46 60 86 89 85 96 91 68 70 75 74 77 83 81 79 76 76 78 80 84 84 80 76
23 16 12 11 10 7 5 6 20 42 53 47 44 39 45 56 63 82 99 86 92 78 99 94 85 75 72 62 67 72 75 76 76 78 80 80 80 80 83 88 87 90 94 99
24 21 12 12 12 8 6 15 26 50 57 60 48 38 34 38 59 88 100 100 100 100 93 89 88 44 46 56 57 63 68 72 72 74 74 76 75 84 90 98 100 100 100 100
26 24 14 13 13 8 10 25 35 47 52 58 42 24 26 39 60 86 93 99 100 97 97 98 98 65 60 61 61 62 62 65 67 67 67 74 88 98 100 100 100 100 100 100
28 27 15 12 12 7 14 26 33 37 48 31 23 25 31 33 70 88 97 96 96 96 100 93 89 70 62 62 62 63 62 63 71 76 77 76 88 91 98 100 100 100 100 98
32 32 16 13 9 10 10 15 30 26 23 28 30 29 39 45 63 85 94 97 92 97 98 94 83 78 80 78 68 65 76 76 77 77 78 78 83 84 86 95 100 100 99 100
38 28 12 11 9 7 8 13 22 25 24 41 38 29 43 47 57 89 95 95 97 98 99 94 83 85 85 78 81 81 87 86 80 78 78 84 90 93 92 92 91 88 84 74
38 21 11 10 8 7 10 16 24 23 27 43 39 30 37 48 76 100 95 97 96 97 98 99 98 98 95 99 100 97 95 94 89 87 93 98 94 92 90 86 78 69 65 66
39 20 12 11 10 11 12 16 22 20 23 41 44 40 49 78 98 98 96 97 96 97 96 97 97 96 96 96 96 97 98 97 96 94 100 98 92 79 64 32 17 12 16 17
32 15 12 11 11 11 13 18 22 21 27 49 56 56 58 68 87 98 95 94 95 95 96 96 98 98 96 96 96 98 97 97 97 97 97 96 87 62 45 19 19 20 17 15

GFSNW_700_rhum_093.txt.gz
RH
2 2 2 2 2 5 9 17 23 39 39 53 72 84 89 91 96 98 97 99 100 99 98 98 98 98 98 95 45 48 80 99 92 77 65 82 94 80 72 79 97 94 79 67
2 3 2 2 2 4 9 16 23 34 37 36 46 80 92 86 85 88 96 99 99 95 98 99 97 98 98 94 46 34 43 80 88 85 73 87 82 60 61 68 81 84 73 61
3 3 2 2 2 3 8 17 25 32 33 38 45 66 80 81 81 95 88 98 100 94 99 98 97 98 98 94 59 48 44 65 72 66 49 53 81 58 50 51 62 63 66 61
3 3 2 2 2 3 6 13 20 29 33 38 43 50 66 78 79 84 91 96 95 97 92 87 95 100 98 97 92 71 56 40 54 70 68 94 50 35 35 42 44 51 51 49
4 3 3 3 2 3 6 12 16 22 20 28 34 39 44 44 75 82 94 80 86 86 100 97 98 98 98 98 97 96 93 97 77 63 97 88 85 59 32 32 39 39 45 43
4 4 3 3 3 2 4 9 13 18 22 22 22 31 41 44 43 86 87 89 79 96 89 95 100 99 99 97 98 96 96 86 94 97 98 97 93 77 61 44 43 37 36 38
4 4 4 3 3 2 3 9 16 18 25 24 28 34 35 34 34 44 95 86 86 89 98 91 93 96 97 90 91 97 97 98 81 97 96 98 79 77 64 45 35 36 37 39
5 4 4 3 3 2 3 8 14 18 21 26 32 32 33 32 24 30 70 85 82 82 87 86 88 82 88 86 85 92 95 92 71 86 90 72 70 75 78 62 49 46 53 52
5 5 4 4 4 3 3 6 14 20 26 35 38 37 35 34 25 34 69 77 84 85 85 94 90 95 91 86 84 79 75 78 75 68 71 66 90 81 99 99 89 76 68 72
6 6 5 4 4 3 2 5 16 22 24 32 42 44 44 42 35 34 50 97 99 96 92 96 94 99 91 88 93 84 75 73 71 79 72 85 95 85 98 87 83 70 75 73
7 7 5 4 5 3 2 5 15 20 19 26 33 47 53 52 49 44 43 96 93 94 97 100 100 100 97 83 92 91 90 87 86 79 73 73 92 90 84 94 87 73 69 85
9 7 6 5 5 4 2 3 11 19 22 26 35 32 28 23 29 44 39 82 94 95 96 99 100 100 99 92 92 97 92 94 89 87 82 76 85 87 100 94 89 90 90 92
9 8 6 6 6 4 3 3 8 18 26 36 43 49 50 31 30 42 35 49 89 96 94 99 100 98 97 95 87 86 93 93 88 81 81 79 85 90 90 96 84 90 98 91
10 9 7 6 6 5 4 3 6 14 28 36 49 53 53 25 24 24 28 37 52 91 97 97 99 100 100 94 90 82 84 81 84 84 84 81 88 96 91 96 96 96 96 96
11 11 8 7 7 6 5 3 6 9 26 33 45 52 58 50 26 25 25 30 40 51 93 94 98 99 99 93 80 82 83 80 77 84 86 87 87 96 95 94 92 90 92 95
13 12 10 9 8 8 6 4 6 7 24 30 41 51 59 60 54 32 28 28 31 42 46 84 95 98 100 99 80 80 85 85 84 83 80 87 93 92 90 91 90 94 98 92
15 14 13 14 9 9 7 5 4 7 23 32 37 43 50 51 59 61 54 40 35 34 42 45 66 89 97 91 76 74 76 78 80 82 85 83 84 92 97 98 95 93 92 88
18 17 15 21 12 11 9 6 4 6 20 33 37 37 34 33 37 49 58 66 56 46 47 48 76 98 98 88 70 71 72 75 74 78 86 86 82 79 78 81 82 84 88 88
20 22 27 23 13 12 12 8 6 8 20 34 42 41 31 28 29 45 72 80 88 88 85 82 82 95 93 73 72 71 74 80 81 82 80 81 82 82 83 84 86 92 95 98
29 33 38 21 15 13 13 9 8 15 18 33 44 30 13 16 24 62 86 96 96 96 95 100 100 87 51 56 66 70 73 73 82 84 76 75 76 79 82 91 98 100 100 100
42 49 43 22 17 15 13 7 12 17 22 36 22 11 14 19 23 54 88 90 95 97 95 98 99 100 89 84 85 82 77 72 71 74 72 75 78 80 95 100 100 100 100 100
52 58 36 25 21 16 7 10 12 13 22 16 12 16 16 17 26 55 92 93 96 93 97 97 100 95 95 89 88 85 85 79 72 74 76 75 77 83 88 90 97 99 100 99
59 52 36 30 20 11 7 8 11 13 12 13 13 23 21 20 39 47 91 98 86 97 98 97 100 100 98 98 98 90 90 91 86 80 79 76 78 83 86 90 90 86 76 67
67 58 36 23 14 10 8 8 9 12 13 13 14 21 20 19 32 54 87 91 97 97 96 99 100 99 100 100 98 98 100 100 94 86 84 85 89 90 91 92 92 90 88 88
59 50 30 19 16 10 7 9 10 10 11 11 12 17 22 20 46 78 95 96 98 97 96 97 98 94 96 96 97 97 98 98 99 97 95 96 93 92 90 72 51 21 13 15
54 52 26 15 12 10 11 12 10 10 12 14 16 27 28 48 80 93 90 97 95 89 91 94 95 94 92 90 95 96 96 97 97 97 98 96 95 96 74 53 21 18 17 13
50 51 53 40 25 15 13 11 10 11 14 18 27 33 35 60 71 76 87 87 65 49 52 68 84 90 94 94 96 96 96 96 96 97 97 97 96 94 65 49 26 24 24 20

GFSNW_700_rhum_096.txt.gz
RH
3 3 2 2 1 2 4 9 18 27 34 42 58 72 70 81 81 97 97 95 97 94 100 98 98 98 96 96 54 68 78 92 90 89 82 95 99 98 94 98 94 90 80 60
4 3 2 2 1 2 3 7 16 23 32 38 49 67 76 79 84 89 98 99 95 99 97 95 98 98 95 79 41 51 75 92 79 67 82 98 98 93 90 78 85 92 72 59
4 3 2 2 2 2 3 8 13 24 25 30 36 55 75 79 80 91 97 98 96 91 88 89 98 99 93 63 42 49 47 60 78 49 60 80 86 90 81 79 76 69 61 61
4 4 3 2 2 2 3 6 12 17 20 20 23 30 41 53 78 81 86 97 92 95 91 85 93 99 98 77 34 40 45 38 56 62 89 93 95 54 56 61 65 59 58 50
4 4 4 3 3 2 3 6 10 17 17 19 20 27 40 43 58 83 91 84 82 97 98 96 97 99 100 99 94 67 40 79 95 58 60 81 99 81 39 44 53 48 46 48
4 4 4 3 3 2 3 7 12 17 18 22 24 29 32 30 32 46 84 81 74 86 91 94 96 98 99 100 98 100 96 90 94 97 97 98 97 84 61 33 30 41 45 44
5 5 4 3 3 2 2 6 11 16 21 25 31 30 30 31 25 34 76 82 79 87 88 90 94 95 94 92 97 98 89 94 96 97 96 83 78 81 65 45 31 31 38 40
5 5 5 4 4 3 2 5 8 12 22 27 32 34 34 34 23 25 40 82 75 75 82 92 93 91 90 90 91 95 97 99 87 89 84 82 74 76 79 67 45 29 29 34
6 6 5 4 4 3 2 4 6 10 16 18 22 33 37 37 32 42 54 60 72 78 82 86 99 99 89 91 91 89 85 87 89 66 71 61 91 92 98 92 92 63 47 50
6 6 6 4 4 3 2 3 6 10 15 18 18 20 33 43 39 32 53 79 84 85 89 92 97 100 91 93 94 87 84 80 84 86 78 87 90 94 99 97 92 77 71 66
7 6 7 5 5 4 2 3 5 10 14 21 24 15 12 16 36 35 35 79 83 87 84 100 99 100 98 89 95 93 95 92 92 80 78 77 87 96 91 94 89 72 76 80
7 7 7 5 5 5 3 3 3 10 12 22 25 20 11 13 19 30 29 70 81 80 80 92 99 98 96 92 92 94 97 96 93 89 91 87 93 94 92 92 93 86 90 94
8 8 7 6 6 6 4 3 3 7 10 21 29 34 21 14 19 29 28 46 80 82 82 89 95 95 98 99 96 87 89 92 90 83 85 88 98 98 94 91 90 95 94 92
9 9 7 6 6 6 6 4 3 4 13 21 28 35 43 28 19 19 22 28 41 70 82 82 85 97 95 94 84 76 78 80 84 84 86 85 96 99 92 94 91 92 98 96
10 10 8 8 8 7 6 5 4 4 8 14 24 31 37 46 42 24 23 23 27 35 60 79 84 86 94 87 82 79 81 83 80 88 86 85 92 100 99 99 99 94 90 90
11 10 10 10 11 9 8 6 5 4 7 10 20 22 31 32 37 48 47 34 29 28 40 46 71 88 87 98 90 79 85 85 87 84 81 82 89 90 90 90 90 88 89 93
12 11 11 12 21 23 9 8 6 4 6 9 20 25 27 27 24 29 48 53 55 41 34 34 43 57 85 99 81 74 83 86 88 86 85 81 83 91 97 98 99 99 98 96
24 12 13 18 33 34 10 10 8 4 7 9 14 19 19 12 12 22 39 56 62 63 57 48 45 56 85 90 81 89 87 86 82 86 88 91 92 87 82 79 81 85 86 84
14 13 17 26 44 42 13 12 10 6 8 11 11 7 7 8 12 22 41 59 72 74 74 80 78 84 98 93 90 95 92 92 93 97 100 100 94 86 81 81 83 83 86 92
17 18 23 31 51 48 14 12 11 6 7 10 9 5 7 8 9 20 57 76 84 100 82 96 96 87 98 92 77 84 84 86 86 94 98 100 98 93 92 89 91 98 100 100
20 25 35 41 60 38 16 14 7 9 10 11 7 6 5 8 8 16 54 76 86 97 96 99 95 100 95 93 98 89 86 81 78 73 78 77 83 88 94 99 100 100 100 100
26 34 45 49 64 34 21 10 9 8 10 9 7 6 5 7 9 18 53 81 88 90 97 99 95 94 93 95 97 97 92 90 89 90 86 88 84 83 85 87 87 91 90 94
43 52 54 68 57 33 15 8 8 8 8 8 6 6 6 9 14 18 43 88 86 94 98 97 100 97 94 97 96 96 99 96 97 94 88 86 84 83 85 89 89 87 83 81
56 58 66 79 50 31 14 6 8 10 8 7 6 6 8 12 13 21 49 83 94 99 98 96 98 95 90 92 94 95 96 96 96 96 92 88 88 91 91 93 90 81 64 42
63 68 84 76 46 18 9 8 11 12 9 8 7 7 10 13 18 32 62 87 99 97 88 80 76 82 83 80 83 89 95 96 96 98 98 96 94 95 96 94 72 33 18 12
78 82 69 49 46 41 21 8 13 14 10 8 9 8 15 23 35 60 71 95 89 91 71 46 40 42 69 76 78 81 89 95 96 96 97 97 96 96 98 84 54 25 23 23
90 74 70 49 23 15 12 15 15 13 11 10 10 11 18 31 50 59 78 81 79 81 53 33 34 28 34 63 73 84 87 92 95 96 96 96 97 96 96 77 54 34 26 25

GFSNW_700_rhum_099.txt.gz
RH
3 3 3 2 2 2 2 4 8 12 20 32 57 78 77 80 92 99 94 98 92 94 99 97 98 97 100 87 76 69 91 93 76 85 81 94 97 96 96 98 78 79 85 61
4 4 3 2 2 2 2 4 9 13 20 30 60 71 78 77 80 90 100 98 89 94 93 99 99 91 88 57 77 82 77 88 73 70 82 85 95 96 95 90 90 92 85 56
8 4 4 3 2 2 2 4 7 11 15 22 33 56 62 73 75 82 99 94 91 87 99 99 100 97 71 34 91 77 78 76 72 55 67 81 85 88 91 86 94 76 56 58
9 4 4 3 3 2 2 5 7 10 12 15 21 31 41 48 76 76 87 100 90 86 98 100 99 98 94 40 32 46 68 76 65 71 87 91 86 81 88 74 75 91 58 59
5 10 4 4 3 2 2 4 6 12 15 17 22 28 34 35 42 76 89 88 88 92 98 100 99 99 99 96 59 36 35 76 96 91 65 74 80 85 68 72 75 66 57 62
10 4 5 4 3 2 2 3 5 12 15 20 24 28 28 28 24 39 79 80 74 96 93 99 96 94 98 98 97 78 74 74 96 97 93 100 88 81 73 61 52 52 58 56
28 6 5 4 3 3 2 3 5 9 11 18 26 31 28 28 23 26 66 78 76 84 83 90 92 90 86 93 97 97 88 85 97 97 99 90 79 66 63 61 56 47 47 54
26 9 6 4 4 3 2 2 5 8 10 14 20 29 31 29 20 22 40 76 73 78 84 96 99 94 89 83 92 96 97 98 97 97 76 77 67 67 75 67 46 36 34 39
32 6 18 6 4 3 2 2 4 7 10 12 12 25 29 29 28 34 48 56 69 77 82 92 94 88 87 88 96 90 82 89 100 84 68 58 96 74 78 80 74 52 41 34
35 6 7 5 4 4 2 2 4 7 9 10 9 9 15 29 26 27 37 68 79 78 95 99 98 88 86 89 91 98 95 93 86 88 74 86 88 87 93 97 96 78 60 41
40 6 6 5 5 4 3 3 4 6 8 10 11 9 8 10 27 26 33 72 77 80 80 99 99 100 100 90 92 94 97 89 78 77 69 75 92 94 96 93 87 72 69 72
39 6 6 6 5 5 3 3 4 5 6 12 14 14 10 11 12 27 32 69 72 72 70 81 92 100 100 96 97 87 97 91 98 91 96 82 96 97 87 94 86 83 89 87
22 7 6 6 6 5 4 3 3 6 6 10 14 20 16 12 16 18 22 51 70 70 72 77 79 84 88 98 93 91 98 88 88 85 87 89 95 96 93 94 96 95 94 97
7 7 7 6 6 6 5 4 3 5 6 9 16 18 29 26 16 15 18 23 33 57 74 76 80 84 77 94 84 72 87 82 96 90 88 88 89 94 89 96 100 92 98 96
7 7 7 7 7 7 6 5 4 4 6 8 12 16 20 26 34 34 26 20 20 27 37 64 80 80 92 80 74 80 86 94 96 98 95 96 92 95 98 93 96 96 98 95
8 8 8 8 8 8 7 10 6 4 6 8 11 10 13 10 14 24 38 43 40 30 25 37 48 71 85 96 100 90 84 91 93 89 92 91 96 95 94 93 94 94 94 94
8 8 8 9 10 12 16 28 9 4 5 7 9 9 7 5 6 14 22 37 45 49 43 35 35 42 62 91 92 90 78 81 88 91 88 90 88 96 99 99 98 99 100 100
9 8 9 11 13 23 31 38 11 7 7 8 7 7 6 5 6 11 17 32 46 56 58 60 55 55 66 89 100 95 98 92 90 90 89 91 93 96 95 91 86 85 86 87
9 9 10 14 19 35 41 44 13 11 10 11 8 4 5 5 5 9 16 38 50 59 65 73 76 88 96 90 94 100 96 96 90 89 96 100 98 100 96 88 83 82 87 94
9 9 18 22 30 46 45 47 27 14 10 8 9 4 5 6 5 9 22 46 56 90 79 86 99 100 87 94 88 71 83 87 81 76 83 93 97 96 93 92 79 86 89 92
12 25 27 17 39 49 58 44 23 13 11 10 9 6 5 6 6 8 24 43 61 98 96 100 95 100 83 92 90 85 83 74 68 69 72 68 62 70 75 85 96 95 99 99
34 32 27 29 50 62 68 41 29 10 10 11 8 6 5 5 6 8 23 48 67 87 95 98 95 79 71 85 93 88 90 92 90 79 83 91 87 81 84 85 87 86 82 81
42 24 38 48 53 69 61 37 24 10 8 8 7 6 6 6 8 8 16 46 88 84 98 100 100 84 87 86 87 86 85 86 91 95 94 90 87 84 82 78 82 85 84 82
42 50 47 56 64 68 56 49 40 12 9 8 8 7 7 7 8 10 23 58 80 98 99 95 88 86 81 77 74 73 70 74 78 81 89 95 96 88 84 84 84 85 76 62
58 52 55 62 66 55 52 50 27 10 12 11 9 9 9 9 10 16 30 59 93 98 96 81 69 54 44 41 48 61 68 67 71 78 84 92 95 98 94 92 92 86 62 24
52 67 66 75 79 75 42 37 21 14 14 13 11 9 8 12 14 27 37 66 73 70 77 76 74 69 36 26 27 32 49 59 66 73 82 92 91 96 96 95 98 88 50 25
89 77 70 84 84 81 83 57 42 19 15 13 11 9 11 14 22 35 43 41 35 57 73 76 56 27 21 16 16 22 29 59 72 77 79 90 92 94 95 96 96 92 50 31

GFSNW_700_rhum_102.txt.gz
RH
6 30 9 4 2 2 2 2 6 10 11 20 33 78 95 80 100 100 99 95 92 90 92 97 94 100 100 63 60 66 74 84 79 93 77 82 88 93 93 98 95 90 87 73
24 30 59 3 3 2 2 2 5 8 12 14 73 70 98 77 79 100 100 98 99 87 99 99 91 81 62 54 71 86 77 76 79 71 72 84 92 94 98 86 90 86 94 70
28 24 68 3 3 3 2 3 5 8 12 14 22 33 60 70 78 86 99 91 97 86 94 97 98 92 43 42 86 78 77 80 87 93 81 82 78 75 84 93 94 98 92 68
31 24 80 4 3 3 2 3 5 8 10 13 16 20 38 47 79 79 84 99 93 96 92 94 100 96 87 37 33 51 51 53 67 68 74 87 86 78 85 90 95 97 81 68
80 43 57 4 3 3 2 3 6 8 12 15 18 19 28 31 38 75 100 85 76 100 99 100 99 100 100 94 60 39 33 55 82 82 64 68 75 84 75 91 92 92 75 72
87 94 11 4 4 3 2 3 5 8 11 13 19 23 25 26 26 35 63 75 72 99 96 99 100 99 97 99 95 53 46 63 94 94 77 82 88 65 73 69 81 94 84 67
82 68 14 6 4 3 2 3 4 7 8 13 17 23 26 26 25 23 61 71 72 82 85 93 88 84 88 94 96 87 77 81 92 97 92 96 89 68 74 71 64 60 62 62
85 64 31 28 4 4 2 3 4 6 7 9 12 18 23 27 21 21 38 67 73 78 84 94 98 92 98 88 91 93 90 98 99 96 97 78 89 72 73 68 76 69 52 50
98 47 13 53 14 4 3 3 4 6 8 7 7 12 21 25 21 24 36 59 68 76 80 97 97 85 85 99 92 90 85 87 100 92 90 96 98 76 81 74 75 82 69 62
99 52 6 49 7 4 3 3 4 5 6 7 7 7 11 21 21 23 33 68 73 79 99 98 91 94 91 92 94 96 97 93 93 91 94 90 80 90 89 84 97 87 77 65
99 60 27 28 5 4 4 4 4 6 6 6 7 7 7 11 22 19 33 69 68 78 100 98 98 98 96 87 90 85 90 82 97 79 74 96 89 92 92 98 100 82 72 76
80 71 29 11 5 4 4 3 4 4 5 6 7 8 8 8 17 20 27 63 66 66 68 81 96 100 100 96 98 85 94 86 80 88 94 89 86 90 87 90 93 89 95 93
99 51 13 6 7 5 4 3 4 4 8 8 9 11 10 10 12 16 27 50 63 64 67 70 73 98 99 96 92 85 99 91 86 84 93 88 89 90 94 96 100 98 95 97
99 52 11 14 6 7 5 4 3 5 5 7 10 12 19 18 13 14 17 21 30 44 61 68 72 77 82 100 89 86 86 85 95 97 92 91 87 92 98 99 98 93 96 100
98 59 11 9 6 6 5 5 4 4 6 6 9 9 10 16 26 28 24 20 18 19 26 36 65 72 75 91 89 99 99 96 95 99 94 93 88 92 95 99 100 99 89 98
98 14 6 10 6 6 6 14 14 4 4 7 9 7 4 4 9 16 26 32 37 35 27 25 32 43 66 78 97 98 96 95 98 94 92 87 83 86 96 96 100 96 96 95
58 8 6 7 8 7 9 11 25 21 4 6 8 9 6 4 5 10 16 25 33 39 41 38 33 33 42 79 100 98 90 92 87 85 97 92 89 83 84 94 94 94 97 98
39 17 8 11 12 8 10 24 39 38 7 7 6 7 5 4 5 8 12 21 31 41 44 50 55 52 53 92 91 100 90 100 95 98 99 92 92 93 95 92 93 90 87 87
52 13 7 9 10 12 20 33 43 50 12 9 6 4 4 4 5 6 11 22 38 43 48 55 67 81 79 57 61 79 73 79 89 95 87 90 97 100 100 99 98 95 90 83
30 8 9 11 12 18 30 40 41 46 30 15 9 5 4 5 5 6 9 22 30 54 64 65 78 89 58 71 78 83 86 76 77 87 86 77 74 74 83 94 95 92 81 82
30 12 11 12 16 31 43 50 59 42 19 14 12 8 5 6 6 6 11 17 28 84 97 85 97 93 59 73 78 84 84 82 79 75 72 70 72 76 69 57 58 64 82 90
29 10 10 14 28 49 54 70 60 44 17 12 12 8 6 6 6 6 15 20 30 82 87 90 93 60 69 75 77 78 78 77 77 82 87 89 90 85 89 79 73 74 76 78
26 9 13 26 46 51 65 63 50 53 18 10 11 8 7 7 7 7 9 18 55 60 95 84 83 67 71 73 74 75 72 70 67 68 72 77 87 93 91 90 83 75 73 77
10 13 39 60 62 57 61 66 69 58 24 9 8 7 8 7 7 7 13 34 44 97 100 99 57 74 74 68 59 51 46 46 52 61 63 68 78 90 92 94 93 84 80 80
31 52 57 60 61 58 59 58 72 66 27 9 9 10 10 9 8 8 13 25 63 79 82 52 71 69 67 62 65 60 50 32 28 34 49 60 70 79 97 99 96 98 90 88
68 71 65 62 61 61 80 90 86 51 12 12 13 12 10 9 9 10 13 22 24 37 40 52 64 70 74 72 44 20 17 13 13 21 27 54 67 74 92 100 97 96 96 97
88 84 64 61 57 58 64 79 65 44 28 13 15 12 10 12 12 14 15 14 19 25 21 26 49 46 34 21 16 16 16 14 12 17 27 39 76 81 86 97 98 96 97 97

GFSNW_700_rhum_105.txt.gz
RH
100 46 4 28 36 3 3 3 6 9 11 14 19 34 68 68 95 100 97 94 90 89 96 96 100 100 87 45 61 67 84 85 84 74 69 75 92 86 84 82 98 96 92 75
100 36 8 33 15 3 3 3 5 9 11 12 17 42 54 67 84 99 99 98 99 100 100 99 98 48 48 40 49 72 86 85 82 72 67 75 77 92 89 83 85 97 96 75
100 68 21 48 6 3 3 3 5 8 11 14 15 28 50 41 73 88 100 97 99 89 94 100 98 76 39 38 38 59 68 76 79 86 85 83 80 87 86 87 97 98 98 85
100 70 26 59 8 3 3 4 5 7 10 13 14 18 32 36 52 80 87 98 100 100 91 95 99 99 73 31 37 41 45 48 63 63 68 80 89 83 87 91 96 91 89 85
100 99 37 55 8 3 3 4 5 6 11 12 15 18 29 27 34 74 100 92 81 100 96 99 97 100 98 97 62 33 34 38 52 70 47 70 72 84 84 87 96 80 85 88
100 83 54 86 4 3 3 3 4 7 12 12 16 20 24 22 23 42 56 76 74 87 99 100 99 96 97 99 93 43 40 72 92 96 79 72 78 87 77 83 96 95 97 94
100 98 99 57 4 3 3 3 5 7 10 10 14 21 23 22 24 24 55 71 69 82 92 96 91 84 90 96 90 72 71 77 93 97 92 96 97 90 73 88 93 96 95 98
100 99 96 38 4 3 2 4 6 6 8 7 11 15 20 22 20 20 45 71 72 78 89 96 89 94 90 95 92 97 94 97 96 97 97 96 96 85 84 79 82 93 90 94
99 97 81 63 27 4 3 4 6 6 7 6 7 12 14 20 17 23 37 66 70 78 80 94 97 80 93 92 96 91 95 90 86 88 97 96 98 92 91 86 91 88 81 61
99 98 95 44 41 9 3 4 6 6 5 5 6 7 11 16 18 26 40 61 77 78 84 90 87 92 92 91 96 96 96 100 95 91 95 97 96 98 99 90 97 84 78 77
99 99 45 54 43 11 3 4 6 6 5 4 5 5 7 13 14 20 42 67 68 74 86 97 98 94 91 87 92 90 95 87 96 90 86 91 79 88 88 95 99 90 79 71
99 89 37 56 21 4 4 5 5 6 5 4 5 6 6 8 16 22 30 55 61 62 62 78 97 100 98 99 97 93 96 89 89 92 92 89 88 90 94 96 100 96 92 96
99 98 88 38 23 5 4 5 6 7 7 6 5 6 7 9 13 20 40 53 56 58 60 61 67 100 100 93 89 87 96 95 95 98 98 95 92 100 100 100 100 100 94 100
99 99 95 30 30 5 4 6 7 8 6 7 7 9 10 10 12 15 19 26 38 50 51 57 61 74 83 100 87 83 88 89 98 96 100 96 98 99 98 98 99 100 95 97
99 98 73 18 36 11 6 6 5 7 8 6 5 4 7 14 20 18 16 16 15 16 20 24 46 64 76 88 94 97 100 96 93 98 96 92 89 95 98 97 99 98 100 98
99 98 49 46 18 10 10 9 8 4 5 7 6 4 3 6 10 17 26 28 31 30 26 21 22 28 56 85 99 99 98 95 95 93 98 93 85 88 88 95 94 96 97 98
99 98 57 54 8 6 16 14 18 13 6 6 6 7 4 4 6 8 14 21 25 30 34 36 32 29 33 42 81 70 100 99 94 85 83 87 89 88 90 92 93 96 95 96
99 97 30 51 14 7 12 15 24 23 14 8 6 7 6 4 4 7 10 16 21 29 32 37 42 42 42 38 43 56 78 75 80 94 90 85 82 81 84 89 93 91 92 87
98 80 11 14 41 8 10 14 28 40 34 9 6 5 4 6 5 5 8 13 23 28 36 43 46 45 40 47 56 63 72 70 72 84 90 94 88 84 83 84 90 97 97 95
97 43 10 18 74 16 11 19 36 40 36 40 19 10 4 5 5 5 7 16 23 32 43 46 54 43 45 53 67 72 78 80 77 71 72 79 85 80 74 78 84 87 92 93
92 36 20 23 60 13 17 38 65 61 44 40 39 26 8 6 6 6 7 11 16 49 70 59 81 38 44 56 65 71 77 78 76 76 78 81 80 78 78 75 75 82 80 70
84 50 15 10 14 23 38 59 72 64 39 25 19 20 10 6 6 6 10 12 17 59 73 86 74 37 45 55 61 70 75 73 70 68 67 66 69 72 79 85 87 92 92 92
90 17 20 20 22 44 51 64 65 61 49 22 16 14 8 7 7 7 8 8 27 38 76 68 47 45 54 61 66 67 61 57 52 49 49 51 57 61 66 80 89 95 96 92
55 31 28 26 29 43 54 56 56 62 71 38 11 12 8 8 8 8 8 22 25 79 89 50 33 38 44 53 55 56 57 61 62 52 35 25 29 38 54 69 79 95 96 96
51 40 30 36 49 51 54 55 57 67 84 27 10 8 9 9 9 9 11 13 19 29 25 28 31 40 45 50 58 65 67 49 17 14 15 12 13 21 35 60 70 84 100 99
51 48 42 37 48 58 55 72 75 80 71 14 9 10 12 11 11 11 10 11 10 18 22 28 29 36 42 37 32 22 15 13 13 15 15 13 12 20 27 53 83 88 100 99
63 52 59 54 52 58 70 94 96 89 74 36 12 14 15 14 12 10 9 10 13 16 16 15 16 17 16 16 15 13 12 12 15 17 22 24 29 27 34 59 90 96 98 96

GFSNW_700_rhum_108.txt.gz
RH
99 99 99 73 15 43 27 3 4 13 12 16 35 44 56 69 100 96 93 91 91 90 100 93 100 77 65 52 64 78 85 88 86 87 81 87 82 74 75 75 94 93 100 73
99 98 97 30 51 44 7 3 4 14 11 15 34 40 50 72 89 95 99 93 96 100 97 99 84 43 35 40 47 63 78 74 80 75 74 72 81 85 84 82 79 96 98 82
99 99 98 14 36 28 3 4 6 10 10 16 21 24 41 54 78 68 100 99 100 93 91 100 100 40 39 33 38 50 65 68 74 84 86 94 84 98 97 86 86 96 97 98
99 99 87 26 57 12 3 4 6 6 10 16 17 18 34 38 61 67 81 100 100 100 88 96 100 99 45 32 38 39 39 53 59 63 67 78 89 82 93 84 92 95 95 94
99 99 98 63 69 26 3 4 6 7 12 15 15 17 25 30 38 57 70 92 85 100 94 93 98 100 94 98 46 28 28 35 76 94 53 70 75 85 89 91 93 92 99 98
99 99 99 39 66 12 3 3 5 8 14 13 14 18 22 22 23 38 56 76 78 98 100 100 96 97 100 100 72 34 50 70 92 95 75 74 82 88 80 82 94 94 97 97
99 99 100 95 75 24 3 3 6 9 13 12 16 19 23 23 22 27 59 71 77 89 95 88 88 87 93 95 70 63 75 92 100 100 97 93 98 85 75 78 96 95 94 98
98 99 99 95 47 4 3 4 7 9 10 11 15 16 21 21 21 22 56 69 78 88 98 92 90 94 91 94 92 91 84 100 97 98 98 94 90 96 94 91 96 96 95 85
98 99 98 92 4 4 3 5 7 8 10 10 9 14 18 20 16 22 51 63 73 88 98 96 93 86 95 94 98 95 98 96 99 96 98 95 99 99 95 93 96 93 81 87
99 99 98 56 11 4 4 6 7 9 8 7 8 11 16 14 15 22 43 59 70 83 91 91 91 87 94 89 95 99 100 100 99 97 100 96 95 97 96 93 88 89 86 80
98 98 97 78 22 5 5 7 8 8 7 6 6 7 13 13 14 20 35 62 74 75 79 87 86 88 86 94 92 92 94 91 97 94 94 97 89 95 95 95 91 82 79 74
99 98 98 81 32 9 6 7 9 9 7 5 6 5 8 11 12 18 40 54 56 57 60 68 89 82 84 85 96 91 94 89 94 93 97 95 96 100 99 94 83 84 85 95
98 99 97 67 30 5 8 9 10 8 7 5 5 5 8 10 13 19 35 54 60 55 56 57 62 84 82 89 92 87 91 93 96 95 99 90 89 99 99 100 100 96 98 98
98 98 96 82 20 7 11 10 10 10 11 6 6 6 8 9 12 21 28 41 49 54 55 56 57 62 67 80 79 78 88 88 100 98 98 81 86 89 87 93 98 100 100 97
99 98 97 88 24 8 12 12 14 13 11 7 5 6 8 10 11 12 13 14 17 17 24 31 48 56 66 64 71 72 83 83 87 96 96 91 86 89 86 82 81 86 100 96
97 98 98 90 26 8 12 14 11 12 11 9 5 5 5 7 11 15 18 21 23 22 21 18 19 25 59 90 89 67 67 77 84 89 90 87 86 88 89 83 85 92 95 92
98 98 96 93 40 11 12 11 16 9 10 9 6 4 3 4 5 8 14 17 22 26 29 30 27 25 28 40 50 37 68 87 81 86 82 75 76 87 92 92 90 90 94 92
98 98 83 89 80 17 17 14 19 10 11 9 7 6 5 3 4 6 8 12 16 20 26 30 33 35 36 34 34 40 41 47 53 72 56 66 83 88 89 90 89 97 98 97
98 98 94 94 70 30 58 32 17 14 22 13 8 6 6 5 4 4 6 9 16 20 25 32 36 39 33 35 39 46 54 60 63 61 61 68 80 85 87 83 82 85 89 99
98 98 96 94 29 20 19 50 20 20 28 34 20 9 5 6 5 5 6 9 16 22 29 30 34 22 24 36 42 49 59 65 70 74 76 70 68 73 84 85 84 79 76 87
98 96 94 91 60 16 31 18 23 40 51 46 43 37 16 8 7 6 6 10 12 18 36 36 34 17 15 29 45 52 62 70 69 71 70 70 69 76 79 82 82 82 83 81
98 94 68 69 86 58 14 22 44 63 60 49 43 42 34 16 8 7 8 10 15 40 44 46 32 18 17 30 47 56 60 63 62 60 58 57 56 55 56 62 66 70 85 93
98 59 29 71 89 34 20 39 57 72 61 43 36 32 28 16 7 7 8 9 18 28 59 52 23 25 20 27 34 38 41 40 41 45 50 54 52 45 41 36 38 49 64 74
92 51 54 70 65 34 31 33 35 78 61 32 20 21 16 8 8 9 8 15 20 38 58 23 20 25 24 25 28 35 38 40 43 38 22 12 10 13 14 12 13 19 39 61
90 76 41 34 28 29 32 36 41 80 66 57 16 15 9 8 9 9 10 14 17 20 14 15 16 17 17 19 23 26 25 17 12 10 9 10 11 14 15 14 12 20 27 55
84 73 46 42 37 32 37 41 50 87 68 72 18 11 9 9 12 11 10 13 9 11 13 15 14 11 10 12 12 13 14 13 12 11 10 11 13 16 20 26 26 27 44 83
93 70 44 38 40 42 47 56 92 89 77 52 11 10 13 14 14 13 12 11 12 14 14 12 10 10 11 12 12 13 14 14 13 12 16 17 19 20 21 30 48 52 50 69

GFSNW_700_rhum_111.txt.gz
RH
54 85 98 99 99 46 79 39 8 20 19 24 28 45 56 67 100 100 88 93 84 90 99 96 62 53 31 48 65 87 89 89 92 95 94 92 84 90 87 71 91 97 94 83
78 98 98 99 97 19 32 13 8 21 17 23 27 44 54 83 100 100 88 94 91 99 98 99 45 31 30 39 56 70 77 73 77 73 78 80 93 96 87 80 88 100 93 91
83 98 99 99 89 21 53 6 11 15 16 21 24 27 46 77 88 92 94 93 100 100 95 99 88 33 29 32 39 53 56 70 76 87 88 90 90 88 85 88 83 95 97 98
99 99 99 99 26 46 39 4 6 9 12 17 17 22 45 50 72 73 73 84 99 100 97 98 98 85 26 29 35 41 40 57 80 66 70 87 88 84 87 93 92 90 98 97
98 99 99 75 46 76 6 6 9 9 11 15 15 18 32 36 54 63 66 65 86 100 95 92 98 100 82 52 26 24 40 68 84 64 68 76 86 83 83 86 86 94 99 98
99 98 99 91 88 28 10 6 8 10 13 14 14 17 22 26 39 57 60 62 70 100 100 100 100 100 99 65 41 45 58 75 87 91 73 78 90 98 78 72 84 89 95 99
98 98 98 99 83 91 25 7 11 11 15 14 15 20 23 20 24 41 60 61 66 82 88 95 97 98 84 63 61 73 90 100 99 97 96 92 96 86 82 82 88 92 88 83
98 97 99 96 77 72 11 7 12 13 13 13 14 22 23 19 21 41 62 60 71 83 85 91 94 99 96 93 91 90 98 99 96 97 100 94 93 95 90 85 86 92 87 83
98 98 99 99 89 80 13 8 11 13 12 11 12 18 20 20 20 40 58 61 72 83 91 94 97 87 95 94 99 99 100 100 97 95 95 93 94 99 97 91 92 84 78 88
97 97 98 98 80 92 8 10 11 13 10 9 10 14 17 17 19 34 54 60 72 84 92 95 92 86 94 90 94 98 98 100 100 100 96 95 98 90 88 92 94 99 94 78
79 98 98 98 57 14 8 11 11 12 8 7 8 11 16 16 17 28 48 62 74 82 85 83 79 84 88 93 89 89 88 90 88 92 92 92 86 94 97 99 92 83 84 80
97 98 98 53 17 6 9 10 11 8 7 8 7 10 15 16 19 25 37 48 54 60 63 61 66 74 79 84 86 88 83 84 88 89 91 88 83 94 90 84 76 83 82 88
97 97 98 43 12 7 10 10 12 10 8 7 6 8 12 12 16 23 44 46 49 52 54 53 58 61 70 78 83 83 89 84 90 83 94 91 91 99 94 84 95 90 99 93
96 97 98 77 36 7 14 11 11 10 11 8 6 8 10 12 15 20 33 50 50 50 52 53 52 53 56 75 70 72 72 78 89 82 92 86 92 88 96 91 99 89 86 96
96 97 98 75 19 9 15 12 14 15 14 10 7 8 10 11 14 20 23 30 33 44 46 44 48 48 54 59 62 60 63 64 75 84 79 85 89 85 86 88 93 92 94 93
97 97 98 88 16 10 13 15 14 15 13 11 8 9 8 10 10 12 12 13 13 14 15 17 16 18 42 54 58 53 59 65 66 74 78 81 82 80 79 78 80 83 93 100
98 98 97 96 42 11 14 16 15 16 14 12 7 7 6 8 11 13 14 17 19 21 21 22 22 20 21 24 21 25 42 60 72 74 75 78 76 70 75 83 84 82 85 96
98 98 97 97 73 14 14 15 19 15 14 12 8 6 4 4 5 8 10 13 14 18 23 22 23 24 25 24 23 24 28 32 36 35 55 66 57 53 73 82 82 83 86 90
100 98 98 98 83 24 15 18 19 19 18 14 8 7 6 4 4 5 6 9 12 14 19 23 24 27 22 20 24 27 32 38 48 52 54 54 53 62 76 80 86 86 88 82
98 97 98 97 88 32 20 28 28 23 19 19 19 12 6 6 5 4 5 7 11 18 21 22 27 15 18 18 24 29 33 41 53 58 61 64 66 65 66 65 66 72 82 87
98 97 98 96 96 85 46 50 42 27 22 22 29 27 12 10 9 6 6 9 10 14 25 30 25 12 11 11 18 25 32 40 51 58 60 65 65 65 64 63 63 65 71 77
96 99 99 96 96 73 67 49 43 28 29 42 41 38 39 25 8 7 7 8 11 23 32 29 14 12 11 9 12 19 26 31 38 43 42 39 38 44 48 50 50 49 47 50
98 96 96 93 91 57 37 43 38 31 46 38 41 48 38 32 21 10 7 8 13 22 29 23 14 15 9 9 11 13 16 20 19 18 17 18 18 19 13 9 10 12 14 14
96 95 95 92 84 80 53 41 38 33 36 56 50 42 41 32 22 8 7 11 14 25 36 15 14 15 11 11 12 12 14 16 14 10 9 8 7 8 9 10 11 13 16 18
96 93 85 80 79 71 60 27 27 30 66 44 32 32 31 22 8 9 10 14 16 16 12 12 14 14 13 12 11 10 10 10 9 8 7 7 8 9 10 13 15 19 23 28
94 94 63 66 60 43 35 27 31 31 56 58 28 24 10 8 8 10 10 14 12 12 10 12 14 14 11 10 10 11 10 9 8 8 8 9 9 10 12 15 18 19 20 28
94 89 58 48 45 33 35 32 40 57 69 68 24 14 9 10 10 13 12 12 14 13 13 16 14 11 12 13 14 10 9 9 10 11 11 12 13 14 17 20 24 25 29 49

GFSNW_700_rhum_114.txt.gz
RH
98 94 98 98 69 98 96 95 96 55 27 35 42 51 68 88 100 85 91 94 88 94 99 87 37 33 38 48 73 80 78 83 94 90 91 95 97 100 94 77 94 100 84 94
88 49 41 94 98 98 97 88 59 33 33 28 31 51 70 86 100 95 97 96 95 95 97 96 35 29 35 42 63 66 70 67 70 72 77 86 94 99 94 91 84 100 89 97
83 76 89 98 98 97 86 34 25 30 30 26 35 45 61 82 87 99 100 89 96 98 96 100 43 26 29 32 42 48 53 64 78 86 95 92 92 92 85 74 81 98 99 100
100 94 97 99 92 80 48 27 15 19 18 20 29 51 52 64 60 77 100 82 97 97 95 100 100 41 32 31 36 34 50 88 77 66 85 87 88 92 84 75 89 90 100 100
95 99 98 99 86 51 30 26 15 12 14 20 25 36 42 42 59 70 75 78 80 100 91 97 97 98 77 53 29 28 69 89 72 71 78 83 86 83 86 93 90 98 94 94
97 98 98 98 89 91 25 18 14 15 17 17 23 25 29 31 56 66 70 76 74 93 99 100 99 100 86 46 42 58 75 84 84 87 76 90 78 85 76 95 99 98 89 90
90 96 98 98 94 62 20 17 17 17 20 20 20 22 21 24 46 60 65 66 78 73 75 89 98 100 90 62 73 75 81 86 92 95 93 92 97 94 90 89 93 92 93 87
86 99 100 98 96 76 17 16 16 18 20 20 20 21 19 17 30 49 61 68 76 80 78 88 94 94 97 100 100 98 100 96 91 95 99 99 97 99 93 95 100 98 91 84
90 98 96 93 98 88 20 11 17 18 20 19 17 21 18 17 24 48 59 70 78 81 89 91 98 87 88 90 99 100 100 100 96 90 92 92 89 98 93 90 93 99 94 87
90 98 95 99 94 72 52 9 16 17 18 17 18 19 17 16 22 44 58 66 78 80 78 85 88 84 87 87 91 98 99 99 98 98 94 93 91 91 98 89 90 77 74 81
87 94 97 99 99 88 70 10 16 17 16 13 13 15 16 15 20 34 51 63 71 77 84 81 76 78 80 84 82 86 90 92 85 94 87 88 85 95 96 99 100 91 81 82
90 95 96 94 99 92 45 12 16 16 13 13 12 12 14 14 19 34 46 53 55 63 68 62 68 64 71 73 76 74 78 79 82 82 84 83 83 84 92 98 88 100 96 93
91 97 97 95 98 74 12 14 17 14 12 10 9 9 12 13 18 26 39 51 56 56 57 58 57 56 59 67 68 70 69 74 75 71 83 84 80 75 73 82 96 100 100 98
99 100 97 94 90 13 9 16 16 14 12 13 7 8 11 13 17 22 39 52 51 56 56 54 54 51 51 61 62 56 63 68 70 68 72 76 75 73 85 81 80 87 88 76
97 100 96 57 60 10 12 15 16 11 18 11 7 7 10 11 14 21 30 42 47 48 53 50 48 47 50 48 53 47 48 51 59 62 66 75 72 81 82 76 74 76 76 87
95 100 98 91 61 53 13 15 14 15 16 13 7 8 8 10 13 20 24 25 22 30 32 23 21 17 28 36 38 32 41 48 50 55 66 72 78 79 76 70 70 72 78 82
100 100 98 96 92 33 15 17 14 18 17 14 10 9 7 8 9 10 11 12 13 14 16 16 18 17 17 15 13 16 23 38 48 53 57 64 72 72 67 66 71 76 77 77
99 98 98 97 93 20 18 19 18 15 20 17 10 7 6 6 8 12 12 14 15 18 20 17 18 20 19 12 12 15 19 21 28 35 32 34 44 45 41 39 54 71 76 79
98 98 98 98 98 52 24 20 20 19 22 20 11 9 6 5 5 6 9 9 13 14 14 17 17 17 11 10 10 13 18 23 29 34 40 44 47 51 54 54 54 59 67 72
96 98 98 97 100 94 66 27 20 21 28 24 10 9 6 6 4 4 6 7 8 12 14 14 16 9 9 11 10 11 14 19 26 32 38 46 52 55 58 60 60 61 62 64
97 97 98 97 98 98 85 28 28 32 28 23 13 14 15 9 8 5 5 8 9 11 18 21 19 11 10 8 11 11 13 17 22 29 35 43 50 51 51 48 46 46 48 48
95 97 97 98 98 96 69 42 33 34 29 24 18 17 24 17 10 8 7 7 9 15 21 21 15 10 12 11 10 11 13 16 19 23 26 25 23 19 19 21 22 18 13 10
97 98 97 96 96 97 86 65 43 40 34 27 24 26 28 29 24 10 7 7 10 16 22 19 13 12 13 12 8 10 12 13 13 13 13 12 11 10 8 8 8 8 8 10
97 97 96 95 91 78 72 67 57 44 37 39 28 36 37 33 31 18 10 10 12 14 20 12 14 13 14 8 8 10 12 13 13 12 11 10 9 8 8 8 8 8 11 16
97 96 95 87 86 73 69 59 58 56 51 47 50 41 46 38 28 26 11 11 13 12 11 11 12 14 12 10 12 13 13 12 12 12 9 9 8 8 8 9 11 12 13 15
96 95 91 80 79 80 68 60 51 44 43 42 52 48 36 32 20 11 10 13 12 14 15 12 12 12 14 16 15 16 17 17 13 10 9 9 9 9 10 13 16 20 25 35
95 93 83 81 74 76 65 59 47 39 41 50 38 33 20 17 17 10 10 11 14 15 13 11 13 20 20 17 18 21 21 14 10 9 9 9 13 15 15 17 25 41 56 67

GFSNW_700_rhum_120.txt.gz
RH
44 32 17 19 30 56 85 96 96 96 56 37 59 73 84 92 95 93 92 89 84 65 39 30 36 46 56 50 61 65 69 76 77 66 95 97 98 94 98 94 90 96 96 98
63 59 60 64 71 82 90 94 92 88 33 55 66 75 85 98 98 99 98 95 90 83 61 50 29 36 38 37 42 52 67 79 78 68 74 88 100 100 82 89 94 100 90 97
83 80 64 58 69 80 80 50 26 50 36 45 62 78 85 100 100 100 95 94 95 83 74 47 26 26 30 36 42 54 66 78 91 85 97 100 99 100 98 90 94 98 98 97
88 83 78 74 64 48 14 10 16 22 31 40 57 73 85 88 77 75 89 92 91 92 95 79 37 26 28 33 49 57 64 76 83 86 96 100 100 96 96 90 88 96 100 99
87 88 80 80 75 48 20 9 11 13 17 27 52 59 76 72 65 66 76 84 79 85 90 77 60 36 32 35 54 68 65 69 70 83 85 91 99 96 94 98 95 96 97 99
94 97 89 87 74 67 11 8 9 13 16 24 42 47 57 66 68 67 67 79 75 84 95 78 54 50 48 58 66 72 72 69 77 76 74 70 81 96 97 98 97 92 96 98
98 98 88 76 89 69 10 7 7 11 15 19 31 32 38 58 63 63 63 71 74 76 72 80 66 69 66 63 67 71 74 75 78 88 68 74 96 89 97 99 99 99 94 92
97 100 100 82 83 60 22 9 7 11 14 15 19 22 28 43 59 59 64 68 64 68 72 94 98 92 85 75 58 69 75 72 86 87 86 87 89 88 91 90 98 99 97 91
85 100 100 99 92 64 59 43 15 10 12 16 15 17 20 31 48 58 60 66 64 71 76 91 92 88 71 80 74 63 70 75 94 81 80 69 96 86 85 84 99 93 90 89
85 98 100 100 100 88 82 65 48 8 10 12 13 14 16 21 34 47 55 61 68 70 77 77 80 83 70 79 73 67 66 66 89 82 82 74 71 79 82 84 94 99 86 76
76 90 98 100 100 100 90 78 80 16 10 9 9 12 16 16 22 35 47 57 60 67 70 66 66 65 60 62 63 65 63 74 70 78 86 76 67 71 89 84 97 93 77 69
59 85 89 99 100 100 97 96 94 59 11 10 8 11 12 15 19 30 45 46 47 54 58 54 56 57 55 56 72 55 62 57 70 62 64 58 64 60 56 63 81 90 96 85
21 74 87 90 99 100 100 100 100 61 13 10 8 7 11 13 16 22 36 46 50 48 52 57 53 51 49 52 47 50 47 49 52 52 47 54 60 60 53 46 45 49 56 63
22 36 89 87 89 98 99 100 98 42 16 14 9 6 9 11 13 19 29 44 46 51 53 50 49 47 47 43 41 44 42 44 44 41 41 43 46 49 50 49 53 54 51 50
20 24 74 97 90 95 96 99 75 20 19 15 12 7 8 9 12 16 26 30 45 48 52 48 46 42 44 35 34 22 22 25 32 34 34 35 37 44 42 45 55 54 54 52
20 26 48 96 96 94 92 97 73 25 25 19 17 8 8 9 11 14 20 26 37 45 46 43 41 34 34 22 14 6 9 16 23 29 34 34 35 38 40 45 48 49 48 44
22 28 35 98 94 95 91 86 41 22 29 29 18 9 7 8 9 13 18 24 34 37 40 33 27 21 18 15 7 6 6 8 13 21 28 29 34 34 36 39 38 33 27 24
25 30 37 86 98 93 95 90 28 35 30 34 24 11 8 8 9 12 14 19 24 26 24 14 12 14 14 10 6 6 5 6 7 9 12 16 19 19 20 22 24 28 30 33
28 34 40 61 99 96 92 96 77 50 41 44 31 13 7 9 8 10 13 15 18 13 12 12 13 14 11 7 7 6 6 6 8 8 9 12 14 16 19 23 26 28 28 30
31 40 50 74 80 96 99 97 96 89 52 45 32 18 10 6 9 10 11 13 14 17 11 12 13 7 6 7 8 8 8 7 7 7 9 12 14 15 17 20 19 21 19 16
49 52 59 81 78 97 98 96 95 88 64 46 36 24 18 12 11 12 12 12 11 10 10 12 13 7 8 8 7 8 8 8 8 9 10 14 16 17 18 17 16 16 16 14
53 81 86 97 100 98 96 97 91 75 58 44 29 27 20 17 10 14 14 8 8 10 12 12 9 10 12 10 9 10 10 9 10 10 12 14 16 17 17 18 17 16 14 12
91 100 100 98 97 97 95 89 74 69 51 43 33 22 25 21 14 11 8 6 7 10 12 10 9 10 12 13 14 12 10 11 12 12 13 15 17 19 19 20 19 16 12 10
100 98 97 95 95 76 67 60 59 59 60 56 44 25 26 24 17 13 9 10 10 11 12 10 14 18 19 18 15 12 13 14 11 11 16 19 20 21 23 20 15 11 8 8
98 99 94 90 71 75 62 64 71 68 65 58 53 29 28 24 18 17 16 21 15 12 14 23 29 25 16 15 15 14 14 10 10 18 21 22 23 23 19 14 10 8 9 10
98 96 91 78 74 68 73 81 76 72 69 67 52 49 41 27 19 24 22 24 26 29 32 31 29 28 24 18 17 15 10 12 20 24 24 25 25 20 14 9 8 9 10 13
99 96 85 78 78 66 70 80 77 73 70 78 69 54 43 30 27 25 29 28 30 32 32 32 24 25 28 27 21 12 13 22 27 27 27 25 20 13 8 7 8 10 13 16

GFSNW_700_rhum_123.txt.gz
RH
94 83 74 74 81 80 79 85 77 72 34 26 35 98 68 77 93 90 91 99 99 88 74 32 40 54 46 46 49 89 100 95 98 88 94 97 98 98 100 96 94 98 97 97
100 100 100 100 94 78 62 32 41 62 18 32 63 62 77 91 98 97 99 99 99 94 87 80 32 36 35 37 49 59 83 85 84 77 73 80 95 98 97 98 97 100 88 96
100 98 78 76 49 22 22 16 15 19 20 23 63 96 98 93 87 96 89 86 96 90 85 32 65 68 30 42 54 59 67 86 83 85 98 98 98 98 97 88 98 96 98 97
98 100 76 39 22 18 11 12 11 13 18 22 30 50 90 98 93 74 76 87 98 97 88 80 80 46 34 35 58 59 64 84 86 91 99 99 100 99 93 97 97 96 98 98
100 100 86 70 35 13 11 9 11 12 14 17 28 44 58 87 70 72 71 80 74 91 89 78 51 30 43 56 63 65 65 80 86 76 86 93 97 89 96 82 92 99 98 98
99 100 100 82 81 47 12 9 10 11 13 18 31 35 42 53 62 64 61 59 76 92 55 45 28 38 53 63 62 64 69 76 82 83 76 76 76 99 100 99 100 100 99 100
72 90 100 100 95 64 12 12 13 12 13 16 21 21 35 46 56 58 55 57 63 62 48 40 49 51 54 56 62 61 66 89 88 87 66 68 90 91 88 92 97 97 95 96
49 72 83 99 98 44 18 14 16 14 16 14 14 15 22 41 47 54 54 57 56 59 53 63 63 81 80 68 49 56 61 85 86 76 72 82 94 83 93 98 89 90 90 82
50 67 74 86 95 47 65 30 15 18 14 14 14 13 14 30 44 48 51 56 57 64 62 90 94 74 69 77 78 47 58 60 89 79 71 60 89 69 74 81 98 82 81 79
21 49 64 74 85 87 68 61 28 16 19 14 12 13 13 16 34 48 48 55 60 61 91 100 87 70 57 75 73 70 81 74 78 72 73 72 61 63 68 87 90 74 80 76
9 23 59 71 70 82 92 72 77 28 16 18 12 12 14 15 20 32 44 57 63 67 71 87 84 77 75 61 49 53 69 74 76 75 70 67 47 53 77 76 66 65 64 61
7 11 24 69 75 71 85 93 82 87 30 18 16 12 12 15 17 22 40 46 54 62 74 67 60 69 51 62 60 41 57 52 76 51 72 44 50 49 46 44 44 51 55 64
7 10 15 33 72 80 76 83 93 95 71 13 14 14 12 13 14 17 28 42 52 53 56 63 59 50 47 65 66 51 34 39 43 41 40 43 44 48 47 44 44 43 42 43
13 6 11 24 77 86 86 81 85 87 83 16 15 14 11 13 14 15 18 28 46 51 60 61 56 52 43 55 38 36 50 33 33 32 32 33 36 38 40 43 44 45 47 53
20 8 9 19 29 86 95 95 87 83 80 18 17 18 14 11 14 14 16 22 36 49 54 60 58 44 46 36 32 15 10 14 23 45 25 27 29 32 34 36 38 43 46 44
28 10 10 15 26 54 100 100 95 88 81 26 17 14 14 12 11 13 15 20 28 34 46 48 47 40 48 37 18 5 4 6 12 15 21 23 27 29 30 30 33 36 35 34
30 13 15 16 24 53 98 98 88 88 84 32 20 15 10 10 10 12 15 18 25 29 37 41 38 36 44 28 9 6 6 5 5 8 11 14 16 19 20 19 20 19 18 18
32 16 18 24 28 43 92 100 99 91 51 35 29 22 12 13 10 13 14 19 23 28 41 32 26 23 29 18 7 6 6 6 6 7 7 8 9 12 12 13 15 15 17 18
29 20 21 34 35 38 64 100 99 98 78 42 34 28 20 12 12 12 15 18 23 26 27 24 26 20 11 7 7 6 6 6 6 8 8 9 9 10 12 14 15 16 16 16
28 23 29 36 43 44 49 100 98 96 98 86 52 32 27 23 15 16 20 20 22 20 15 12 11 7 7 8 8 8 8 7 7 6 7 8 10 12 14 16 17 17 18 18
31 31 28 35 57 70 76 100 96 91 86 80 76 57 40 27 22 20 22 24 21 20 15 15 13 7 9 7 6 6 6 7 8 8 7 7 9 12 14 17 19 20 21 22
38 42 66 64 99 98 86 92 87 77 76 72 66 59 60 50 27 22 22 17 16 13 15 15 8 7 10 10 10 10 9 8 8 9 8 8 9 12 16 20 21 22 23 23
63 95 100 99 93 92 100 88 68 76 60 65 60 54 52 51 61 26 18 15 12 14 14 10 7 8 10 12 15 16 14 10 10 10 10 10 10 14 20 22 24 25 24 19
97 100 98 91 93 84 67 46 41 48 49 54 52 45 48 46 53 37 16 16 12 12 15 8 7 7 9 14 16 16 15 14 11 10 12 11 12 21 24 25 26 24 18 12
99 98 92 91 70 58 52 45 50 59 66 64 56 47 40 40 41 37 24 18 14 15 14 12 11 10 13 22 19 18 16 13 12 14 13 12 21 25 26 27 24 17 11 7
99 95 89 76 76 67 59 61 63 70 81 74 59 52 46 60 65 44 30 23 22 19 19 18 29 31 28 23 18 16 14 14 15 13 12 20 26 28 28 25 17 10 6 6
100 98 96 93 90 76 64 70 71 90 90 81 76 54 62 62 53 49 37 25 22 18 18 25 35 53 28 25 22 19 17 16 12 12 20 26 30 30 25 16 9 5 5 6

GFSNW_700_rhum_129.txt.gz
RH
86 69 28 15 29 43 57 76 58 32 42 47 55 69 78 67 65 65 68 67 67 60 37 32 28 29 40 53 58 72 86 92 86 72 82 96 98 98 99 98 95 94 99 97
8 11 12 12 12 14 20 25 30 34 54 62 45 58 70 72 64 60 65 68 52 43 50 38 32 28 32 47 59 70 84 88 86 61 71 79 94 98 96 92 97 100 98 97
42 21 9 10 12 14 14 16 23 32 51 83 76 55 57 60 57 52 60 58 51 61 73 67 65 41 49 53 61 66 82 90 91 94 98 99 100 97 96 97 98 98 99 98
72 66 54 33 20 10 13 15 19 30 41 70 94 72 46 47 57 56 58 67 64 48 54 58 74 44 51 59 63 56 70 73 79 81 89 88 87 96 89 96 99 98 98 98
48 64 75 77 62 19 10 16 20 18 22 39 56 66 61 47 45 60 53 64 63 54 45 41 30 36 52 62 65 56 57 66 76 72 73 78 79 87 88 98 95 96 99 98
33 53 73 78 74 63 8 8 14 20 16 29 47 65 56 56 47 46 53 56 54 52 40 29 26 48 48 51 58 61 59 67 79 69 77 76 70 79 100 99 99 99 99 99
8 25 52 72 70 72 34 12 8 12 15 17 25 27 43 46 51 50 48 50 56 55 47 42 46 47 49 46 47 60 60 73 91 71 67 84 60 73 75 100 100 95 99 99
7 6 14 38 68 77 75 40 35 10 10 12 13 16 20 38 46 47 45 49 49 51 49 48 50 67 69 60 51 53 60 74 85 79 77 70 65 62 74 76 85 75 81 90
21 9 7 10 23 59 76 80 59 55 22 10 11 10 12 17 32 39 40 46 48 48 49 42 67 79 56 73 65 64 68 74 86 78 76 83 47 53 62 71 80 71 70 71
35 23 11 7 8 29 63 74 80 70 58 41 24 10 10 11 15 27 40 45 46 50 53 51 84 72 70 57 58 63 56 71 74 80 76 57 40 48 52 67 66 64 69 66
51 38 26 12 7 9 20 50 71 77 74 62 55 60 30 9 10 13 30 43 46 52 57 70 90 82 64 60 48 54 49 60 68 70 65 56 43 39 43 42 45 54 63 62
64 54 41 29 14 8 8 21 51 73 72 68 71 79 47 10 9 10 14 30 50 53 59 88 88 75 60 64 48 51 50 35 53 52 38 37 31 35 35 35 34 38 38 38
71 66 56 43 29 15 8 8 32 60 74 72 76 71 71 39 10 9 12 14 26 41 59 65 78 69 65 61 51 48 46 33 35 31 22 26 28 32 32 36 34 32 32 32
84 73 67 56 43 30 15 9 10 20 33 50 68 59 58 53 14 12 10 12 16 20 36 58 62 60 58 57 50 43 31 35 32 21 18 19 18 21 23 26 28 27 28 30
93 83 74 66 56 43 30 18 12 12 24 30 41 46 62 67 62 16 12 11 14 18 20 26 35 48 52 44 41 17 17 12 16 13 15 14 16 18 20 20 22 20 18 16
95 91 85 75 64 54 41 29 28 29 35 36 44 38 42 62 63 36 20 13 12 16 19 21 23 24 46 48 32 12 8 5 5 6 10 12 13 16 18 19 20 21 20 18
96 90 89 84 74 64 48 38 36 22 22 38 46 49 48 38 18 15 11 12 12 16 18 16 18 22 31 34 14 9 12 12 9 5 6 8 10 10 11 12 13 13 12 11
95 92 90 89 82 71 60 41 36 30 30 46 51 47 36 33 40 46 36 21 16 14 19 16 14 19 21 17 8 10 9 9 10 7 6 8 12 12 11 12 13 13 14 16
97 93 92 94 88 80 61 51 45 37 51 65 53 42 40 35 36 38 33 26 24 26 16 13 22 24 18 8 8 8 8 7 7 8 7 7 8 11 12 12 13 14 17 19
100 94 94 100 88 78 70 59 57 58 50 51 37 30 32 34 39 49 54 38 35 34 32 23 19 13 10 7 6 6 7 9 7 7 7 7 8 10 10 12 13 15 18 21
98 96 92 96 92 80 65 53 57 55 51 36 32 26 25 40 54 72 68 45 37 38 39 40 31 33 34 9 7 8 7 7 8 9 7 7 9 11 11 11 13 14 17 22
100 99 97 98 93 78 63 63 63 43 34 31 27 29 31 34 44 71 68 54 51 62 56 46 38 39 12 9 8 7 9 7 8 8 10 8 8 8 9 11 13 14 16 23
100 100 100 91 87 76 69 70 50 35 32 30 32 36 39 43 57 80 71 51 66 62 61 50 40 36 33 38 33 30 13 9 8 9 9 10 10 9 9 10 12 13 17 24
98 97 95 88 78 68 54 48 41 34 31 37 42 49 54 51 59 70 71 58 58 51 43 42 31 35 35 25 17 13 14 14 10 12 11 9 11 11 11 12 12 14 19 26
97 94 85 82 73 62 57 50 41 34 33 36 56 67 69 68 74 69 67 67 68 62 52 40 35 23 25 27 26 35 22 17 16 15 12 12 13 13 14 15 15 16 22 29
97 93 87 74 65 56 48 41 35 36 43 55 70 85 83 79 72 61 56 60 55 46 40 38 32 34 44 41 42 53 45 22 19 16 14 15 17 17 18 18 18 18 26 31
96 95 79 82 76 64 49 48 52 58 64 70 84 97 83 74 70 67 60 53 44 45 44 43 41 41 46 50 33 40 87 92 29 18 18 19 22 23 22 21 19 23 30 28

GFSNW_700_rhum_135.txt.gz
RH
60 47 35 15 8 9 11 10 15 16 19 21 25 32 40 45 40 41 44 55 68 63 50 38 36 40 46 55 61 75 88 84 85 63 80 80 91 98 99 98 91 95 97 88
48 63 68 54 8 8 11 12 16 17 17 23 22 24 36 42 42 41 36 41 46 54 60 63 47 43 52 58 63 65 82 86 91 64 66 73 91 89 98 93 96 93 98 94
27 47 62 59 28 7 11 9 14 22 22 20 25 25 26 37 40 41 46 38 35 40 48 61 56 48 48 57 67 59 69 83 85 87 79 88 88 91 91 94 98 97 98 98
7 21 48 56 53 20 9 12 10 15 26 28 27 27 30 28 34 41 41 43 44 42 35 36 45 44 46 53 66 60 62 63 75 59 66 78 84 88 85 96 96 98 97 98
14 7 14 42 57 51 25 12 12 11 13 22 26 26 26 32 35 32 37 42 39 44 51 38 24 29 45 45 54 63 64 65 71 48 62 81 77 78 74 85 82 93 93 96
30 18 8 10 35 59 53 50 32 12 10 15 19 24 30 30 31 35 34 36 41 40 38 40 36 26 42 46 47 51 63 78 83 63 58 60 56 56 63 78 81 89 86 93
42 34 23 11 8 26 56 63 61 51 22 11 11 13 14 25 34 35 34 37 35 39 42 37 35 38 39 42 48 55 58 72 96 86 62 60 44 55 55 66 69 81 91 90
51 45 36 26 14 8 21 41 58 72 60 24 26 11 10 12 16 26 34 35 34 36 36 38 31 40 50 50 53 54 63 72 87 91 92 51 37 43 47 58 50 58 65 79
57 55 49 41 30 19 11 18 28 53 66 56 52 24 63 37 13 13 19 34 36 36 34 37 36 36 56 49 44 52 67 69 85 93 94 90 46 42 44 50 47 50 55 55
68 60 58 52 44 34 22 15 15 26 43 56 65 63 63 78 73 20 13 19 34 37 41 43 48 55 51 52 48 45 58 64 75 78 88 45 31 44 39 39 39 43 46 42
80 73 65 62 56 49 39 26 18 17 21 35 45 58 70 76 60 32 18 16 26 42 48 48 47 66 61 52 43 38 37 46 56 76 86 59 36 34 35 33 32 35 41 42
83 86 80 74 67 59 53 43 30 22 18 22 27 36 58 60 68 53 28 16 20 28 40 48 52 50 47 51 43 40 40 28 35 44 29 24 28 25 27 28 28 31 32 30
85 88 88 85 78 70 63 56 49 37 31 26 28 25 43 41 44 55 65 33 16 17 20 27 36 38 46 44 31 33 31 32 31 26 16 20 19 20 21 27 31 29 29 29
98 98 91 92 86 79 76 68 62 54 44 35 30 31 28 28 32 44 56 68 54 36 19 21 22 19 23 28 25 18 22 21 21 19 13 17 15 16 14 19 24 28 28 26
99 100 98 92 92 83 82 79 74 65 56 45 40 40 32 25 23 31 39 50 47 24 20 22 22 18 18 14 13 6 7 10 14 12 8 7 11 14 13 15 16 24 26 26
98 100 98 92 94 88 87 82 75 66 62 63 57 49 40 33 26 23 22 28 34 32 28 26 24 22 26 20 16 12 6 7 9 10 9 8 6 8 12 16 18 21 24 23
99 98 99 93 93 92 89 89 83 84 81 67 62 52 25 25 26 28 29 30 34 37 35 28 28 28 34 30 23 25 8 7 8 10 10 9 8 9 7 10 14 16 16 15
100 100 100 97 92 88 88 89 91 89 84 79 68 49 43 40 38 36 32 30 32 29 29 24 22 27 32 21 15 19 18 10 11 10 9 8 8 10 8 7 7 8 10 12
100 100 100 100 99 94 92 97 95 93 88 87 79 64 56 51 41 34 34 35 38 34 30 31 30 30 20 12 14 20 29 25 10 11 11 9 8 9 9 7 8 8 9 11
98 98 99 100 99 98 97 96 90 87 81 90 67 65 70 61 54 49 45 42 41 40 34 31 31 15 13 26 23 24 26 34 33 27 12 8 7 8 11 8 8 10 11 13
98 97 99 98 98 97 97 96 88 78 73 71 57 54 49 56 54 52 50 46 46 44 38 36 34 22 20 20 14 13 12 12 14 18 19 12 8 8 8 11 10 9 12 13
100 99 98 98 98 97 95 96 83 71 62 59 48 39 30 35 35 43 51 51 48 41 52 49 38 21 25 18 14 18 26 29 34 32 26 32 26 8 8 10 10 9 10 14
99 98 98 97 96 97 96 87 70 61 68 53 45 39 32 32 29 45 47 56 58 49 55 41 23 23 22 25 29 33 42 43 42 45 42 32 22 12 8 8 9 11 11 13
97 98 97 92 85 89 74 66 60 56 55 80 52 36 35 34 37 48 53 60 54 55 55 33 22 24 28 31 30 33 35 36 36 40 46 50 20 15 11 10 10 11 12 14
97 98 92 85 78 71 65 61 72 75 76 94 50 39 38 39 42 46 53 59 45 52 32 24 29 30 35 40 43 40 38 36 33 31 39 57 58 26 20 14 15 14 16 20
98 94 86 79 74 81 82 73 79 94 96 95 79 51 49 47 50 57 55 55 40 30 29 34 40 46 46 45 42 42 40 42 55 61 48 45 51 65 30 25 22 23 24 27
97 87 83 90 87 87 79 85 95 97 98 95 94 71 55 55 57 66 51 37 31 32 35 40 42 44 45 43 44 50 48 58 60 82 76 66 54 61 66 33 30 31 38 53

GFSNW_700_rhum_138.txt.gz
RH
42 56 65 48 7 9 9 13 19 16 20 20 17 17 19 19 19 24 29 34 35 30 29 28 36 51 58 61 64 68 80 77 75 60 67 74 81 96 98 98 92 94 97 79
15 44 60 58 12 7 9 12 17 15 18 20 18 17 20 28 28 23 24 22 26 34 39 36 34 42 49 60 64 61 64 83 84 58 63 67 70 80 96 98 97 94 97 87
8 12 41 57 39 14 9 8 12 17 18 19 23 24 25 25 28 34 33 33 28 29 32 41 33 35 40 50 59 63 59 64 74 79 66 75 76 73 88 97 98 96 97 96
24 11 10 36 53 41 24 11 8 11 18 22 25 26 28 31 31 30 36 36 37 40 33 28 35 35 36 40 51 63 69 56 63 58 56 66 72 68 79 84 95 97 96 97
40 28 14 9 27 49 46 39 15 9 10 15 23 25 28 30 35 35 35 41 48 47 45 47 33 29 31 44 43 51 60 65 66 42 52 70 57 53 61 67 84 88 93 93
47 42 32 18 10 24 50 54 53 38 12 11 12 14 24 30 32 33 36 40 39 43 49 51 47 40 38 43 41 52 61 69 73 50 53 55 46 45 53 63 77 80 85 86
51 49 44 36 24 12 14 29 48 61 52 19 16 11 11 15 25 28 33 35 36 38 40 40 37 34 37 44 47 58 69 69 77 71 53 48 37 38 47 51 60 69 71 77
60 53 52 46 40 29 16 15 23 40 54 58 34 20 52 29 18 15 21 32 32 32 36 38 30 33 36 50 55 58 63 81 75 87 81 40 35 36 40 43 43 53 70 67
69 67 58 53 50 45 34 22 16 18 33 48 60 55 50 63 77 51 15 17 27 31 34 40 46 34 42 44 57 52 56 82 82 92 87 83 33 35 37 36 40 42 54 53
78 75 75 64 60 56 50 41 30 20 18 28 44 54 55 60 70 61 39 15 18 24 38 42 49 48 49 46 48 52 57 78 83 86 88 31 24 30 38 37 34 31 40 48
90 78 80 78 72 67 62 56 48 38 28 21 28 30 39 52 60 59 52 32 23 31 44 47 46 57 51 47 35 37 43 45 47 68 91 54 24 25 27 26 28 28 30 35
89 86 79 82 81 73 70 67 61 55 47 37 29 27 23 32 38 41 43 46 24 17 21 36 40 43 40 40 42 28 40 28 34 31 15 14 15 17 18 18 22 27 27 29
94 89 90 88 88 81 73 72 73 67 62 53 43 28 26 28 26 28 32 43 57 39 22 20 25 24 31 37 25 26 24 28 36 26 15 15 17 16 15 15 15 22 25 29
92 96 97 99 95 88 82 74 71 74 70 63 31 42 37 40 33 26 29 42 57 70 65 44 29 19 21 21 24 20 19 18 14 12 12 12 9 11 11 12 11 12 20 25
99 97 100 100 97 89 84 84 81 75 75 66 60 57 53 40 34 31 27 33 42 55 55 52 42 26 27 26 25 19 21 26 13 9 18 14 12 7 9 11 11 11 12 14
100 100 99 99 99 97 90 81 80 78 75 73 75 63 56 51 45 36 27 25 26 37 41 32 33 30 34 29 21 10 20 26 15 10 11 14 14 13 14 11 15 13 11 13
100 100 100 100 100 99 99 92 87 88 90 82 74 70 56 33 29 28 28 30 32 33 33 31 30 28 34 29 13 16 16 18 18 16 14 10 12 13 16 12 9 11 12 12
100 99 99 100 100 100 99 99 97 92 90 86 77 64 55 42 40 40 41 42 40 34 34 30 28 29 31 20 13 16 19 18 18 24 18 12 11 10 12 14 16 11 10 13
100 99 99 99 98 98 99 100 98 98 93 98 82 68 70 59 56 52 47 42 39 37 34 32 34 28 20 13 13 13 21 20 21 23 28 24 17 12 13 11 9 13 9 12
99 99 99 99 99 100 100 99 98 97 87 86 74 66 72 69 67 60 55 49 42 39 34 30 28 19 18 15 12 13 13 12 12 14 28 28 27 24 22 13 9 9 11 12
98 98 99 99 99 99 98 98 97 93 87 70 57 55 55 66 79 83 69 53 43 39 35 32 27 22 20 14 15 16 13 10 13 15 15 14 19 19 21 28 19 10 12 10
99 99 98 98 98 97 96 98 90 83 73 64 56 54 53 50 62 80 72 56 40 37 43 39 28 22 19 18 18 19 16 13 17 21 26 30 28 25 28 30 28 18 12 16
98 98 98 97 96 97 99 91 78 69 62 57 54 58 59 56 52 68 48 39 45 42 41 32 26 23 20 18 17 18 18 19 24 32 37 39 39 39 41 42 24 15 13 14
98 97 97 94 87 81 67 65 61 61 58 56 67 56 77 64 45 51 41 52 46 50 43 31 27 24 21 20 20 17 19 22 28 32 33 34 31 29 27 35 46 21 16 17
97 97 95 78 70 68 68 60 68 64 69 65 64 81 96 68 41 42 51 47 42 41 32 29 22 22 20 19 19 23 28 32 38 42 36 34 37 36 29 26 52 54 26 21
97 95 86 74 75 74 78 73 67 65 82 88 93 97 96 77 48 47 42 49 39 35 33 31 31 28 27 27 30 34 40 41 42 37 34 36 43 56 48 39 45 68 58 31
98 85 84 80 86 80 83 75 76 74 88 95 96 95 89 90 77 59 50 48 46 42 42 40 36 34 33 34 35 45 44 42 40 38 40 39 47 65 74 76 72 77 79 59